[[{"header":{"parameterUnit":"m.s-1","parameterCategory":1,"la1":30.6,"la2":29.2853,"lo1":-89.7004,"lo2":-87.6739,"dy":0.0162,"dx":0.0183,"nx":112,"ny":82,"refTime":"2024-03-25T12:00:00:Z","depth":0,"parameterNumber":2,"parameterNumberName":"U-component_of_WINDS"},"data":[0.0,0.0,0.0,0.0,0.0,0.0,0.0,0.0,0.0,0.0,0.0,0.0,0.0,0.0,0.0,0.0,0.0,0.0,0.0,0.0,0.0,0.0,0.0,0.0,0.0,0.0,0.0,0.0,0.0,0.0,0.0,0.0,0.0,0.0,0.0,0.0,0.0,0.0,0.0,0.0,0.0,0.0,0.0,0.0,0.0,0.0,0.0,0.0,0.0,0.0,0.0,0.0,0.0,0.0,0.0,0.0,0.0,0.0,0.0,0.0,0.0,0.0,0.0,0.0,0.0,0.0,0.0,0.0,0.0,0.0,0.0,0.0,0.0,0.0,0.0,0.0,0.0,0.0,0.0,0.0,0.0,0.0,0.0,0.0,0.0,0.0,0.0,0.0,0.0,0.0,-5.8262,-5.9082,-5.9238,-5.9297,-5.9297,-5.918,-5.8945,-5.8652,0.0,0.0,0.0,0.0,0.0,0.0,0.0,0.0,0.0,0.0,0.0,0.0,0.0,0.0,0.0,0.0,0.0,0.0,0.0,0.0,0.0,0.0,0.0,0.0,0.0,0.0,0.0,0.0,0.0,0.0,0.0,0.0,0.0,0.0,0.0,0.0,0.0,0.0,0.0,0.0,0.0,0.0,0.0,0.0,0.0,0.0,0.0,0.0,0.0,0.0,0.0,0.0,0.0,0.0,0.0,0.0,0.0,0.0,0.0,0.0,0.0,0.0,0.0,0.0,0.0,0.0,0.0,0.0,0.0,0.0,0.0,0.0,0.0,0.0,0.0,0.0,0.0,0.0,0.0,0.0,0.0,0.0,0.0,0.0,0.0,0.0,0.0,0.0,0.0,0.0,0.0,0.0,0.0,0.0,0.0,0.0,0.0,0.0,0.0,0.0,0.0,0.0,0.0,0.0,-5.8594,-5.9121,-5.9512,-5.9707,-5.9707,-5.9062,-5.8769,-5.9062,0.0,0.0,0.0,0.0,0.0,0.0,0.0,0.0,0.0,0.0,0.0,0.0,0.0,0.0,0.0,0.0,0.0,0.0,0.0,0.0,0.0,0.0,0.0,0.0,0.0,0.0,0.0,0.0,0.0,0.0,0.0,0.0,0.0,0.0,0.0,0.0,0.0,0.0,0.0,0.0,0.0,0.0,0.0,0.0,0.0,0.0,0.0,0.0,0.0,0.0,0.0,0.0,0.0,0.0,0.0,0.0,0.0,0.0,0.0,0.0,0.0,0.0,0.0,0.0,0.0,0.0,0.0,0.0,0.0,0.0,0.0,0.0,0.0,0.0,0.0,0.0,0.0,0.0,0.0,0.0,0.0,0.0,0.0,0.0,0.0,0.0,0.0,0.0,0.0,0.0,0.0,0.0,0.0,0.0,0.0,0.0,0.0,0.0,0.0,0.0,0.0,0.0,0.0,-6.1009,-5.9629,-5.9863,-5.9824,-5.9922,-6.0156,-5.916,-5.8828,-5.9473,-5.9297,0.0,0.0,0.0,0.0,0.0,0.0,0.0,0.0,0.0,0.0,0.0,0.0,0.0,0.0,0.0,0.0,0.0,0.0,0.0,0.0,0.0,0.0,0.0,0.0,0.0,0.0,0.0,0.0,0.0,0.0,0.0,0.0,0.0,0.0,0.0,0.0,0.0,0.0,0.0,0.0,0.0,0.0,0.0,0.0,0.0,0.0,0.0,0.0,0.0,0.0,0.0,0.0,0.0,0.0,0.0,0.0,0.0,0.0,0.0,0.0,0.0,0.0,0.0,0.0,0.0,0.0,0.0,0.0,0.0,0.0,0.0,0.0,0.0,0.0,0.0,0.0,0.0,0.0,0.0,0.0,0.0,0.0,0.0,0.0,0.0,0.0,0.0,0.0,0.0,0.0,0.0,0.0,0.0,0.0,0.0,0.0,0.0,0.0,0.0,0.0,0.0,0.0,-6.0039,-6.0488,-6.0566,-6.0215,-6.0098,-6.0315,-5.9355,-5.9004,-5.9746,-5.9512,0.0,0.0,0.0,0.0,0.0,0.0,0.0,0.0,0.0,0.0,0.0,0.0,0.0,0.0,0.0,0.0,0.0,0.0,0.0,0.0,0.0,0.0,0.0,0.0,0.0,0.0,0.0,0.0,0.0,0.0,0.0,0.0,0.0,0.0,0.0,0.0,0.0,0.0,0.0,0.0,0.0,0.0,0.0,0.0,0.0,0.0,0.0,0.0,0.0,0.0,0.0,0.0,0.0,0.0,0.0,0.0,0.0,0.0,0.0,0.0,0.0,0.0,0.0,0.0,0.0,0.0,0.0,0.0,0.0,0.0,0.0,0.0,0.0,0.0,0.0,0.0,0.0,0.0,0.0,0.0,0.0,0.0,0.0,0.0,0.0,0.0,0.0,0.0,0.0,0.0,0.0,0.0,0.0,0.0,0.0,0.0,0.0,0.0,0.0,0.0,0.0,0.0,-6.039,-6.0605,-6.0976,-6.0664,-6.039,-6.043,-5.9629,-5.9355,-5.9805,-5.9805,0.0,0.0,0.0,0.0,0.0,0.0,0.0,0.0,0.0,0.0,0.0,0.0,0.0,0.0,0.0,0.0,0.0,0.0,0.0,0.0,0.0,0.0,0.0,0.0,0.0,0.0,0.0,0.0,0.0,0.0,0.0,0.0,0.0,0.0,0.0,0.0,0.0,0.0,0.0,0.0,0.0,0.0,0.0,0.0,0.0,0.0,0.0,0.0,0.0,0.0,0.0,0.0,0.0,0.0,0.0,0.0,0.0,0.0,0.0,0.0,0.0,0.0,0.0,0.0,0.0,0.0,0.0,0.0,0.0,0.0,0.0,0.0,0.0,0.0,0.0,0.0,0.0,0.0,0.0,0.0,0.0,0.0,0.0,0.0,0.0,0.0,0.0,0.0,0.0,0.0,0.0,0.0,0.0,0.0,0.0,0.0,0.0,0.0,0.0,0.0,0.0,0.0,-6.084,-6.0898,-6.1074,-6.0957,-6.0742,-6.0449,-5.9922,-5.9746,-6.0156,0.0,0.0,0.0,0.0,0.0,0.0,0.0,0.0,0.0,0.0,0.0,0.0,0.0,0.0,0.0,0.0,0.0,0.0,0.0,0.0,0.0,0.0,0.0,0.0,0.0,0.0,0.0,0.0,0.0,0.0,0.0,0.0,0.0,0.0,0.0,0.0,0.0,0.0,0.0,0.0,0.0,0.0,0.0,0.0,0.0,0.0,0.0,0.0,0.0,0.0,0.0,0.0,0.0,0.0,0.0,0.0,0.0,0.0,0.0,0.0,0.0,0.0,0.0,0.0,0.0,0.0,0.0,0.0,0.0,0.0,0.0,0.0,0.0,0.0,0.0,0.0,0.0,0.0,0.0,0.0,0.0,0.0,0.0,0.0,0.0,0.0,0.0,0.0,0.0,0.0,0.0,0.0,0.0,0.0,0.0,0.0,0.0,0.0,0.0,0.0,0.0,0.0,-6.1248,-6.1035,-6.0976,-6.125,-6.1152,-6.0918,-6.0488,-6.0039,-5.998,-6.0315,0.0,0.0,0.0,0.0,0.0,0.0,0.0,0.0,0.0,0.0,0.0,0.0,0.0,0.0,0.0,0.0,0.0,0.0,0.0,0.0,0.0,0.0,0.0,0.0,0.0,0.0,0.0,0.0,0.0,0.0,0.0,0.0,0.0,0.0,0.0,0.0,0.0,0.0,0.0,0.0,0.0,0.0,0.0,0.0,0.0,0.0,0.0,0.0,0.0,0.0,0.0,0.0,0.0,0.0,0.0,0.0,0.0,0.0,0.0,0.0,0.0,0.0,0.0,0.0,0.0,0.0,0.0,0.0,0.0,0.0,0.0,0.0,0.0,0.0,0.0,0.0,0.0,0.0,0.0,0.0,0.0,0.0,0.0,0.0,0.0,0.0,0.0,0.0,0.0,0.0,0.0,0.0,0.0,0.0,0.0,0.0,0.0,0.0,0.0,0.0,0.0,0.0,-6.1832,-6.0957,-6.0781,-6.1601,-6.1367,-6.0918,-6.0488,-6.0039,-5.998,0.0,0.0,0.0,0.0,0.0,0.0,0.0,0.0,0.0,0.0,0.0,0.0,0.0,0.0,0.0,0.0,0.0,0.0,0.0,0.0,0.0,0.0,0.0,0.0,0.0,0.0,0.0,0.0,0.0,0.0,0.0,0.0,0.0,0.0,0.0,0.0,0.0,0.0,0.0,0.0,0.0,0.0,0.0,0.0,0.0,0.0,0.0,0.0,0.0,0.0,0.0,0.0,0.0,0.0,0.0,0.0,0.0,0.0,0.0,0.0,0.0,0.0,0.0,0.0,0.0,0.0,0.0,0.0,0.0,0.0,0.0,0.0,0.0,0.0,0.0,0.0,0.0,0.0,0.0,0.0,0.0,0.0,0.0,0.0,0.0,0.0,0.0,0.0,0.0,0.0,0.0,0.0,0.0,0.0,0.0,0.0,0.0,0.0,0.0,0.0,0.0,0.0,0.0,-6.1581,-6.125,-6.1094,-6.166,-6.1894,-6.168,-6.0957,-6.0508,-6.043,-6.0859,0.0,0.0,0.0,0.0,0.0,0.0,0.0,0.0,0.0,0.0,0.0,0.0,0.0,0.0,0.0,0.0,0.0,0.0,0.0,0.0,0.0,0.0,0.0,0.0,0.0,0.0,0.0,0.0,0.0,0.0,0.0,0.0,0.0,0.0,0.0,0.0,0.0,0.0,0.0,0.0,0.0,0.0,0.0,0.0,0.0,0.0,0.0,0.0,0.0,0.0,0.0,0.0,0.0,0.0,0.0,0.0,0.0,0.0,0.0,0.0,0.0,0.0,0.0,0.0,0.0,0.0,0.0,0.0,0.0,0.0,0.0,0.0,0.0,0.0,0.0,0.0,0.0,0.0,0.0,0.0,0.0,0.0,0.0,0.0,0.0,0.0,0.0,0.0,0.0,0.0,0.0,0.0,0.0,0.0,0.0,0.0,0.0,0.0,0.0,0.0,0.0,0.0,-6.1484,-6.1367,-6.1328,-6.1894,-6.2187,-6.207,-6.1387,-6.0781,-6.0547,-6.0801,0.0,0.0,0.0,0.0,0.0,0.0,0.0,0.0,0.0,0.0,0.0,0.0,0.0,0.0,0.0,0.0,0.0,0.0,0.0,0.0,0.0,0.0,0.0,0.0,0.0,0.0,0.0,0.0,0.0,0.0,0.0,0.0,0.0,0.0,0.0,0.0,0.0,0.0,0.0,0.0,0.0,0.0,0.0,0.0,0.0,0.0,0.0,0.0,0.0,0.0,0.0,0.0,0.0,0.0,0.0,0.0,0.0,0.0,0.0,0.0,0.0,0.0,0.0,0.0,0.0,0.0,0.0,0.0,0.0,0.0,0.0,0.0,0.0,0.0,0.0,0.0,0.0,0.0,0.0,0.0,0.0,0.0,0.0,0.0,0.0,0.0,0.0,0.0,0.0,0.0,0.0,0.0,0.0,0.0,0.0,0.0,0.0,0.0,0.0,0.0,0.0,0.0,-6.1484,-6.1367,-6.1426,-6.2265,-6.2422,-6.2246,-6.1816,-6.1015,-6.0547,-6.0488,0.0,0.0,0.0,0.0,0.0,0.0,0.0,0.0,0.0,0.0,0.0,0.0,0.0,0.0,0.0,0.0,0.0,0.0,0.0,0.0,0.0,0.0,0.0,0.0,0.0,0.0,0.0,0.0,0.0,0.0,0.0,0.0,0.0,0.0,0.0,0.0,0.0,0.0,0.0,0.0,0.0,0.0,0.0,0.0,0.0,0.0,0.0,0.0,0.0,0.0,0.0,0.0,0.0,0.0,0.0,0.0,0.0,0.0,0.0,0.0,-7.689,-7.689,0.0,0.0,0.0,0.0,0.0,0.0,0.0,0.0,0.0,0.0,0.0,0.0,0.0,0.0,0.0,0.0,0.0,0.0,0.0,0.0,0.0,0.0,0.0,0.0,0.0,0.0,0.0,0.0,0.0,0.0,0.0,0.0,0.0,0.0,0.0,0.0,0.0,0.0,0.0,0.0,-6.1484,-6.1367,-6.1426,-6.2265,-6.2695,-6.2695,-6.2246,-6.1719,-6.1308,-6.0976,-6.0625,0.0,0.0,0.0,0.0,0.0,0.0,0.0,0.0,0.0,0.0,0.0,0.0,0.0,0.0,0.0,0.0,0.0,0.0,0.0,0.0,0.0,0.0,0.0,0.0,0.0,0.0,0.0,0.0,0.0,0.0,0.0,0.0,0.0,0.0,0.0,0.0,0.0,0.0,0.0,0.0,0.0,0.0,0.0,0.0,0.0,0.0,0.0,0.0,0.0,0.0,0.0,0.0,0.0,0.0,0.0,0.0,0.0,0.0,0.0,-7.6055,-7.5904,0.0,0.0,0.0,0.0,0.0,0.0,0.0,0.0,0.0,0.0,0.0,0.0,0.0,0.0,0.0,0.0,0.0,0.0,0.0,0.0,0.0,0.0,0.0,0.0,0.0,0.0,0.0,0.0,0.0,0.0,0.0,0.0,0.0,0.0,0.0,0.0,0.0,0.0,0.0,0.0,-6.1543,-6.1367,-6.1426,-6.2265,-6.2578,-6.2637,-6.2363,-6.1777,-6.125,-6.0801,-6.0547,0.0,0.0,0.0,0.0,0.0,0.0,0.0,0.0,0.0,0.0,0.0,0.0,0.0,0.0,0.0,0.0,0.0,0.0,0.0,0.0,0.0,0.0,0.0,0.0,0.0,0.0,0.0,0.0,0.0,0.0,0.0,0.0,0.0,0.0,0.0,0.0,0.0,0.0,0.0,0.0,0.0,0.0,0.0,0.0,0.0,0.0,0.0,0.0,0.0,0.0,0.0,0.0,0.0,-7.5151,-7.5377,-7.5904,-7.5904,-7.5954,-7.6055,-7.6055,-7.5753,-7.5276,-7.5728,0.0,0.0,0.0,0.0,0.0,0.0,0.0,0.0,0.0,0.0,0.0,0.0,0.0,0.0,0.0,0.0,0.0,0.0,0.0,0.0,0.0,0.0,-5.9687,-6.0098,-5.998,-6.0996,-6.5758,0.0,0.0,0.0,0.0,0.0,0.0,0.0,0.0,0.0,0.0,0.0,-6.1367,-6.1191,-6.1308,-6.2187,-6.2305,-6.2363,-6.2363,-6.1719,-6.1074,-6.0488,-6.043,-6.0098,0.0,0.0,0.0,0.0,0.0,0.0,0.0,0.0,0.0,0.0,0.0,0.0,0.0,0.0,0.0,0.0,0.0,0.0,0.0,0.0,0.0,0.0,0.0,0.0,0.0,0.0,0.0,0.0,0.0,0.0,0.0,0.0,-8.0235,-8.2115,0.0,0.0,0.0,0.0,0.0,0.0,0.0,0.0,0.0,0.0,0.0,0.0,0.0,-7.5904,-7.5829,-7.5377,-7.5176,-7.5226,-7.4749,-7.4824,-7.5352,-7.5352,-7.5603,-7.6055,-7.6055,0.0,-7.5251,-7.5327,0.0,0.0,0.0,0.0,0.0,0.0,0.0,0.0,0.0,0.0,0.0,0.0,0.0,0.0,0.0,0.0,0.0,0.0,0.0,0.0,0.0,0.0,-5.8828,-5.9238,-5.9297,-5.9481,-6.0243,-6.0704,-6.0692,-6.0405,-5.9987,-5.9706,0.0,0.0,0.0,0.0,0.0,0.0,-6.0605,-6.0547,-6.084,-6.1719,-6.2129,-6.2363,-6.2363,-6.2246,-6.168,-6.0508,-6.043,-6.0215,-5.9746,-5.9746,0.0,0.0,0.0,0.0,0.0,0.0,0.0,0.0,0.0,0.0,0.0,0.0,0.0,0.0,0.0,0.0,0.0,0.0,0.0,0.0,0.0,0.0,0.0,0.0,0.0,0.0,0.0,0.0,0.0,-8.0983,-8.021,-8.1033,-8.0368,-7.962,0.0,0.0,0.0,0.0,0.0,0.0,0.0,0.0,0.0,-7.5603,-7.5603,-7.5452,-7.5151,-7.49,-7.4925,-7.5251,-7.5,-7.5176,-7.5703,-7.5703,-7.5829,-7.6055,-7.6055,-7.5753,-7.5251,-7.5251,-7.505,-7.458,0.0,0.0,0.0,0.0,-6.8222,-6.8212,-6.626,-6.5458,-6.5458,-6.5727,0.0,0.0,0.0,0.0,0.0,0.0,0.0,-5.8262,-5.8711,-5.8496,-5.8203,-5.8379,-5.8437,-5.8437,-5.8437,-5.8594,-5.8789,-5.9121,-5.9004,-5.9121,-5.9707,-5.9805,0.0,0.0,0.0,-6.0156,-6.039,-6.0215,-6.039,-6.1269,-6.1543,-6.1738,-6.1953,-6.2012,-6.166,-6.084,-6.0801,-6.0625,-6.0156,-6.0156,-6.0332,0.0,0.0,0.0,0.0,0.0,0.0,0.0,0.0,0.0,0.0,0.0,0.0,0.0,0.0,0.0,0.0,0.0,0.0,0.0,0.0,0.0,0.0,0.0,0.0,0.0,0.0,0.0,0.0,-8.0047,-8.0348,-8.0223,-7.9947,-7.962,0.0,0.0,0.0,0.0,0.0,0.0,-7.7109,-7.6707,-7.623,-7.5678,-7.5527,-7.5251,-7.4849,-7.4824,-7.505,-7.5452,-7.5452,-7.5653,-7.6055,-7.6055,-7.6055,-7.6055,-7.6055,-7.5829,-7.5427,-7.5301,-7.5,-7.4404,-7.2298,-7.1086,-7.0211,-6.712,-6.5519,-6.4923,-6.3505,-6.2849,-6.2719,-6.2914,-6.2502,-6.2046,-6.2988,0.0,0.0,0.0,0.0,-5.791,-5.8125,-5.7969,-5.7734,-5.7851,-5.7871,-5.7871,-5.7871,-5.7969,-5.8203,-5.873,-5.8848,-5.9004,-5.957,-5.9746,0.0,-6.0215,-6.0098,-5.998,-6.0098,-5.9922,-6.0039,-6.0683,-6.0859,-6.1035,-6.1367,-6.1367,-6.1191,-6.0801,-6.0742,-6.0625,-6.0273,-6.0156,-6.0215,-6.043,0.0,0.0,0.0,0.0,0.0,0.0,0.0,0.0,0.0,0.0,0.0,0.0,0.0,0.0,0.0,0.0,0.0,0.0,0.0,0.0,0.0,0.0,0.0,0.0,0.0,0.0,0.0,0.0,0.0,-8.0072,-7.9269,0.0,0.0,0.0,0.0,-7.7712,-7.8164,-7.8214,-7.7687,-7.7637,-7.736,-7.6808,-7.6281,-7.6004,-7.5979,-7.5979,-7.5979,-7.6004,-7.6004,-7.603,-7.6055,-7.6055,-7.6055,-7.6055,-7.6055,-7.603,-7.5979,-7.5452,-7.5226,-7.5053,-7.4404,-7.2962,-7.0638,-6.6481,-6.3638,-6.1244,-5.7606,-5.6655,-5.693,-5.6537,-5.6379,-5.634,-5.6379,-5.7158,0.0,0.0,-5.7558,-5.7754,-5.7383,-5.7265,-5.7344,-5.7754,-5.7871,-5.7871,-5.7871,-5.8203,-5.8379,-5.7988,-5.793,-5.8203,-5.9062,0.0,-5.9805,-5.9824,-6.0156,-6.0137,-5.9355,-5.959,-5.9824,-5.9863,-6.0215,-6.0488,-6.0488,-6.0488,-6.0332,-5.9922,-5.9863,-5.9863,-5.9863,-5.9473,-5.9629,-6.043,-6.0039,0.0,0.0,0.0,0.0,0.0,0.0,0.0,0.0,0.0,0.0,0.0,0.0,0.0,0.0,0.0,0.0,0.0,0.0,0.0,0.0,0.0,0.0,0.0,0.0,0.0,0.0,0.0,0.0,-8.0599,-8.0072,0.0,-7.962,-7.9118,-7.849,-7.7762,-7.7888,-7.7913,-7.7712,-7.7712,-7.7611,-7.7411,-7.721,-7.6933,-7.6582,-7.6582,-7.6406,-7.6055,-7.6055,-7.6055,-7.6055,-7.6055,-7.6055,-7.6055,-7.6055,-7.6055,-7.603,-7.5854,-7.5552,-7.498,-7.2765,-7.1092,-6.9761,-6.6449,-6.4335,-6.2517,-5.9574,-5.8374,-5.79,-5.5755,-5.5117,-5.5117,-5.5117,-5.5644,-5.6308,-5.6699,-5.6914,-5.707,-5.7187,-5.7012,-5.6777,-5.666,-5.6621,-5.6621,-5.6621,-5.6738,-5.6894,-5.7012,-5.7969,-5.873,-5.8769,-5.9121,-5.9414,-5.9414,-5.9531,-5.9531,-5.9238,-5.9297,-5.9512,-5.9765,-5.9922,-6.0156,-6.043,-6.043,-6.0371,-6.0215,-6.0215,-6.0215,-6.0215,-5.9805,-5.9746,-6.0039,-5.9629,-5.9473,0.0,0.0,0.0,0.0,0.0,0.0,0.0,0.0,0.0,0.0,0.0,0.0,0.0,0.0,0.0,0.0,0.0,0.0,0.0,0.0,0.0,0.0,0.0,0.0,0.0,-7.9394,-7.9871,-8.1152,-8.0825,-8.0499,-8.0499,-7.9997,-7.9344,-7.8616,-7.854,-7.8616,-7.8817,-7.8465,-7.8264,-7.8264,-7.7913,-7.7436,-7.6883,-7.6883,-7.6607,-7.6055,-7.6055,-7.6055,-7.6055,-7.6055,-7.6055,-7.6055,-7.6055,-7.6055,-7.6055,-7.6055,-7.5829,-7.5256,-7.2936,-7.1237,-6.986,-6.7662,-6.5783,-6.4069,-6.1966,-6.0256,-5.8593,-5.6639,-5.5251,-5.4492,-5.4629,-5.5078,-5.5625,-5.6211,-5.6582,-5.6836,-5.6973,-5.6797,-5.6465,-5.6035,-5.5937,-5.5937,-5.5937,-5.582,-5.5859,-5.6289,-5.7519,-5.8437,-5.8125,-5.8594,-5.9004,-5.918,-5.918,-5.9238,-5.9355,-5.9297,-5.9297,-5.957,-5.959,-5.9707,-5.998,-6.0156,-6.0156,-6.0039,-6.0156,-6.0215,-6.0215,-5.998,-5.9863,-6.0039,-5.9473,-5.9238,-5.9394,0.0,0.0,0.0,0.0,0.0,0.0,0.0,0.0,0.0,0.0,0.0,0.0,0.0,0.0,0.0,0.0,0.0,0.0,0.0,0.0,0.0,0.0,0.0,-7.9118,-7.9369,-7.9997,-8.1604,-8.1403,-8.1102,-8.1102,-8.0624,-8.0298,-8.0273,-8.0273,-8.0474,-8.1001,-7.9997,-7.9419,-7.9419,-7.834,-7.7486,-7.6933,-7.6933,-7.6632,-7.608,-7.608,-7.608,-7.6055,-7.6055,-7.6055,-7.6055,-7.6055,-7.6055,-7.6055,-7.6055,-7.6055,-7.6004,-7.5477,-7.3576,-7.1213,-7.0063,-6.7924,-6.538,-6.4214,-6.1564,-5.8557,-5.8557,-5.6517,-5.4204,-5.4531,-5.5254,-5.5918,-5.5918,-5.6523,-5.707,-5.668,-5.6562,-5.6445,-5.6015,-5.5898,-5.5898,-5.5898,-5.5566,-5.541,-5.584,-5.6601,-5.7168,-5.7168,-5.791,-5.8652,-5.9062,-5.914,0.0,-5.9746,-5.9414,-5.918,-5.918,-5.918,-5.918,-5.918,-5.959,-5.9629,-5.9199,-5.9531,-5.9765,-5.9765,-5.9765,-5.998,-6.0371,-5.9629,-5.9004,-5.8535,0.0,0.0,0.0,0.0,0.0,0.0,0.0,0.0,0.0,0.0,0.0,0.0,0.0,0.0,0.0,0.0,0.0,0.0,0.0,0.0,0.0,-7.7662,-7.7787,-7.8641,-7.9118,-7.9997,-8.1604,-8.2407,-8.2809,-8.2809,-8.2683,-8.2257,-8.1428,-8.1378,-8.1277,-8.1051,-8.0373,-7.9997,-7.9997,-7.9294,-7.8641,-7.8088,-7.8063,-7.7586,-7.6657,-7.6657,-7.6431,-7.6055,-7.6055,-7.6055,-7.6055,-7.6055,-7.6055,-7.6055,-7.6055,-7.6055,-7.603,-7.5879,-7.4909,-7.3452,-7.3155,-7.0398,-6.6617,-6.5514,-6.3236,-6.0495,-5.867,-5.7514,-5.6473,-5.4753,-5.4805,-5.5469,-5.5469,-5.5879,-5.6328,-5.6523,-5.6133,-5.5625,-5.5508,-5.5254,-5.5019,-5.5019,-5.4941,-5.498,-5.539,-5.5918,-5.6289,-5.6289,-5.7265,-5.8086,-5.8203,-5.8496,-5.8887,-5.9297,-5.9238,-5.9297,-5.959,-5.9648,-5.9648,-5.9648,-5.9746,-5.9629,-5.9199,-5.9004,-5.8887,-5.8887,-5.8887,-5.9101,-5.9531,-5.959,-5.9277,0.0,0.0,0.0,0.0,0.0,0.0,0.0,0.0,0.0,0.0,0.0,0.0,0.0,0.0,0.0,0.0,0.0,0.0,0.0,0.0,0.0,0.0,-7.7561,-7.8139,-7.9394,-7.9871,-8.0599,-8.2005,-8.3361,-8.4089,-8.3864,-8.4064,-8.3914,-8.3261,-8.2985,-8.2734,-8.2432,-8.1654,-8.1026,-8.0574,-8.0022,-7.9344,-7.854,-7.8289,-7.7737,-7.6883,-7.6632,-7.6356,-7.6055,-7.6055,-7.6055,-7.6055,-7.6055,-7.6055,-7.6055,-7.6055,-7.6055,-7.6055,0.0,0.0,0.0,0.0,-7.1886,-6.8716,-6.8108,-6.5729,-6.2814,-6.1489,-5.9507,-5.7259,-5.601,-5.5515,-5.5312,-5.5312,-5.5605,-5.5996,-5.625,-5.582,-5.5567,-5.6468,-5.6413,-5.6639,-5.7714,-5.775,-5.7468,-5.6718,-5.6815,0.0,-5.5835,-5.6738,-5.7715,-5.8086,-5.8359,-5.8769,-5.9355,-5.9297,-5.9297,-5.9531,-5.9531,-5.9531,-5.9531,-5.9707,0.0,0.0,0.0,-5.9062,-5.9062,-5.9062,0.0,0.0,0.0,-5.9394,-5.8535,-5.9043,0.0,0.0,-5.8359,-5.8535,0.0,0.0,0.0,0.0,0.0,0.0,0.0,0.0,0.0,0.0,0.0,0.0,0.0,0.0,0.0,0.0,-7.7536,-7.8691,-8.075,-8.1252,-8.1779,-8.2834,-8.4315,-8.5044,-8.4567,-8.4968,-8.5219,-8.5144,-8.4642,-8.4315,-8.4315,-8.3211,0.0,0.0,0.0,-7.9695,-7.8641,-7.8139,-7.7586,-7.6959,-7.6482,-7.618,-7.6055,-7.6055,-7.6055,-7.6055,-7.6055,-7.6055,-7.6055,-7.6055,-7.6055,-7.6055,-7.5929,-7.5578,-7.5,-7.3845,-7.2414,-7.1083,-7.1008,0.0,0.0,-6.5559,-6.2126,-5.8004,-5.8253,-5.7349,-5.6131,-5.6131,-5.6409,-5.6602,-5.6347,-5.5907,-5.6076,-5.8079,-5.8436,-5.9194,-6.1716,-6.1944,-6.1088,-5.9187,-5.8636,-5.7939,-5.6027,-5.6482,-5.7383,-5.8301,-5.8476,-5.8769,-5.9629,-5.9414,-5.918,-5.9238,-5.9238,0.0,-5.9238,-5.959,-5.9629,-5.9199,-5.9473,-5.9687,-5.9687,-5.9687,-5.9687,-5.9746,-5.9746,-5.9355,-5.8535,-5.8594,-5.8594,-5.8535,-5.9297,-5.9297,0.0,0.0,0.0,0.0,0.0,0.0,0.0,0.0,0.0,0.0,0.0,0.0,0.0,0.0,0.0,-7.7536,-7.8766,-8.0022,-8.0901,-8.2558,-8.3914,-8.4567,-8.5345,-8.5822,-8.5671,-8.5772,-8.5646,-8.5144,-8.4642,-8.4315,-8.4315,-8.2834,-8.188,-8.1654,-8.0725,-7.9896,-7.9218,-7.9118,-7.854,-7.7536,-7.7436,0.0,-7.6055,-7.6055,-7.6055,-7.6055,-7.6055,-7.6055,-7.6055,-7.6055,-7.6055,-7.5979,-7.5075,-7.4674,-7.4397,-7.2816,-7.1736,-7.1008,-7.0581,-6.963,-6.8164,-6.6235,-6.4859,-6.3543,-6.1512,-6.0985,0.0,-6.1074,-6.1118,-6.0697,-5.9008,-5.8001,-5.7563,-5.8315,-5.8205,-5.8705,-6.1304,-6.1816,-6.1579,-6.1185,-5.9675,-5.8524,-5.8394,-5.719,-5.6601,-5.7793,-5.7988,-5.832,-5.918,-5.9238,-5.9297,-5.9648,-5.9687,-5.9687,-5.9687,-5.9765,-5.9629,-5.9199,-5.8945,-5.8769,-5.8769,-5.8769,-5.8945,-5.9297,-5.9297,-5.9062,-5.8535,-5.8887,-5.8887,-5.8535,-5.8711,-5.8887,0.0,0.0,0.0,0.0,0.0,0.0,0.0,0.0,0.0,0.0,0.0,-7.8778,-7.7561,0.0,-7.7787,-7.8063,-7.952,-8.1001,-8.2106,-8.3688,-8.4818,-8.5008,-8.5646,-8.5998,-8.5998,-8.5998,-8.5897,-8.5571,-8.532,-8.5069,-8.4742,-8.3663,-8.2809,-8.2257,-8.1177,-8.0348,-7.9796,-7.9243,-7.8666,-7.8114,-7.7561,-7.7009,-7.6456,-7.618,-7.6055,-7.6055,-7.6055,-7.6055,-7.6055,-7.6055,-7.6055,-7.5954,-7.4849,-7.4423,-7.4247,-7.2841,-7.1786,-7.1033,-7.0757,-6.9953,-6.8805,-6.7824,-6.6484,-6.4973,-6.399,-6.3231,-6.2749,-6.2749,-6.3026,-6.2954,-6.1926,-6.0973,-6.0615,-6.2107,-6.2107,-6.2421,-6.5,-6.5584,-6.5211,-6.387,-6.2998,-6.1742,-5.9592,-5.9649,-5.9491,-5.8091,-5.7871,-5.8203,-5.9062,-5.918,-5.9238,-5.9473,-5.9473,-5.9473,-5.9473,-5.9297,-5.9062,-5.8887,-5.8652,-5.8535,-5.8535,-5.8769,-5.8945,-5.918,-5.918,-5.9062,-5.8887,-5.9062,-5.9062,-5.8887,-5.8887,-5.8965,0.0,0.0,0.0,0.0,0.0,0.0,0.0,-8.1713,-8.0445,-8.0445,-7.8782,-7.731,-7.7084,-7.7586,-7.8164,-7.8616,-8.0198,-8.2042,-8.3991,-8.4745,-8.5365,-8.5992,-8.6005,-8.5998,-8.5998,-8.5998,-8.5998,-8.5998,-8.5897,-8.5671,-8.532,-8.4567,-8.3738,-8.2859,-8.1654,-8.0775,-8.0223,-7.9193,-7.8641,-7.8515,-7.7511,-7.6984,-7.6858,-7.6306,-7.6055,-7.6055,-7.6055,-7.6055,-7.6055,-7.6055,-7.6055,-7.5954,-7.4975,-7.4498,-7.4272,-7.3142,-7.2037,-7.1083,-7.1083,-7.0079,-6.8848,-6.93,-6.7718,-6.5823,-6.6232,-6.5471,-6.4536,-6.4536,-6.4978,-6.5247,-6.4755,-6.3998,-6.3821,-6.5944,-6.5965,-6.6283,-6.8858,-6.9361,-6.8767,-6.6746,-6.6315,-6.5041,-6.1356,-6.2426,-6.2712,-5.9202,-5.8704,-5.9021,-5.9913,-5.9515,-5.918,-5.918,-5.918,-5.9121,-5.9062,-5.8652,-5.8418,-5.8418,-5.8418,-5.8418,-5.8418,-5.8828,-5.9062,-5.9062,-5.9121,-5.918,-5.918,-5.918,-5.918,-5.918,-5.918,-5.9121,-9.2165,-9.1117,-8.9127,-8.6597,-8.4797,-8.2722,0.0,-7.7581,-7.67,-7.67,-7.6527,-7.6507,-7.7436,-7.849,-7.9218,-7.9294,-8.1102,-8.3621,-8.67,-8.5974,-8.6238,-8.9212,-8.7484,-8.5998,-8.5998,-8.5998,-8.5998,-8.5998,-8.5496,-8.542,-8.5897,-8.4416,-8.3537,-8.3412,-8.1855,-8.0775,-8.0223,-7.9595,-7.9043,-7.8515,-7.7913,-7.736,-7.6858,-7.6306,-7.6055,-7.6055,-7.6055,-7.6055,-7.6055,-7.6055,-7.6055,-7.5979,-7.5377,-7.4849,-7.4272,-7.3142,-7.2037,-7.1083,-7.1083,-7.033,-6.9351,-6.9336,-6.922,-6.8899,-6.8949,-6.919,-6.9479,-6.9479,-6.9876,-6.9781,-6.7392,-6.6369,-6.6038,-6.6322,-6.5965,-6.6283,-6.8858,-6.9361,-6.9361,-6.9064,-6.7188,-6.5801,-6.6127,-6.4548,-6.2945,-6.1747,-6.1488,-6.1821,-6.2845,-6.0768,-5.918,-5.918,-5.918,-5.9004,-5.8652,-5.8203,-5.793,-5.793,-5.793,-5.793,-5.793,-5.8359,-5.8594,-5.8594,-5.9004,-5.918,-5.918,-5.918,-5.918,-5.918,-5.918,-5.8965,-9.0938,-9.0279,-8.9127,-8.6597,-8.5447,-8.3796,-7.9828,-7.8553,-7.7891,-7.6729,-7.6532,-7.7432,-8.038,-8.1326,-8.2451,-8.503,-8.6875,-8.8436,-9.0128,-9.0434,-9.0815,-9.173,-8.9514,-8.7396,-8.6059,-8.5998,-8.5998,-8.5998,-8.5772,-8.5747,-8.5998,-8.4742,-8.3989,-8.3989,-8.2357,-8.1227,-8.07,-8.0147,-7.9595,-7.9018,-7.8114,-7.7586,-7.7335,-7.6456,-7.6055,-7.6055,-7.6055,-7.6055,-7.6055,-7.6055,-7.6055,-7.6004,-7.5452,-7.5101,-7.4749,-7.3644,-7.2514,-7.156,-7.156,-7.1058,-7.0405,-7.0405,-7.0405,-7.033,-7.0029,-7.0531,-7.1158,-7.0832,-7.1359,-7.1681,-7.0344,-6.9569,-6.9078,-6.8758,-6.8199,-6.8105,-6.9155,-6.9361,-6.9361,-6.9361,-6.9082,-6.8396,-6.7297,-6.7965,-6.8362,-6.7064,-6.5417,-6.4726,-6.5708,-6.3405,-6.0848,-5.905,-5.8555,-5.832,-5.8144,-5.7734,-5.748,-5.748,-5.748,-5.7598,-5.7851,-5.8301,-5.8535,-5.8535,-5.8711,-5.8828,-5.8828,-5.8828,-5.8945,-5.918,-5.8945,-5.8555,-9.0249,-8.9801,-8.9157,-8.68,-8.6169,-8.5098,-8.1697,-8.095,-8.0718,-7.9704,-7.9468,-8.0498,-8.3962,-8.4684,-8.5936,-8.927,-9.0807,-9.2002,-9.3312,-9.3646,-9.3674,-9.3798,-9.1271,-8.8908,-8.7296,-8.6331,-8.5822,-8.5998,-8.5998,-8.5998,-8.5998,-8.4918,-8.4315,-8.4315,-8.2683,-8.1629,-8.1252,-8.0549,-8.0022,-7.9595,-7.8465,-7.7837,-7.7662,-7.6557,-7.6055,-7.6055,-7.6055,-7.6055,-7.6055,-7.6055,-7.6055,-7.6004,-7.5452,-7.5151,-7.49,-7.3946,-7.2966,-7.2113,-7.1962,-7.1535,-7.1083,-7.1083,-7.0983,-7.0807,-7.0556,-7.1033,-7.1636,-7.1384,-7.1987,-7.264,-7.2238,-7.161,-7.0983,-7.0581,-6.9953,-6.9501,-6.9627,-6.9551,-6.9501,-6.9652,-7.0305,-7.0328,-6.8507,-7.059,-7.2226,-7.1637,-6.9768,-6.843,-6.8558,-6.5299,-6.2038,-5.9747,-5.8386,-5.7676,-5.7676,-5.7285,-5.7031,-5.7031,-5.7031,-5.7187,-5.75,-5.8027,-5.8242,-5.8008,-5.8359,-5.8476,-5.8359,-5.8476,-5.8711,-5.9004,-5.8652,-5.8242,-9.0788,-9.016,-8.9276,-8.7436,-8.6486,-8.5648,-8.4398,-8.4125,-8.4456,-8.5549,-8.5797,-8.6278,-8.7642,-8.8264,-8.8871,-8.9701,-9.0807,-9.2698,-9.5949,-9.4147,-9.3128,-9.5136,-9.2322,-9.0185,-9.0212,-8.7165,-8.5395,-8.5998,-8.5998,-8.5998,-8.5998,-8.4918,-8.4315,-8.4315,-8.2683,-8.1805,-8.1779,-8.075,-8.0198,-8.0173,-7.9043,-7.8214,-7.7662,-7.6557,-7.6055,-7.6055,-7.6055,-7.6055,-7.6055,-7.6055,-7.6055,-7.6004,-7.5452,-7.49,-7.4372,-7.3795,-7.3217,-7.264,-7.2087,-7.1535,-7.1083,-7.1083,-7.0732,-7.038,-7.0907,-7.1083,-7.1209,-7.1736,-7.2288,-7.274,-7.2715,-7.1887,-7.1083,-7.1058,-7.0229,-6.9602,-7.0129,-6.9828,-6.9602,-7.0129,-7.0255,-7.0455,-7.089,-7.1467,-7.2489,-7.4075,-7.4204,-7.3379,-7.1208,-6.5645,-6.1935,-6.1829,-5.9041,-5.7226,-5.7226,-5.6855,-5.6601,-5.6601,-5.6601,-5.6601,-5.6621,-5.7441,-5.75,-5.666,-5.789,-5.832,-5.7871,-5.832,-5.8535,-5.8535,-5.8535,-5.8066,-9.0698,-9.0489,-9.0174,-8.9571,-8.9525,-8.9251,-8.7194,-8.7059,-8.7147,-8.6248,-8.5736,-8.6435,-8.9368,-8.961,-9.0505,-9.3807,-9.5331,-9.6837,-9.8918,-9.9112,-9.8746,-9.7585,-9.5258,-9.3176,-9.1833,-8.8201,-8.6451,-8.8013,-8.6449,-8.5596,-8.5998,-8.5295,-8.4717,-8.4315,-8.3412,-8.2558,-8.1805,-8.1102,-8.0574,-8.0198,-7.8691,-7.7687,-7.7134,-7.6381,-7.6055,-7.6055,-7.6055,-7.6055,-7.6055,-7.6055,-7.6055,-7.603,-7.5854,-7.5678,-7.5427,-7.49,-7.4548,-7.4197,-7.2891,-7.2339,-7.2188,-7.2188,-7.2037,-7.1861,-7.1686,-7.1887,-7.2138,-7.1962,-7.2313,-7.264,-7.2288,-7.1636,-7.1083,-7.1083,-7.0531,-7.0129,-7.0681,-7.0656,-7.0581,-7.0757,-7.1108,-7.141,-7.1585,-7.2087,-7.2891,-7.4222,-7.4724,-7.3971,-7.1332,-6.8614,-6.5545,-6.1853,-6.0214,-5.8722,-5.6992,-5.666,-5.6582,-5.6582,-5.6582,-5.6719,-5.6992,-5.7285,-5.7168,-5.6601,-5.7285,-5.7441,-5.7012,-5.7441,-5.7793,-5.8086,-5.7793,-5.75,-9.0369,-9.0459,-9.0638,-9.0638,-9.1117,-9.1235,-8.9958,-9.0168,-9.0283,-8.9081,-8.8462,-8.8914,-9.1332,-9.1219,-9.1924,-9.5283,-9.6773,-9.803,-9.9556,-10.0304,-10.0094,-9.8359,-9.6641,-9.5132,-9.4019,-9.0461,-8.8317,-8.846,-8.7249,-8.6238,-8.5696,-8.532,-8.4968,-8.4642,-8.3889,-8.3135,-8.2407,-8.1503,-8.065,-7.9896,-7.8415,-7.7511,-7.7159,-7.6381,-7.6055,-7.6055,-7.6055,-7.6055,-7.6055,-7.6055,-7.6055,-7.603,-7.5829,-7.5753,-7.5703,-7.5151,-7.495,-7.4749,-7.3494,-7.3167,-7.3268,-7.2866,-7.274,-7.2665,-7.2313,-7.2439,-7.2665,-7.2288,-7.2615,-7.2916,-7.2339,-7.1786,-7.1384,-7.1384,-7.0958,-7.0706,-7.1259,-7.1234,-7.1133,-7.1334,-7.1661,-7.1912,-7.1912,-7.269,-7.3594,-7.4297,-7.4724,-7.4216,-7.244,-7.0459,-6.7866,-6.4318,-6.1922,-5.9927,-5.8203,-5.7202,-5.6582,-5.6582,-5.6719,-5.6855,-5.6992,-5.7285,-5.7031,-5.6152,-5.6699,-5.6777,-5.6348,-5.6777,-5.7207,-5.7617,-5.7344,-5.7129,-8.983,-9.013,-9.0638,-9.0668,-9.1177,-9.1835,-9.2494,-9.3152,-9.3631,-9.3601,-9.3541,-9.3511,-9.3481,-9.2943,-9.2972,-9.4379,-9.5187,-9.6354,-9.8329,-9.8119,-9.77,-9.7611,-9.6563,-9.6055,-9.6563,-9.3795,-9.0782,-8.7947,-8.8513,-8.7943,-8.5476,-8.5194,-8.5144,-8.5144,-8.4089,-8.3512,-8.3487,-8.1855,-8.0474,-7.9369,-7.8264,-7.7737,-7.7662,-7.6582,-7.608,-7.6055,-7.6055,-7.6055,-7.6055,-7.6055,-7.6055,-7.6004,-7.5477,-7.5276,-7.5226,-7.4699,-7.4498,-7.4423,-7.387,-7.3996,-7.4222,-7.3142,-7.2765,-7.2765,-7.274,-7.274,-7.2765,-7.2765,-7.3167,-7.3468,-7.2916,-7.2339,-7.1912,-7.1937,-7.1535,-7.1284,-7.1836,-7.1535,-7.1309,-7.1836,-7.1937,-7.1937,-7.1937,-7.3318,-7.4423,-7.4423,-7.4423,-7.4423,-7.4423,-7.1176,-6.8871,-6.8676,-6.4078,-6.0967,-6.0842,-5.854,-5.7009,-5.6989,-5.7295,-5.7227,-5.6815,-5.7491,-5.7031,-5.5332,-5.6152,-5.6367,-5.5898,-5.6367,-5.6797,-5.7187,-5.7187,-5.6973,-8.983,-9.013,-9.0758,-9.1237,-9.1865,-9.2524,-9.3182,-9.387,-9.4199,-9.3691,-9.3182,-9.2703,-9.2194,-9.1566,-9.1895,-9.4229,-9.5576,-9.7192,-9.9645,-10.0693,-10.0693,-9.9167,-9.9137,-9.8718,-9.7371,-9.743,-9.6399,-9.3651,-8.9891,-8.809,-8.8784,-8.6916,-8.5571,-8.5144,-8.4466,-8.3914,-8.3487,-8.1855,-8.0474,-7.9369,-7.8666,-7.8088,-7.7687,-7.6984,-7.6431,-7.6055,-7.6055,-7.6055,-7.6055,-7.6055,-7.6055,-7.603,-7.5904,-7.5854,-7.5829,-7.5678,-7.5628,-7.5552,-7.5025,-7.4649,-7.4297,-7.3594,-7.3368,-7.3293,-7.2866,-7.3042,-7.3368,-7.3368,-7.3468,-7.3569,-7.3418,-7.264,-7.2012,-7.2414,-7.2087,-7.1836,-7.2389,-7.2414,-7.2339,-7.2489,-7.2514,-7.2514,-7.2514,-7.3569,-7.4423,-7.4423,-7.4423,-7.4423,-7.4423,-7.2819,-7.0902,-6.8895,-6.7826,-6.6276,-6.3818,-6.339,-6.3022,-6.2697,-6.118,-6.0109,-5.9634,-5.8125,-5.6719,-5.5332,-5.6152,-5.6211,-5.5469,-5.6211,-5.664,-5.6738,-5.6738,-5.668,-8.983,-9.0369,-9.1147,-9.1536,-9.2344,-9.3062,-9.3122,-9.3661,-9.39,-9.2913,-9.2434,-9.1985,-9.1297,-9.0878,-9.1327,-9.3391,-9.4858,-9.6623,-9.9256,-10.0304,-10.0513,-10.0004,-10.0004,-9.9735,-9.8897,-9.9226,-9.9275,-9.8614,-9.4274,-9.1633,-9.1497,-9.0285,-8.881,-8.7017,-8.6452,-8.491,-8.2432,-8.1503,-8.0474,-7.9369,-7.8792,-7.8365,-7.8038,-7.7486,-7.6933,-7.6406,-7.6406,-7.6281,-7.6055,-7.6055,-7.6055,-7.6055,-7.6055,-7.6055,-7.6055,-7.6055,-7.6055,-7.6004,-7.5703,-7.5402,-7.5,-7.4222,-7.4121,-7.4222,-7.3644,-7.387,-7.4272,-7.4021,-7.4121,-7.4197,-7.372,-7.3117,-7.2665,-7.2715,-7.2489,-7.2339,-7.2665,-7.274,-7.274,-7.274,-7.274,-7.274,-7.274,-7.3468,-7.4146,-7.4372,-7.4423,-7.4498,-7.4749,-7.3569,-7.2221,-7.0955,-6.9789,-6.8489,-6.6931,-6.6055,-6.5458,-6.5436,-6.4443,-6.3051,-6.1369,-6.0055,-5.8737,-5.7301,-5.7765,-5.7788,-5.6999,-5.7788,-5.762,-5.6582,-5.6582,-5.6582,-8.998,-9.0758,-9.1805,-9.1955,-9.2883,-9.3571,-9.3002,-9.3242,-9.3212,-9.1895,-9.1626,-9.1416,-9.0758,-9.0638,-9.1147,-9.2733,-9.39,-9.5636,-9.8508,-9.8837,-9.9256,-10.0603,-10.0274,-10.0094,-10.0693,-10.0214,-10.0603,-10.2368,-9.9721,-9.6929,-9.4227,-9.4117,-9.2675,-8.9279,-8.8645,-8.607,-8.1051,-8.1026,-8.0474,-7.9369,-7.8867,-7.8591,-7.8515,-7.8038,-7.7511,-7.6984,-7.6908,-7.6607,-7.6155,-7.608,-7.6055,-7.6055,-7.6055,-7.6055,-7.6055,-7.6055,-7.6055,-7.6055,-7.6055,-7.6055,-7.5879,-7.4849,-7.4849,-7.5126,-7.4573,-7.4799,-7.5151,-7.4674,-7.4875,-7.5025,-7.4071,-7.3694,-7.3468,-7.2966,-7.2791,-7.274,-7.274,-7.274,-7.274,-7.274,-7.274,-7.274,-7.274,-7.3268,-7.387,-7.4347,-7.4473,-7.4724,-7.5276,-7.3946,-7.3142,-7.3644,-7.1175,-6.974,-7.0051,-6.8063,-6.6938,-6.7234,-6.737,-6.624,-6.3289,-6.2846,-6.1894,-6.0458,-6.0539,-6.0328,-5.9862,-6.0021,-5.9055,-5.7096,-5.6796,-5.6582,-9.0638,-9.1416,-9.2703,-9.381,-9.4259,-9.4409,-9.4289,-9.39,-9.3212,-9.1895,-9.1626,-9.1416,-9.0758,-9.0638,-9.1596,-9.4588,-9.4798,-9.6084,-10.0364,-10.0483,-10.0663,-10.1979,-10.2069,-10.2009,-10.2099,-10.2009,-10.2099,-10.2488,-10.1993,-10.0361,-9.7629,-9.5385,-9.2484,-8.8644,-8.8407,-8.607,-8.1051,-8.1026,-8.0474,-7.9394,-7.9294,-7.8992,-7.8515,-7.8415,-7.8088,-7.7536,-7.7084,-7.6833,-7.6707,-7.623,-7.6055,-7.6055,-7.6055,-7.6055,-7.6055,-7.6055,-7.6055,-7.6055,-7.6055,-7.6055,-7.5954,-7.5301,-7.5151,-7.5126,-7.4573,-7.4799,-7.5226,-7.5126,-7.5176,-7.5201,-7.5,-7.4272,-7.3569,-7.3468,-7.3067,-7.274,-7.274,-7.274,-7.274,-7.274,-7.274,-7.274,-7.274,-7.3594,-7.4297,-7.4397,-7.4799,-7.5301,-7.5829,-7.4875,-7.4171,-7.4272,-7.4185,-7.3743,-7.2947,-7.3279,-7.3158,-7.2345,-7.1031,-6.986,-6.8963,-6.6655,-6.493,-6.4068,-6.3945,-6.36,-6.319,-6.1388,-6.0261,-5.9823,-5.7608,-5.6582,-9.1237,-9.2374,-9.387,-9.4858,-9.5127,-9.5037,-9.4678,-9.381,-9.2703,-9.1386,-9.1117,-9.1027,-9.0698,-9.0908,-9.1776,-9.3721,-9.405,-9.5456,-9.9376,-9.9675,-10.0214,-10.2279,-10.2488,-10.2488,-10.2488,-10.2488,-10.2488,-10.2488,-10.2488,-10.1864,-10.0633,-9.7613,-9.4947,-9.2723,-9.0978,-8.799,-8.3526,-8.3526,-8.2261,-7.9821,-7.9821,-7.952,-7.8967,-7.8967,-7.8666,-7.8114,-7.7837,-7.7561,-7.7285,-7.7009,-7.6908,-7.6908,-7.6908,-7.6908,-7.6883,-7.6582,-7.6482,-7.6431,-7.6155,-7.6055,-7.6004,-7.5753,-7.5653,-7.5603,-7.5352,-7.5452,-7.5653,-7.5653,-7.5653,-7.5603,-7.5301,-7.4623,-7.3946,-7.3669,-7.3142,-7.274,-7.274,-7.274,-7.274,-7.274,-7.274,-7.274,-7.274,-7.3418,-7.4096,-7.4372,-7.4875,-7.5427,-7.5979,-7.5603,-7.505,-7.4473,-7.4397,-7.4272,-7.4046,-7.4498,-7.4824,-7.4875,-7.4096,-7.2899,-7.1178,-6.9321,-6.7963,-6.7299,-6.6922,-6.6529,-6.5997,-6.5216,-6.4056,-6.2653,-6.1463,-6.0864,-9.2015,-9.3391,-9.5037,-9.5995,-9.6025,-9.5636,-9.4977,-9.3661,-9.2224,-9.0908,-9.0638,-9.0638,-9.0638,-9.1057,-9.1716,-9.2673,-9.3002,-9.4409,-9.803,-9.8389,-9.9286,-10.1979,-10.2398,-10.2488,-10.2488,-10.2488,-10.2488,-10.2488,-10.2488,-10.2488,-10.2488,-10.0008,-9.7935,-9.6547,-9.4033,-9.0741,-8.6683,-8.6549,-8.4879,-8.1853,-8.1725,-8.1443,-8.1007,-8.1007,-8.0472,-7.9456,-7.9329,-7.8747,-7.7862,-7.7762,-7.7712,-7.7712,-7.7712,-7.7712,-7.7662,-7.721,-7.6984,-7.6808,-7.6381,-7.6155,-7.6055,-7.6055,-7.6055,-7.6055,-7.6055,-7.6055,-7.6055,-7.6055,-7.6055,-7.5954,-7.5527,-7.5,-7.4423,-7.3745,-7.3242,-7.2891,-7.2765,-7.274,-7.274,-7.274,-7.2841,-7.2916,-7.2916,-7.3494,-7.4096,-7.4523,-7.505,-7.5578,-7.6004,-7.6055,-7.5678,-7.4699,-7.4322,-7.4197,-7.4397,-7.4623,-7.5075,-7.5829,-7.5979,-7.5087,-7.2754,-7.1863,-7.1116,-7.0488,-7.0033,-6.9503,-6.8973,-6.8777,-6.7597,-6.5488,-6.5009,-6.4706,-9.3242,-9.4439,-9.5935,-9.779,-9.7371,-9.6324,-9.5666,-9.399,-9.2224,-9.0908,-9.0638,-9.0638,-9.0638,-9.0698,-9.1327,-9.3182,-9.2554,-9.3361,-9.788,-9.8,-9.8568,-10.1261,-10.2099,-10.2488,-10.2488,-10.2488,-10.2488,-10.2488,-10.2488,-10.2488,-10.2488,-10.2211,-10.0336,-9.6576,-9.6171,-9.3873,-8.9518,-8.8869,-8.807,-8.7314,-8.6669,-8.6395,-8.634,-8.634,-8.4964,-8.2706,-8.2155,-8.0557,-7.8415,-7.7913,-7.7712,-7.7712,-7.7712,-7.7712,-7.7687,-7.7637,-7.731,-7.6858,-7.6808,-7.6482,-7.6055,-7.6055,-7.6055,-7.6055,-7.6055,-7.6055,-7.6055,-7.6055,-7.6055,-7.6055,-7.5979,-7.5578,-7.49,-7.3845,-7.3544,-7.3368,-7.2841,-7.274,-7.274,-7.274,-7.3142,-7.3519,-7.3519,-7.4397,-7.5101,-7.5151,-7.5628,-7.6004,-7.6055,-7.6055,-7.5829,-7.5226,-7.5552,-7.5452,-7.4498,-7.5327,-7.5728,-7.5327,-7.5778,-7.5956,-7.5733,-7.5059,-7.4484,-7.3935,-7.3385,-7.2836,-7.2261,-6.9866,-6.8578,-6.8285,-6.5788,-6.4706,-9.3391,-9.5127,-9.7132,-9.8718,-9.8119,-9.6952,-9.6324,-9.4319,-9.2224,-9.0908,-9.0638,-9.0638,-9.0638,-9.0638,-9.0908,-9.1686,-9.1027,-9.1626,-9.5067,-9.4977,-9.5965,-9.9825,-10.0513,-10.1201,-10.2398,-10.2488,-10.2488,-10.2488,-10.2488,-10.2488,-10.2488,-10.2488,-10.1541,-9.9562,-9.9149,-9.7104,-9.3261,-9.2637,-9.125,-8.9065,-8.8844,-8.8346,-8.7655,-8.7987,-8.7191,-8.5502,-8.5681,-8.518,-8.4176,-8.3589,-8.3562,-8.3731,-8.1791,-8.1931,-8.2932,-7.9453,-7.8794,-7.937,-7.7557,-7.6507,-7.6055,-7.6055,-7.6055,-7.6055,-7.6055,-7.6055,-7.6055,-7.6055,-7.6055,-7.6055,-7.6055,-7.5653,-7.505,-7.4272,-7.4096,-7.3946,-7.3368,-7.3242,-7.3242,-7.3242,-7.3443,-7.3694,-7.4021,-7.4724,-7.5251,-7.5251,-7.5703,-7.6055,-7.6055,-7.6055,-7.5854,-7.5301,-7.5427,-7.5377,-7.495,-7.5327,-7.5603,-7.5728,-7.5929,-7.6055,-7.6055,-7.5527,-7.4975,-7.4423,-7.387,-7.3318,-7.274,-7.1621,-7.1118,-7.1118,-7.035,-7.0105,-9.3661,-9.5666,-9.785,-9.9406,-9.8628,-9.7341,-9.6713,-9.4528,-9.2224,-9.0908,-9.0638,-9.0638,-9.0638,-9.0638,-9.0638,-9.0638,-9.0249,-9.0728,-9.2972,-9.3062,-9.4259,-9.791,-9.8508,-9.9406,-10.1411,-10.2189,-10.2488,-10.2488,-10.2488,-10.2488,-10.2488,-10.2309,-10.189,-10.1171,-10.0693,-9.9176,-9.6434,-9.5763,-9.4342,-9.2032,-9.1862,-9.1418,-9.0595,-9.0992,-9.0239,-8.8698,-8.9212,-8.8933,-8.8208,-8.7793,-8.7876,-8.8016,-8.5764,-8.5882,-8.6819,-8.2799,-8.1971,-8.2538,-8.0198,-7.8534,-7.746,-7.7209,-7.6694,-7.6055,-7.6055,-7.6055,-7.6055,-7.6055,-7.6055,-7.6055,-7.6055,-7.5753,-7.5352,-7.4799,-7.4674,-7.4498,-7.3946,-7.3845,-7.3845,-7.3845,-7.3971,-7.4197,-7.4598,-7.5126,-7.5477,-7.5477,-7.5804,-7.6055,-7.6055,-7.6055,-7.5904,-7.5527,-7.5477,-7.5402,-7.5251,-7.5377,-7.5653,-7.603,-7.6055,-7.6055,-7.6055,-7.5678,-7.5151,-7.4423,-7.4046,-7.3468,-7.274,-7.274,-7.274,-7.274,-7.3318,-7.377,-9.4229,-9.6025,-9.797,-9.9975,-9.8987,-9.7341,-9.6713,-9.4528,-9.2224,-9.0908,-9.0638,-9.0638,-9.0638,-9.0638,-9.0638,-9.0638,-9.0638,-9.1087,-9.2434,-9.3152,-9.408,-9.5486,-9.6204,-9.7371,-9.9346,-10.1321,-10.2488,-10.2488,-10.2488,-10.2488,-10.2488,-10.186,-10.1171,-10.0513,-10.0483,-9.9855,-9.8448,-9.785,-9.7491,-9.7372,-9.6774,-9.6475,-9.6563,-9.6475,-9.5077,-9.2591,-9.262,-9.1257,-8.8941,-8.8844,-8.8844,-8.8941,-8.8816,-8.8485,-8.7987,-8.7891,-8.709,-8.5957,-8.5284,-8.321,-8.0559,-7.9909,-7.8079,-7.6055,-7.6055,-7.6055,-7.6055,-7.6055,-7.6055,-7.6055,-7.6055,-7.6055,-7.5904,-7.5352,-7.5226,-7.5075,-7.4523,-7.4397,-7.4397,-7.4397,-7.4849,-7.5226,-7.5226,-7.5678,-7.6055,-7.6055,-7.6055,-7.6055,-7.6055,-7.6055,-7.6055,-7.6055,-7.6055,-7.5829,-7.5276,-7.5728,-7.6055,-7.6055,-7.6055,-7.6055,-7.6055,-7.6055,-7.5527,-7.4423,-7.4397,-7.3845,-7.274,-7.274,-7.274,-7.274,-7.3318,-7.4171,-9.3002,-9.4349,-9.5785,-9.6862,-9.6324,-9.5336,-9.4678,-9.3182,-9.1686,-9.0818,-9.0638,-9.0638,-9.0638,-9.0638,-9.0788,-9.1237,-9.0938,-9.0938,-9.1805,-9.2494,-9.375,-9.5995,-9.8837,-10.0872,-10.1501,-10.2099,-10.2488,-10.2488,-10.2488,-10.2488,-10.2488,-10.2279,-10.186,-10.1171,-10.0304,-9.9615,-9.9197,-9.8538,-9.8209,-9.8179,-9.8,-9.767,-9.7222,-9.77,-9.7014,-9.5406,-9.582,-9.5515,-9.4727,-9.4727,-9.4727,-9.4636,-9.288,-9.2908,-9.3399,-8.9486,-8.825,-8.8326,-8.6055,-8.4031,-8.2481,-8.2198,-8.1681,-8.103,-8.103,-7.8701,-7.6055,-7.6055,-7.7256,-7.8149,-7.6523,-7.6055,-7.6004,-7.5829,-7.5804,-7.5653,-7.5101,-7.4975,-7.4975,-7.4975,-7.5126,-7.5352,-7.5728,-7.5929,-7.6055,-7.6055,-7.6055,-7.6055,-7.6055,-7.6055,-7.6055,-7.6055,-7.6055,-7.5979,-7.5804,-7.5954,-7.6055,-7.6055,-7.6055,-7.6055,-7.6055,-7.6055,-7.5728,-7.5,-7.4598,-7.4247,-7.387,-7.3117,-7.3117,-7.3895,-7.4448,-7.5101,-9.2344,-9.3571,-9.4768,-9.5426,-9.5097,-9.4439,-9.375,-9.2554,-9.1446,-9.0788,-9.0638,-9.0638,-9.0638,-9.0638,-9.0788,-9.1177,-9.0908,-9.0788,-9.1177,-9.2254,-9.387,-9.6294,-9.9406,-10.1381,-10.1381,-10.2069,-10.2488,-10.2488,-10.2488,-10.2488,-10.2488,-10.2279,-10.18,-10.1082,-10.0304,-9.9645,-9.9137,-9.8718,-9.8658,-9.8897,-9.8897,-9.8658,-9.8269,-9.8688,-9.8299,-9.7341,-9.77,-9.788,0.0,-9.788,-9.788,-9.77,-9.6101,-9.6112,-9.6447,-9.2609,-9.1622,-9.1686,-8.8922,-8.6875,-8.5393,-8.4826,-8.403,-8.3306,-8.3306,-8.1217,-7.8605,-7.7691,-7.8535,-7.9154,-7.6694,-7.6055,-7.6055,-7.6055,-7.6055,-7.5954,-7.5628,-7.5552,-7.5552,-7.5552,-7.5552,-7.5653,-7.6004,-7.6055,-7.6055,-7.6055,-7.6055,-7.6055,-7.6055,-7.6055,-7.6055,-7.6055,-7.6055,-7.6055,-7.6055,-7.6055,-7.6155,-7.6356,-7.6356,-7.6356,-7.6356,-7.6356,-7.6004,-7.5251,-7.49,-7.4623,-7.4423,-7.372,-7.3845,-7.4749,-7.5075,-7.5527,0.0,-9.3361,-9.4469,-9.5097,-9.4768,-9.4169,-9.3511,-9.2434,0.0,-9.0758,-9.0638,-9.0638,-9.0638,-9.0668,-9.0698,-9.0698,-9.0698,-9.0698,-9.0698,-9.2494,-9.4558,-9.6593,-9.8538,-9.9705,-9.9645,-10.1381,-10.2488,-10.2488,-10.2488,-10.2488,-10.2488,-10.189,-10.1201,-10.0483,-10.0483,-9.9855,-9.8538,-9.8538,-9.8867,-9.9496,-9.9466,-9.9466,-9.9496,-9.9466,-9.9107,-9.8538,-9.8538,-9.8538,-9.8538,-9.8568,-9.8568,-9.8538,-9.8568,-9.8179,-9.7491,-9.6803,-9.6144,-9.5306,-9.3361,-9.1125,-8.8999,-8.7669,-8.5691,-8.3849,-8.3849,-8.3669,-8.3033,-8.0616,-7.9983,-7.944,-7.6963,-7.6252,-7.6055,-7.6055,-7.6055,-7.6055,-7.6055,-7.6055,-7.6055,-7.6055,-7.6055,-7.6055,-7.6055,-7.6055,-7.6055,-7.6055,-7.6055,-7.608,-7.6105,-7.608,-7.608,-7.6105,-7.608,-7.608,-7.6105,-7.608,-7.6281,-7.6833,-7.6833,-7.6833,-7.6883,-7.6833,-7.6331,-7.5327,-7.5301,-7.5,-7.4423,-7.4498,-7.4774,-7.5251,-7.5276,-7.5578,-9.1027,0.0,-9.1626,-9.1776,-9.1686,-9.1536,0.0,-9.1087,-9.0818,-9.0668,-9.0638,-9.0638,-9.0638,-9.1057,-9.1386,-9.1386,-9.1386,-9.1386,-9.1386,-9.399,-9.6803,-9.9286,-10.0902,-10.159,-10.1082,-10.189,-10.2488,-10.2488,-10.2488,-10.2488,-10.2488,-10.2368,-10.171,-10.0513,-10.0483,-9.9855,-9.8538,-9.8538,-9.8867,-9.9496,-9.8987,-9.9017,-9.9496,-9.8987,-9.8658,-9.8538,-9.8538,-9.8538,-9.8568,-9.9077,-9.8987,-9.8568,-9.9077,-9.8867,-9.8149,-9.6982,-9.6144,-9.5366,-9.387,-9.2333,-9.0896,-8.9981,-8.9348,-8.8896,-8.8896,-8.7611,-8.5603,-8.3151,-8.2484,-8.1866,-7.9535,-7.7522,-7.6055,-7.6055,-7.6055,-7.6055,-7.6055,-7.6055,-7.6055,-7.6055,-7.6055,-7.6055,-7.6055,-7.6055,-7.6055,-7.6055,-7.6055,-7.6205,-7.6632,-7.6306,-7.623,-7.6632,-7.6306,-7.623,-7.6657,-7.6306,-7.6281,-7.6833,-7.6482,-7.6431,-7.6858,-7.6482,-7.613,-7.5854,-7.5854,-7.5377,-7.4423,-7.5251,-7.5527,-7.5251,-7.5653,-7.5929,-9.0638,-9.0638,-9.0638,-9.0638,-9.0638,-9.0638,-9.0638,-9.0638,-9.0638,-9.0638,-9.0638,-9.0728,-9.1027,-9.1117,-9.1357,-9.1985,-9.1566,-9.1596,-9.2823,-9.4798,-9.7222,-10.0154,-10.1381,-10.1979,-10.1979,-10.2279,-10.2488,-10.2488,-10.2488,-10.2488,-10.2488,-10.2488,-10.189,-10.0513,-10.0483,-9.9855,-9.8538,-9.8538,-9.8867,-9.9496,-9.9137,-9.9167,-9.9496,-9.9137,-9.8808,-9.8538,-9.8538,-9.8538,-9.8538,-9.8897,-9.8837,-9.8568,-9.8927,-9.8837,-9.8359,-9.7042,-9.6354,-9.5815,-9.4139,-9.2733,-9.1506,-9.0848,-9.0638,-9.0638,-9.0638,-8.9714,-8.8155,-8.5691,-8.4954,-8.4417,-8.1959,-7.9508,-7.7788,-7.7788,-7.689,-7.6055,-7.6055,-7.6055,-7.6055,-7.6055,-7.6256,-7.6431,-7.6431,-7.6431,-7.6431,-7.6431,-7.6431,-7.6532,-7.6833,-7.6607,-7.6632,-7.721,-7.6758,-7.6657,-7.721,-7.6984,-7.7034,-7.7611,-7.7109,-7.6933,-7.7235,-7.6733,-7.6306,-7.6055,-7.6055,-7.5753,-7.5176,-7.5753,-7.5904,-7.5628,-7.5929,-7.618,-9.0638,-9.0638,-9.0638,-9.0638,-9.0638,-9.0608,-9.0519,-9.0549,-9.0608,-9.0519,-9.0579,-9.0818,-9.1357,-9.1177,-9.1267,-9.2284,-9.1776,-9.2165,-9.4828,-9.5785,-9.7281,-10.0274,-10.1201,-10.18,-10.2279,-10.2398,-10.2488,-10.2488,-10.2488,-10.2488,-10.2488,-10.2488,-10.192,-10.0693,-10.0453,-9.9795,-9.8688,-9.8568,-9.8867,-9.9496,-9.9406,-9.9406,-9.9496,-9.9406,-9.9047,-9.8538,-9.8538,-9.8538,-9.8538,-9.8538,-9.8538,-9.8538,-9.8538,-9.8448,-9.8239,-9.7012,-9.6503,-9.6144,-9.4229,-9.2793,-9.1656,-9.0997,-9.0728,-9.0638,-9.0638,-9.0638,-9.0192,-8.8184,-8.7265,-8.654,-8.4417,-8.1774,-7.9698,-7.9698,-7.7885,-7.608,-7.6155,-7.618,-7.6205,-7.6281,-7.6682,-7.6984,-7.6883,-7.6883,-7.6883,-7.6883,-7.6883,-7.6933,-7.7109,-7.7059,-7.721,-7.7762,-7.7335,-7.726,-7.7913,-7.7888,-7.8088,-7.8741,-7.8013,-7.7536,-7.7461,-7.7009,-7.6532,-7.6055,-7.6055,-7.6055,-7.6055,-7.6055,-7.6055,-7.6055,-7.613,-7.6431,-9.0638,-9.0638,-9.0638,-9.0638,-9.0638,-9.0489,-8.995,-9.0249,-9.0489,-8.992,-9.0249,-9.0668,-9.0758,-9.1626,-9.2194,-9.1835,-9.3032,-9.4917,-9.7551,-9.8478,-9.9496,-10.1234,-10.189,-10.2159,-10.168,-10.2159,-10.2488,-10.2488,-10.2488,-10.2488,-10.2488,-10.2488,-10.2099,-10.1351,-10.0214,-9.9556,-9.9346,-9.8808,-9.8867,-9.9496,-9.8927,-9.8957,-9.9496,-9.8927,-9.8628,-9.8538,-9.8538,-9.8538,-9.8538,-9.8538,-9.8538,-9.8538,-9.8538,-9.8179,-9.7551,-9.6833,-9.6204,-9.5546,-9.408,-9.3092,-9.2344,-9.1686,-9.1087,-9.0638,-9.0638,-9.0638,-9.0555,-9.0192,-8.8556,-8.6888,-8.654,-8.306,-7.9698,-7.9698,-7.7885,-7.618,-7.6657,-7.6758,-7.6883,-7.736,-7.7511,-7.7436,-7.6959,-7.6883,-7.6883,-7.6883,-7.6883,-7.721,-7.8164,-7.7862,-7.7787,-7.834,-7.7913,-7.7988,-7.9043,-7.8666,-7.8842,-7.9871,-7.8088,-7.6783,-7.6331,-7.623,-7.613,-7.6055,-7.6055,-7.6055,-7.6055,-7.6055,-7.6055,-7.6055,-7.6532,-7.6783,-9.0638,-9.0638,-9.0549,-9.0219,-8.986,-8.9322,-8.8274,-8.8005,-8.8185,-8.8963,-8.9082,-8.9471,-9.0908,-9.1955,-9.2853,-9.3631,-9.5127,-9.6593,-9.779,-9.8538,-9.9466,-10.0782,-10.1561,-10.1979,-10.2009,-10.2309,-10.2488,-10.2488,-10.2488,-10.2488,-10.2488,-10.2488,-10.2009,-10.0962,-10.0004,-9.9137,-9.8419,-9.779,-9.797,-9.8957,-9.8658,-9.8688,-9.8957,-9.8658,-9.8329,-9.8,-9.8359,-9.8299,-9.8,-9.8359,-9.8299,-9.797,-9.797,-9.7581,-9.6922,-9.6294,-9.5636,-9.4917,-9.393,-9.3391,-9.3032,-9.2374,-9.1955,-9.1686,-9.1686,-9.1446,-9.1177,-9.1177,-9.0095,-8.8896,-8.8896,-8.6336,-8.3633,-8.3633,-8.2045,-8.0607,-8.0873,-8.0086,-7.9447,-7.9705,-7.887,-7.8063,-7.7812,-7.7762,-7.7762,-7.7762,-7.7762,-7.7938,-7.8465,-7.8289,-7.8465,-7.9344,-7.8942,-7.9068,-8.0173,-7.9771,-7.9269,-7.8867,-7.7888,-7.6933,-7.608,-7.6055,-7.6055,-7.6055,-7.6055,-7.6055,-7.6055,-7.6055,-7.6205,-7.6507,-7.6758,-7.721,-9.0721,-9.0939,-9.1027,-8.9785,-8.9172,-8.8574,-8.7227,-8.6778,-8.7018,-8.8394,-8.8544,-8.8993,-9.1027,-9.2314,-9.3721,-9.5725,-9.7252,-9.8239,-9.8389,-9.9017,-9.9825,-10.0812,-10.1381,-10.189,-10.2488,-10.2488,-10.2488,-10.2488,-10.2488,-10.2488,-10.2488,-10.2368,-10.177,-10.0753,-9.9615,-9.8598,-9.773,-9.6803,-9.7012,-9.8299,-9.8299,-9.8359,-9.8538,-9.8538,-9.8239,-9.776,-9.8299,-9.8239,-9.779,-9.8299,-9.8119,-9.7491,-9.7491,-9.7012,-9.6264,-9.5606,-9.5037,-9.4528,-9.399,-9.3721,-9.3511,-9.3002,-9.2733,-9.2613,-9.2613,-9.2135,-9.1626,-9.1626,-9.1147,-9.0638,-9.0638,-8.8811,-8.7033,-8.7177,-8.5752,-8.442,-8.4696,-8.3549,-8.2618,-8.2752,-8.1544,-8.0288,-7.948,-7.9379,-7.9177,-7.8617,-7.8515,-7.8566,-7.8716,-7.8842,-7.9243,-8.0122,-7.9947,-8.0122,-8.0951,-8.065,-7.9746,-7.8189,-7.7837,-7.731,-7.6482,-7.618,-7.6105,-7.623,-7.6256,-7.6256,-7.6256,-7.6381,-7.6657,-7.7084,-7.721,-7.7712,-9.1074,-9.1962,-9.2604,-8.951,-8.9172,-8.9262,-8.7915,-8.8544,-8.9262,-8.8783,-8.9621,-9.0489,-9.0668,-9.2763,-9.5097,-9.7042,-9.8987,-10.0483,-10.1082,-10.177,-10.2219,-10.2309,-10.2398,-10.2398,-10.2488,-10.2488,-10.2488,-10.2488,-10.2488,-10.2488,-10.2488,-10.189,-10.1471,-10.1381,-9.8957,-9.791,-9.8448,-9.6593,-9.6294,-9.7551,-9.7551,-9.791,-9.8538,-9.8538,-9.8508,-9.8448,-9.8508,-9.8508,-9.8448,-9.8508,-9.8119,-9.7491,-9.7491,-9.6743,-9.5576,-9.4917,-9.4648,-9.4588,-9.4558,-9.411,-9.3571,-9.3511,-9.3092,-9.2613,-9.2613,-9.2135,-9.1626,-9.1626,-9.1147,-9.0638,-9.0638,-8.8811,-8.7148,-8.7812,-8.6063,-8.4641,-8.5775,-8.5864,-8.5963,-8.6474,-8.6517,-8.5423,-8.2586,-8.2017,-8.1253,-7.8898,-7.8515,-7.8716,-7.9243,-7.9771,-8.0122,-8.0198,-8.0624,-8.0951,-8.1026,-8.1001,-8.0499,-7.9344,-7.8289,-7.7662,-7.7586,-7.6607,-7.6281,-7.6808,-7.6808,-7.6808,-7.6808,-7.7335,-7.7611,-7.7662,-7.8164,-7.844,-9.2991,-9.2683,-9.2409,-8.9922,-8.9172,-8.8604,-8.6838,-8.6838,-8.7377,-8.7945,-8.8783,-9.004,-9.2105,-9.3631,-9.5396,-9.776,-9.9466,-10.0872,-10.1979,-10.2309,-10.2488,-10.2488,-10.2488,-10.2488,-10.2488,-10.2488,-10.2488,-10.2488,-10.2488,-10.2488,-10.2488,-10.186,-10.1261,-10.0872,-9.8658,-9.7431,-9.7311,-9.5755,-9.5426,-9.6324,-9.7102,-9.7431,-9.7341,-9.8149,-9.8089,-9.7341,-9.8179,-9.8269,-9.788,-9.788,-9.773,-9.7401,-9.6623,-9.5755,-9.4947,-9.4708,-9.4618,-9.4618,-9.4618,-9.4439,-9.4229,-9.4229,-9.405,-9.384,-9.384,-9.3391,-9.2823,-9.2823,-9.2374,-9.1656,-9.0848,-9.0209,-8.9913,-9.0179,-9.0194,-9.0255,-9.0661,-8.9844,-8.9064,-8.9319,-8.8045,-8.6639,-8.5465,-8.5219,-8.4957,-8.3891,-8.382,-8.3445,-8.2406,-8.3921,-8.4041,-8.1417,-8.3184,-8.4381,-8.4018,-8.3992,-8.2829,-8.0076,-7.8842,-7.8063,-7.7712,-7.731,-7.7185,-7.7385,-7.7385,-7.7385,-7.7385,-7.7611,-7.7862,-7.8214,-7.8415,-7.8716,-9.4272,-9.3333,-9.2238,-9.0156,-8.9569,-8.9006,-8.6547,-8.6509,-8.7137,-8.7856,-8.8693,-9.013,-9.2793,-9.402,-9.5396,-9.782,-9.9496,-10.0962,-10.2309,-10.2488,-10.2488,-10.2488,-10.2488,-10.2488,-10.2488,-10.2488,-10.2488,-10.2488,-10.2279,-10.2189,-10.2189,-10.1291,-10.0573,-9.9885,-9.8119,-9.6892,-9.6264,-9.5157,-9.4828,-9.5306,-9.6593,-9.6982,-9.6623,-9.77,-9.7611,-9.6653,-9.797,-9.8119,-9.7521,-9.773,-9.7581,-9.7072,-9.5785,-9.5007,-9.4618,-9.4618,-9.4618,-9.4618,-9.4618,-9.4618,-9.4618,-9.4618,-9.4618,-9.4618,-9.4618,-9.4139,-9.3571,-9.3571,-9.3092,-9.2404,-9.1506,-9.1596,-9.1985,-9.2194,-9.2913,-9.3631,-9.387,-9.3099,-9.2327,-9.2327,-9.1055,-8.9757,-8.898,-8.8792,-8.8509,-8.775,-8.7559,-8.7122,-8.5703,-8.7294,-8.767,-8.5185,-8.703,-8.8239,-8.7649,-8.7435,-8.576,-8.2007,-8.083,-7.9659,-7.8239,-7.7888,-7.7787,-7.7963,-7.7963,-7.7963,-7.7963,-7.8139,-7.844,-7.8792,-7.8792,-7.9018,-9.4696,-9.3803,-9.2597,-9.0091,-9.0554,-9.0775,-8.7512,-8.8295,-8.9471,-8.8843,-8.9741,-9.1057,-9.2344,-9.3691,-9.5247,-9.7192,-9.9167,-10.0962,-10.2309,-10.2488,-10.2488,-10.2488,-10.2488,-10.2488,-10.2488,-10.2488,-10.2488,-10.2488,-10.186,-10.1471,-10.1471,-10.0214,-9.9197,-9.8538,-9.7252,-9.6264,-9.5606,-9.4947,-9.4618,-9.4618,-9.5935,-9.6563,-9.6563,-9.7192,-9.7162,-9.6623,-9.794,-9.8119,-9.7551,-9.8239,-9.773,-9.6414,-9.5127,-9.4618,-9.4618,-9.4618,-9.4618,-9.4618,-9.4618,-9.4618,-9.4618,-9.4618,-9.4618,-9.4618,-9.4618,-9.4139,-9.3601,-9.3601,-9.3122,-9.2613,-9.2613,-9.2613,-9.2793,-9.3421,-9.3571,-9.378,-9.4469,-9.5127,-9.5606,-9.5606,-9.6144,-9.5763,-9.3203,-9.2713,-9.1848,-8.9326,-8.8941,-8.8941,-8.8968,-8.9522,-9.0282,-9.157,-9.2235,-9.2373,-9.1664,-9.1155,-8.9212,-8.5306,-8.4496,-8.2764,-7.9497,-7.8314,-7.7988,-7.8515,-7.854,-7.854,-7.854,-7.9118,-7.9394,-7.9394,-7.9394,-7.9394,-9.8424,-9.6728,-9.5103,-9.3928,-9.2188,-9.0666,-9.0174,-8.9498,-8.9322,-9.0519,-9.1057,-9.1596,-9.2434,-9.3302,-9.4678,-9.7102,-9.8389,-9.9915,-10.2189,-10.2488,-10.2488,-10.2488,-10.2488,-10.2488,-10.2488,-10.2488,-10.2279,-10.18,-10.1561,-10.1261,-10.0782,-9.9975,-9.9197,-9.8538,-9.7252,-9.6264,-9.5606,-9.4947,-9.4618,-9.4618,-9.5007,-9.5187,-9.5247,-9.6773,-9.6892,-9.5965,-9.7252,-9.7431,-9.6862,-9.7072,-9.6384,-9.5187,-9.5277,-9.5007,-9.4618,-9.4618,-9.4618,-9.4618,-9.4618,-9.4618,-9.4618,-9.4618,-9.4618,-9.4618,-9.4618,-9.4469,-9.4289,-9.4289,-9.4169,-9.402,-9.402,-9.402,-9.393,-9.3631,-9.396,-9.4499,-9.5157,-9.5456,-9.5725,-9.6204,-9.6444,-9.6356,-9.5585,-9.5466,-9.5197,-9.4415,-9.4325,-9.4647,-9.5554,-9.3335,-9.3345,-9.7432,-9.6335,-9.5241,-9.507,-9.4472,-9.2697,-8.9338,-8.637,-8.3154,-7.9522,-7.9444,-7.9369,-7.9143,-7.952,-7.9721,-7.9721,-7.9495,-7.9595,-7.9972,-7.9972,-7.9746,-9.8816,-9.5968,-9.341,-9.3327,-9.1722,-9.0399,-9.1359,-9.0278,-8.9561,-9.1267,-9.1626,-9.1805,-9.2494,-9.3152,-9.4349,-9.6713,-9.791,-9.9346,-10.177,-10.2309,-10.2488,-10.2488,-10.2488,-10.2488,-10.2488,-10.2279,-10.189,-10.1471,-10.0753,-10.0094,-9.9735,-9.8837,-9.803,-9.7371,-9.6593,-9.5875,-9.5217,-9.4798,-9.4618,-9.4618,-9.4888,-9.4858,-9.4648,-9.6084,-9.6174,-9.5247,-9.6294,-9.6683,-9.6563,-9.6294,-9.5725,-9.5007,-9.5157,-9.4947,-9.4618,-9.4618,-9.4618,-9.4618,-9.4618,-9.4618,-9.4618,-9.4618,-9.4618,-9.4618,-9.4618,-9.4798,-9.4947,-9.4678,-9.4798,-9.4947,-9.4678,-9.4618,-9.4499,-9.408,-9.4319,-9.4798,-9.5456,-9.5785,-9.6174,-9.6803,-9.7162,-9.7431,-9.77,-9.7521,-9.7521,-9.8059,-9.8119,-9.8419,-9.9197,-9.7424,-9.7336,-10.0595,-9.9686,-9.8834,-9.8541,-9.8066,-9.6381,-9.3004,-9.034,-8.6843,-8.2238,-8.0644,-7.9721,-7.9394,-7.9921,-8.0223,-8.0223,-8.0097,-8.0223,-8.0549,-8.0549,-8.0348,-9.736,-9.3691,-9.0,-9.0935,-9.0787,-9.0794,-9.1803,-9.1149,-9.0532,-9.135,-9.1566,-9.1805,-9.2404,-9.3092,-9.4229,-9.6204,-9.7641,-9.9197,-10.1171,-10.2069,-10.2488,-10.2488,-10.2488,-10.2488,-10.2398,-10.186,-10.1381,-10.1201,-9.9526,-9.8478,-9.8359,-9.7222,-9.6264,-9.5606,-9.5606,-9.5277,-9.4618,-9.4618,-9.4618,-9.4618,-9.5217,-9.5187,-9.4618,-9.5277,-9.5277,-9.4738,-9.5277,-9.5875,-9.6444,-9.5785,-9.5516,-9.5456,-9.4858,-9.4618,-9.4618,-9.4618,-9.4618,-9.4618,-9.4618,-9.4618,-9.4618,-9.4618,-9.4618,-9.4618,-9.4618,-9.5037,-9.5366,-9.4768,-9.5037,-9.5366,-9.4768,-9.4648,-9.4708,-9.4708,-9.4648,-9.4798,-9.5516,-9.6144,-9.6773,-9.7461,-9.8149,-9.8808,-9.9406,-9.9077,-9.9107,-10.0304,-10.0573,-10.0573,-10.0573,-10.1201,-10.159,-10.1561,-10.2099,-10.2279,-10.159,-10.1471,-10.0036,-9.6427,-9.5266,-9.2327,-8.6965,-8.2367,-7.9855,-7.9469,-8.0047,-8.0323,-8.0273,-8.0775,-8.1051,-8.1102,-8.1102,-8.1076,-10.098,-9.8751,-9.6535,-9.8476,-9.772,-9.6355,-9.571,-9.5285,-9.4289,-9.1389,-9.1267,-9.1656,-9.1805,-9.2793,-9.4229,-9.6234,-9.767,-9.9197,-10.1171,-10.2069,-10.2488,-10.2488,-10.2488,-10.2279,-10.177,-10.1561,-10.0812,-9.9256,-9.8778,-9.8059,-9.7042,-9.6713,-9.6264,-9.5606,-9.5606,-9.5277,-9.4618,-9.4618,-9.4618,-9.4618,-9.4768,-9.4738,-9.4618,-9.5277,-9.5516,-9.5366,-9.4977,-9.5187,-9.5755,-9.5097,-9.4828,-9.4798,-9.4678,-9.4618,-9.4618,-9.4618,-9.4618,-9.4618,-9.4618,-9.4618,-9.4618,-9.4618,-9.4618,-9.4618,-9.4618,-9.4708,-9.4798,-9.4648,-9.4708,-9.4798,-9.4648,-9.4977,-9.5366,-9.5366,-9.4977,-9.4917,-9.6114,-9.6473,-9.6922,-9.8089,-9.8837,-9.9346,-9.9496,-9.9825,-10.0184,-10.0483,-10.0902,-10.1261,-10.1261,-10.186,-10.2279,-10.2279,-10.2398,-10.2398,-10.2279,-10.177,-10.1106,-10.0342,-9.6761,-9.4114,-9.2864,-8.7428,-8.3062,-8.0047,-8.0976,-8.1252,-8.085,-8.0976,-8.1252,-8.1654,-8.1654,-8.1428,-10.0303,-9.8552,-9.7174,-9.9046,-9.9218,-9.8723,-9.81,-9.7983,-9.6864,-9.2863,-9.2591,-9.275,-9.1763,-9.2703,-9.402,-9.5426,-9.6982,-9.8598,-10.0304,-10.1381,-10.2099,-10.2488,-10.2189,-10.189,-10.1501,-10.0902,-9.9975,-9.8628,-9.794,-9.7162,-9.6144,-9.5815,-9.5486,-9.5127,-9.5127,-9.4947,-9.4618,-9.4618,-9.4618,-9.4618,-9.4259,-9.411,-9.4139,-9.4828,-9.5127,-9.5097,-9.4768,-9.4798,-9.5097,-9.4738,-9.4618,-9.4618,-9.4618,-9.4618,-9.4618,-9.4618,-9.4618,-9.4618,-9.4618,-9.4618,-9.4618,-9.4618,-9.4828,-9.5067,-9.5067,-9.5306,-9.5486,-9.5157,-9.5067,-9.5067,-9.5067,-9.5336,-9.5666,-9.5995,-9.5785,-9.5815,-9.6803,-9.7012,-9.7311,-9.8329,-9.9047,-9.9615,-9.9915,-10.0782,-10.1321,-10.0992,-10.1501,-10.1979,-10.1979,-10.2279,-10.2488,-10.2488,-10.2488,-10.2488,-10.2488,-10.2189,-10.1979,-10.1979,-9.946,-9.727,-9.5662,-9.256,-8.8295,-8.2573,-8.2091,-8.1679,-8.1403,-8.1679,-8.1955,-8.2231,-8.2231,-8.2081,-9.9051,-9.77,-9.6796,-9.789,-9.9082,-10.0008,-10.0008,-10.0008,-9.8974,-9.5375,-9.4495,-9.3773,-9.1833,-9.2434,-9.3511,-9.4289,-9.6055,-9.785,-9.9316,-10.0663,-10.168,-10.2398,-10.189,-10.1471,-10.1321,-10.0214,-9.9137,-9.8239,-9.7192,-9.6234,-9.5456,-9.4917,-9.4618,-9.4618,-9.4499,-9.4439,-9.4439,-9.4319,-9.4259,-9.4259,-9.3691,-9.3421,-9.3421,-9.411,-9.4499,-9.4618,-9.4618,-9.4618,-9.4618,-9.4618,-9.4618,-9.4618,-9.4618,-9.4618,-9.4618,-9.4618,-9.4618,-9.4618,-9.4618,-9.4618,-9.4618,-9.4618,-9.5037,-9.5606,-9.5606,-9.6055,-9.6444,-9.5905,-9.5755,-9.5755,-9.5755,-9.5935,-9.6234,-9.6773,-9.7072,-9.7341,-9.7611,-9.776,-9.803,-9.8718,-9.9406,-10.0064,-10.0693,-10.177,-10.2309,-10.177,-10.2099,-10.2488,-10.2488,-10.2488,-10.2488,-10.2488,-10.2488,-10.2488,-10.2488,-10.2488,-10.2488,-10.2488,-10.186,-10.0333,-9.7517,-9.6797,-9.3456,-8.712,-8.4276,-8.2689,-8.2106,-8.2683,-8.2909,-8.2809,-8.2809,-8.2759,-10.1622,-10.1666,-10.1402,-10.0964,-10.1503,-10.2144,-10.2144,-10.2144,-10.1486,-9.9216,-9.604,-9.3145,-9.1142,-9.1386,-9.2284,-9.3511,-9.5396,-9.7341,-9.9226,-10.0663,-10.168,-10.2398,-10.189,-10.1261,-10.0693,-9.9945,-9.8748,-9.6982,-9.6683,-9.6025,-9.4798,-9.4648,-9.4618,-9.4618,-9.402,-9.3721,-9.3721,-9.3152,-9.2883,-9.2883,-9.2793,-9.2733,-9.2763,-9.3421,-9.405,-9.4618,-9.4618,-9.4618,-9.4618,-9.4618,-9.4618,-9.4618,-9.4618,-9.4618,-9.4618,-9.4618,-9.4618,-9.4618,-9.4618,-9.4618,-9.4618,-9.4618,-9.5037,-9.5606,-9.5606,-9.6055,-9.6563,-9.6473,-9.6444,-9.6444,-9.6444,-9.7281,-9.8149,-9.8239,-9.9137,-9.9675,-9.8628,-9.8837,-9.9436,-10.0094,-10.0782,-10.1411,-10.2099,-10.2398,-10.2488,-10.2368,-10.2398,-10.2488,-10.2488,-10.2488,-10.2488,-10.2488,-10.2488,-10.2488,-10.2488,-10.2488,-10.2488,-10.2488,-10.186,-10.1318,-10.0856,-9.8044,-9.5989,-9.4939,-9.008,-8.6166,-8.3261,-8.3838,-8.3838,-8.3386,-8.3386,-8.3135,-10.2299,-10.2198,-10.1893,-10.1995,-10.2299,-10.2502,-10.2502,-10.2502,-10.1881,-9.9871,-9.8094,-9.5945,-9.2863,-9.2834,-9.3097,-9.2543,-9.4169,-9.6025,-9.7641,-9.8987,-10.0214,-10.1261,-10.0782,-10.0274,-9.9975,-9.8987,-9.803,-9.7162,-9.6414,-9.5785,-9.5187,-9.4439,-9.405,-9.405,-9.3391,-9.3032,-9.3032,-9.2733,-9.2404,-9.2045,-9.2434,-9.2404,-9.2075,-9.2733,-9.3391,-9.405,-9.4439,-9.4618,-9.4618,-9.4618,-9.4618,-9.4618,-9.4618,-9.4618,-9.4618,-9.4618,-9.4618,-9.4618,-9.4618,-9.4618,-9.4618,-9.4618,-9.5306,-9.6084,-9.5695,-9.6294,-9.7012,-9.6683,-9.6563,-9.6653,-9.7012,-9.779,-9.8628,-9.8987,-10.0094,-10.0872,-10.0304,-10.0094,-10.0274,-10.0902,-10.1261,-10.168,-10.2398,-10.2488,-10.2488,-10.2488,-10.2488,-10.2488,-10.2488,-10.2488,-10.2608,-10.2997,-10.2698,-10.2608,-10.2997,-10.2698,-10.2488,-10.2488,-10.2189,-10.186,-10.1471,-10.0412,-9.8973,-9.6998,-9.2889,-9.0069,-8.8585,-8.8851,-8.8038,-8.6267,-8.6267,-8.5334,-10.2299,-10.1995,-10.1792,-10.2096,-10.2401,-10.2502,-10.2502,-10.2502,-10.2079,-10.0583,-10.0279,-9.9216,-9.5752,-9.4697,-9.3773,-9.19,-9.3152,-9.4798,-9.6144,-9.7431,-9.8748,-10.0094,-9.9645,-9.9316,-9.9496,-9.8448,-9.7611,-9.7281,-9.6384,-9.5695,-9.5366,-9.4229,-9.3571,-9.3571,-9.2793,-9.2344,-9.2344,-9.2194,-9.1865,-9.1386,-9.1865,-9.1835,-9.1386,-9.2045,-9.2613,-9.3122,-9.399,-9.4439,-9.4618,-9.4618,-9.4618,-9.4618,-9.4618,-9.4618,-9.4618,-9.4618,-9.4618,-9.4618,-9.4618,-9.4618,-9.4618,-9.4618,-9.5396,-9.6264,-9.5935,-9.6623,-9.7431,-9.7132,-9.7072,-9.7162,-9.7641,-9.8389,-9.9137,-9.9645,-10.0782,-10.177,-10.177,-10.1351,-10.1171,-10.165,-10.177,-10.189,-10.2398,-10.2488,-10.2488,-10.2488,-10.2488,-10.2488,-10.2488,-10.2488,-10.2698,-10.3117,-10.2787,-10.2698,-10.3117,-10.2787,-10.2488,-10.2488,-10.2488,-10.2279,-10.177,-10.2189,-10.1342,-9.8689,-9.6361,-9.4398,-9.2964,-9.2964,-9.1455,-8.8592,-8.8592,-8.7105,-10.1589,-10.1893,-10.2299,-10.1589,-10.1995,-10.2502,-10.2502,-10.2502,-10.2536,-10.2373,-10.2339,-10.1684,-9.9596,-9.6125,-9.3189,-9.181,-9.2763,-9.411,-9.5456,-9.6743,-9.8059,-9.9406,-9.8987,-9.8808,-9.9436,-9.8867,-9.797,-9.6713,-9.6563,-9.5965,-9.4738,-9.396,-9.3571,-9.3571,-9.2344,-9.1656,-9.1656,-9.1057,-9.0728,-9.0698,-9.0728,-9.0728,-9.0698,-9.1386,-9.1686,-9.1805,-9.3062,-9.399,-9.4618,-9.4618,-9.4618,-9.4618,-9.4618,-9.4618,-9.4618,-9.4618,-9.4618,-9.4618,-9.4618,-9.4618,-9.4618,-9.4618,-9.5067,-9.5755,-9.6354,-9.6982,-9.7611,-9.8239,-9.8419,-9.8419,-9.8478,-9.9436,-10.0393,-10.0393,-10.1471,-10.2398,-10.2398,-10.2398,-10.2398,-10.2398,-10.2398,-10.2488,-10.2488,-10.2488,-10.2488,-10.2488,-10.2488,-10.2488,-10.2488,-10.2488,-10.2488,-10.2518,-10.2518,-10.2488,-10.2518,-10.2518,-10.2488,-10.2488,-10.2488,-10.2488,-10.2398,-10.2488,-10.2364,-10.2211,-10.2117,-9.9397,-9.4106,-9.4106,-9.2386,-8.9225,-8.9225,-8.7494,-10.2198,-10.2299,-10.2401,-10.2198,-10.2299,-10.2401,-10.1893,-10.2198,-10.2401,-10.1893,-10.2198,-10.1914,-9.9871,-9.8307,-9.6412,-9.3409,-9.3994,-9.4721,-9.4342,-9.5426,-9.6593,-9.7521,-9.776,-9.797,-9.8179,-9.7641,-9.7431,-9.779,-9.6264,-9.5277,-9.5247,-9.378,-9.2763,-9.2344,-9.1446,-9.0997,-9.0997,-9.0758,-9.0638,-9.0638,-9.0638,-9.0638,-9.0638,-9.0878,-9.1207,-9.1656,-9.2135,-9.2703,-9.3361,-9.378,-9.396,-9.399,-9.4439,-9.4618,-9.4618,-9.4618,-9.4618,-9.4618,-9.4618,-9.4618,-9.4618,-9.4618,-9.5037,-9.5636,-9.5875,-9.6653,-9.7551,-9.779,-9.8179,-9.8628,-9.9047,-9.9825,-10.0693,-10.159,-10.2159,-10.2488,-10.2488,-10.2488,-10.2488,-10.2488,-10.2488,-10.2488,-10.2488,-10.2488,-10.2488,-10.2488,-10.2488,-10.2608,-10.3027,-10.3087,-10.3416,-10.4313,-10.3984,-10.3715,-10.3715,-10.3326,-10.2907,-10.2518,-10.2488,-10.2488,-10.2488,-10.2488,-10.2488,-10.2488,-10.2488,-10.155,-9.9484,-9.9484,-9.8011,-9.5134,-9.5134,-9.2539,-10.2502,-10.2502,-10.2603,-10.2806,-10.2705,-10.2401,-10.1893,-10.213,-10.2299,-10.1589,-10.1995,-10.2079,-10.0818,-10.0482,-9.9216,-9.5224,-9.4946,-9.5011,-9.4381,-9.4685,-9.5247,-9.6144,-9.6803,-9.7192,-9.7192,-9.7222,-9.7311,-9.7521,-9.6144,-9.5277,-9.5247,-9.3571,-9.2194,-9.1327,-9.0878,-9.0638,-9.0638,-9.0638,-9.0638,-9.0638,-9.0638,-9.0638,-9.0638,-9.0638,-9.0878,-9.1297,-9.1297,-9.1776,-9.2643,-9.3302,-9.3571,-9.3661,-9.4349,-9.4618,-9.4618,-9.4618,-9.4618,-9.4618,-9.4618,-9.4618,-9.4618,-9.4618,-9.4917,-9.5336,-9.5785,-9.6503,-9.7281,-9.773,-9.8329,-9.8957,-9.9376,-10.0184,-10.1082,-10.2219,-10.2488,-10.2488,-10.2488,-10.2488,-10.2488,-10.2488,-10.2488,-10.2488,-10.2488,-10.2488,-10.2488,-10.2488,-10.2488,-10.2608,-10.3027,-10.3117,-10.3416,-10.4343,-10.4014,-10.3775,-10.3775,-10.3386,-10.2907,-10.2518,-10.2488,-10.2488,-10.2488,-10.2488,-10.2488,-10.2488,-10.2488,-10.2488,-10.2488,-10.2488,-10.1045,-9.8323,-9.8323,-9.5846,0.0,0.0,0.0,-10.3382,-10.3009,-10.2502,-10.2502,-10.2502,-10.2299,-10.1589,-10.1995,-10.2502,-10.2502,-10.2502,-10.122,-9.7407,-9.5625,-9.4941,-9.5463,-9.4464,-9.4136,-9.5366,-9.6144,-9.6563,-9.6563,-9.773,-9.77,-9.5785,-9.6204,-9.5965,-9.4648,-9.3272,-9.1955,-9.0668,-9.0638,-9.0638,-9.0638,-9.0638,-9.0638,-9.0638,-9.0638,-9.0638,-9.0638,-9.0638,-9.0638,-9.0638,-9.0638,-9.1357,-9.2583,-9.3272,-9.3541,-9.3631,-9.4319,-9.4618,-9.4618,-9.4618,-9.4618,-9.4618,-9.4618,-9.4618,-9.4618,-9.4618,-9.4618,-9.4858,-9.6144,-9.6563,-9.6862,-9.8149,-9.8987,-9.9526,-9.9556,-10.0513,-10.168,-10.2309,-10.2488,-10.2488,-10.2488,-10.2488,-10.2488,-10.2488,-10.2488,-10.2488,-10.2488,-10.2488,-10.2488,-10.2488,-10.2488,-10.2488,-10.2518,-10.2518,-10.2518,-10.2578,-10.2578,-10.2578,-10.2578,-10.2578,-10.2518,-10.2488,-10.2488,-10.2488,-10.2488,-10.2488,-10.2488,-10.2488,-10.2488,-10.2488,-10.2488,-10.2488,-10.114,-9.8421,-9.8294,-9.685,-10.2603,0.0,0.0,0.0,0.0,0.0,-10.1792,-10.2096,-10.2299,-10.1589,-10.1995,-10.2502,-10.2502,-10.2502,-10.211,-10.0986,-9.977,-9.7913,-9.5288,-9.5412,-9.5345,-9.4252,-9.5576,-9.6563,-9.6563,-9.7311,-9.7551,-9.7012,-9.6294,-9.5277,-9.393,-9.2165,-9.1027,-9.0638,-9.0638,-9.0638,-9.0638,-9.0638,-9.0638,-9.0638,-9.0638,-9.0638,-9.0638,-9.0638,-9.0638,-9.0638,-9.0638,-9.0848,-9.1267,-9.2404,-9.2883,-9.2972,-9.4139,-9.4618,-9.4618,-9.4618,-9.4618,-9.4618,-9.4618,-9.4618,-9.4618,-9.4618,-9.4618,-9.4768,-9.5606,-9.6204,-9.6862,-9.8149,-9.8987,-9.9735,-10.0693,-10.1561,-10.2279,-10.2488,-10.2488,-10.2488,-10.2488,-10.2488,-10.2488,-10.2488,-10.2488,-10.2488,-10.2488,-10.2488,-10.2488,-10.2488,-10.2488,-10.2668,-10.3117,-10.3206,-10.3535,-10.4523,-10.4613,-10.4403,-10.3895,-10.3895,-10.3506,-10.2578,-10.2488,-10.2488,-10.2488,-10.2488,-10.2488,-10.2488,-10.2488,-10.2488,-10.2488,-10.2488,-10.2082,-10.133,-9.8796,-9.8534,-10.2705,-10.2502,-10.2603,-10.2908,0.0,0.0,-10.1589,-10.1995,-10.2198,-10.1115,-10.1792,-10.2502,-10.2502,-10.2502,-10.2502,-10.2502,-10.1787,-10.042,-9.7903,-9.6479,-9.5585,-9.4965,-9.5402,-9.5636,-9.5366,-9.6623,-9.7162,-9.6354,-9.6114,-9.5187,-9.3272,-9.1835,-9.0908,-9.0638,-9.0369,-9.0369,-9.0638,-9.0369,-9.0369,-9.0638,-9.0638,-9.0638,-9.0638,-9.0638,-9.0638,-9.0638,-9.0638,-9.0638,-9.0728,-9.1776,-9.2344,-9.2733,-9.408,-9.4618,-9.4618,-9.4618,-9.4618,-9.4618,-9.4618,-9.4618,-9.4618,-9.4618,-9.4618,-9.4798,-9.5725,-9.6264,-9.6892,-9.8478,-9.9615,-10.0573,-10.159,-10.2189,-10.2488,-10.2488,-10.2488,-10.2488,-10.2488,-10.2488,-10.2488,-10.2488,-10.2488,-10.2488,-10.2488,-10.2488,-10.2488,-10.2488,-10.2488,-10.2608,-10.2997,-10.3236,-10.3715,-10.4523,-10.4822,-10.4822,-10.4403,-10.4134,-10.3685,-10.2907,-10.2608,-10.2488,-10.2488,-10.2488,-10.2488,-10.2488,-10.2488,-10.2488,-10.2488,-10.2488,-10.2488,-10.2364,-10.0176,-10.0182,-10.2806,-10.2603,-10.2806,-10.3314,-10.3009,0.0,-10.169,-10.1995,-10.213,-10.0743,-10.1521,-10.2502,-10.2502,-10.2502,-10.2502,-10.2502,-10.2502,-10.2186,-10.1516,-9.7892,-9.5647,-9.6491,-9.5695,-9.4698,-9.387,-9.5965,-9.6653,-9.4858,-9.5606,-9.5097,-9.2733,-9.1895,-9.1237,-9.0668,-9.007,-9.001,-9.0519,-9.001,-9.004,-9.0519,-9.0608,-9.0638,-9.0638,-9.0638,-9.0638,-9.0638,-9.0638,-9.0638,-9.0698,-9.1416,-9.2075,-9.2733,-9.399,-9.4528,-9.4618,-9.4618,-9.4618,-9.4618,-9.4618,-9.4618,-9.4618,-9.4618,-9.4618,-9.4858,-9.6084,-9.6503,-9.6982,-9.9047,-10.0573,-10.168,-10.2309,-10.2488,-10.2488,-10.2488,-10.2488,-10.2488,-10.2488,-10.2488,-10.2488,-10.2488,-10.2488,-10.2488,-10.2488,-10.2488,-10.2488,-10.2488,-10.2488,-10.2488,-10.2488,-10.3027,-10.3416,-10.3506,-10.4104,-10.4493,-10.4403,-10.3895,-10.3506,-10.3326,-10.2787,-10.2488,-10.2488,-10.2488,-10.2488,-10.2488,-10.2488,-10.2488,-10.2488,-10.2398,-10.2398,-10.2368,-10.159,-10.1261,-10.3585,-10.3382,-10.328,-10.2806,-10.2603,0.0,-10.2299,-10.2401,-10.2401,-10.213,-10.2299,-10.2502,-10.2502,-10.2502,-10.2502,-10.2502,-10.2502,-10.1884,-10.0232,-10.0072,-9.9078,-9.6222,-9.7055,-9.7214,-9.5361,-9.6144,-9.6384,-9.5456,-9.4139,-9.3152,-9.2613,-9.1476,-9.0788,-9.0638,-9.0519,-9.0249,-8.986,-9.0249,-9.0249,-8.986,-9.0399,-9.0638,-9.0638,-9.0638,-9.0638,-9.0638,-9.0638,-9.0638,-9.0728,-9.1925,-9.2494,-9.2673,-9.3481,-9.411,-9.4618,-9.4618,-9.4618,-9.4618,-9.4618,-9.4618,-9.4618,-9.4618,-9.4618,-9.4768,-9.5546,-9.6144,-9.7102,-9.9586,-10.1291,-10.2309,-10.2488,-10.2488,-10.2488,-10.2488,-10.2488,-10.2488,-10.2488,-10.2488,-10.2488,-10.2488,-10.2488,-10.2488,-10.2488,-10.2488,-10.2488,-10.2488,-10.2488,-10.2488,-10.2488,-10.3027,-10.3625,-10.4134,-10.4822,-10.5002,-10.4433,-10.4284,-10.3805,-10.2728,-10.2578,-10.2488,-10.2488,-10.2488,-10.2488,-10.2488,-10.2488,-10.2488,-10.2488,-10.195,-10.168,-10.165,-10.0483,-10.0184,-10.4092,-10.3585,-10.3111,-10.3483,-10.3009,0.0,0.0,-10.2502,-10.2401,-10.1995,-10.2231,-10.2502,-10.2502,-10.2502,-10.2502,-10.2502,-10.2502,-10.211,-10.112,-10.0705,-10.0138,-9.8811,-9.8294,-9.7396,-9.5764,-9.6487,-9.6668,-9.5663,-9.375,-9.2613,-9.2613,-9.1357,-9.0638,-9.0638,-9.0339,-9.001,-8.9681,-8.998,-8.998,-8.9681,-9.0339,-9.0638,-9.0638,-9.0638,-9.0638,-9.0638,-9.0638,-9.0638,-9.0728,-9.1716,-9.2314,-9.2703,-9.3691,-9.4289,-9.4618,-9.4618,-9.4618,-9.4618,-9.4618,-9.4618,-9.4618,-9.4618,-9.4618,-9.4798,-9.5785,-9.7222,-9.8808,-10.0094,-10.1471,-10.2488,-10.2488,-10.2488,-10.2488,-10.2488,-10.2488,-10.2488,-10.2488,-10.2488,-10.2608,-10.2907,-10.2698,-10.2488,-10.2488,-10.2728,-10.2817,-10.2518,-10.2488,-10.2488,-10.2488,-10.3027,-10.3685,-10.4313,-10.5032,-10.5421,-10.5391,-10.4792,-10.4104,-10.3506,-10.2877,-10.2488,-10.2488,-10.2488,-10.2488,-10.2488,-10.2488,-10.2488,-10.2488,-10.177,-10.1471,-10.1534,-10.0094,-9.9675,-10.4701,-10.399,-10.3415,-10.4396,-10.3787,-10.2908,0.0,0.0,0.0,-10.1995,-10.2299,-10.2705,-10.2502,-10.2502,-10.2502,-10.2502,-10.2502,-10.2536,-10.2705,-10.1187,-10.0436,-10.1409,-9.9621,-9.771,-9.6289,-9.7204,-9.7137,-9.5301,-9.4088,-9.324,-9.2793,-9.1536,-9.0818,-9.0818,-9.019,-8.9741,-8.9471,-8.9621,-8.9531,-8.9292,-8.995,-9.0339,-9.0459,-9.0459,-9.0519,-9.0638,-9.0638,-9.0638,-9.0698,-9.1476,-9.2135,-9.2733,-9.393,-9.4499,-9.4618,-9.4618,-9.4618,-9.4618,-9.4618,-9.4618,-9.4618,-9.4618,-9.4768,-9.5187,-9.6264,-9.8419,-10.0483,-10.0483,-10.1471,-10.2488,-10.2488,-10.2488,-10.2488,-10.2488,-10.2488,-10.2488,-10.2488,-10.2488,-10.2698,-10.3296,-10.3117,-10.2877,-10.2877,-10.3087,-10.3117,-10.2698,-10.2578,-10.2488,-10.2488,-10.3027,-10.3625,-10.4134,-10.4822,-10.5421,-10.581,-10.4912,-10.4284,-10.4014,-10.3206,-10.2608,-10.2488,-10.2488,-10.2488,-10.2488,-10.2488,-10.2488,-10.2488,-10.177,-10.1381,-10.1261,-10.0064,-9.9436,-10.5479,-10.558,-10.531,-10.4802,-10.4566,-10.4464,-10.4464,0.0,-10.4193,-10.3483,0.0,-10.328,-10.2603,0.0,0.0,-10.2502,-10.2502,-10.2705,-10.3382,-10.2679,-10.1787,-10.0786,-10.0892,-10.0424,-9.8348,-9.8896,-9.7843,-9.4123,-9.5275,-9.5484,-9.3537,-9.2224,-9.1506,-9.1506,-9.0878,-8.998,-8.8813,-8.9382,-8.9082,-8.7945,-8.8604,-8.9202,-8.9771,-8.9771,-9.01,-9.0638,-9.0638,-9.0638,-9.0728,-9.1985,-9.2524,-9.2673,-9.3421,-9.408,-9.4618,-9.4618,-9.4618,-9.4618,-9.4618,-9.4618,-9.4618,-9.4618,-9.5396,-9.6384,-9.6533,-9.8419,-10.0483,-10.0483,-10.1471,-10.2488,-10.2488,-10.2488,-10.2488,-10.2488,-10.2488,-10.2488,-10.2488,-10.2488,-10.2698,-10.3296,-10.3805,-10.4194,-10.4194,-10.3296,-10.2787,-10.3236,-10.2817,-10.2488,-10.2488,-10.3027,-10.3416,-10.3506,-10.4104,-10.4313,-10.3805,-10.4134,-10.3895,-10.2787,-10.3087,-10.3087,-10.2518,-10.2488,-10.2488,-10.2488,-10.2488,-10.2488,-10.2488,-10.177,-10.1171,-10.0573,-9.9855,-9.9197,-10.5986,-10.5513,-10.4802,-10.5682,-10.5276,-10.4769,-10.5208,-10.5005,-10.4566,-10.4295,0.0,0.0,0.0,0.0,0.0,0.0,-10.2806,-10.2603,-10.2908,-10.2705,-10.238,-10.2291,-10.2224,-10.1511,-9.9805,-9.9635,-9.8748,-9.663,-9.7735,-9.7402,-9.486,-9.4228,-9.3227,-9.1626,-9.1357,-9.0579,-8.9262,-8.989,-8.9561,-8.8274,-8.8933,-8.9412,-8.9681,-8.9681,-9.001,-9.0638,-9.0638,-9.0638,-9.0728,-9.2075,-9.2613,-9.2703,-9.378,-9.4349,-9.4618,-9.4618,-9.4618,-9.4678,-9.5037,-9.5187,-9.5187,-9.5187,-9.5815,-9.6563,-9.6563,-9.8419,-10.0483,-10.0483,-10.1471,-10.2488,-10.2488,-10.2488,-10.2488,-10.2488,-10.2488,-10.2608,-10.2937,-10.3027,-10.3326,-10.4403,-10.4493,-10.4613,-10.5421,-10.4792,-10.3895,-10.2997,-10.2997,-10.3027,-10.3027,-10.2937,-10.3176,-10.3895,-10.4224,-10.4433,-10.4613,-10.4822,-10.4613,-10.3685,-10.3117,-10.2787,-10.2488,-10.2488,-10.2488,-10.2488,-10.2488,-10.2488,-10.2488,-10.2189,-10.171,-10.1052,-9.9975,-9.9137,-10.6088,-10.5411,-10.4599,-10.6392,-10.6088,-10.5411,-10.5986,-10.5682,-10.5208,-10.5005,-10.4971,0.0,0.0,0.0,-10.3889,-10.3889,0.0,-10.2806,-10.2806,-10.2603,-10.2705,-10.3212,-10.2806,-10.1885,-10.039,-10.0485,-10.0026,-9.8319,-9.9486,-9.9214,-9.687,-9.6049,-9.4726,-9.2806,-9.2021,-9.0997,-8.9681,-9.013,-8.9711,-8.8424,-8.8903,-8.9142,-8.9142,-8.9322,-8.9771,-9.0369,-9.0549,-9.0638,-9.0728,-9.2075,-9.2613,-9.2733,-9.408,-9.4618,-9.4618,-9.4828,-9.4888,-9.4947,-9.5426,-9.5486,-9.5366,-9.5546,-9.6025,-9.6563,-9.6563,-9.8419,-10.0483,-10.0483,-10.1471,-10.2488,-10.2488,-10.2488,-10.2488,-10.2488,-10.2488,-10.2698,-10.3296,-10.3416,-10.3835,-10.5151,-10.5032,-10.5002,-10.5989,-10.56,-10.4732,-10.3506,-10.3506,-10.3715,-10.3715,-10.3117,-10.3176,-10.4284,-10.4224,-10.4403,-10.5091,-10.5331,-10.5211,-10.4702,-10.3625,-10.2907,-10.2787,-10.2728,-10.2698,-10.2488,-10.2488,-10.2488,-10.2488,-10.2488,-10.2159,-10.1471,-10.0304,-9.9526,-10.5411,-10.5817,-10.5919,-10.6697,-10.69,-10.6798,-10.69,-10.6798,-10.6595,-10.5919,-10.5783,-10.5513,-10.4802,-10.4667,-10.4667,-10.4667,-10.399,0.0,0.0,-10.2976,-10.2502,-10.2502,-10.2502,-10.1684,-9.9767,-10.1922,-10.1817,-9.7817,-9.9994,-10.0928,-9.9534,-9.698,-9.5556,-9.5525,-9.3001,-9.0997,-8.9681,-8.9681,-8.9052,-8.7736,-8.7766,-8.7766,-8.7796,-8.8424,-8.9082,-8.9741,-9.0369,-9.0638,-9.0728,-9.2075,-9.2613,-9.2733,-9.408,-9.4618,-9.4678,-9.5336,-9.5546,-9.5576,-9.5576,-9.5187,-9.4738,-9.5396,-9.6025,-9.6563,-9.6563,-9.8419,-10.0483,-10.0483,-10.1471,-10.2488,-10.2488,-10.2488,-10.2488,-10.2488,-10.2488,-10.2698,-10.3296,-10.3416,-10.3835,-10.5151,-10.5421,-10.5421,-10.5451,-10.4912,-10.4613,-10.5241,-10.4792,-10.4373,-10.4373,-10.3805,-10.3625,-10.4313,-10.3835,-10.3715,-10.4403,-10.5032,-10.5421,-10.5421,-10.4732,-10.4014,-10.3416,-10.3416,-10.3117,-10.2488,-10.2488,-10.2488,-10.2488,-10.2488,-10.2159,-10.1471,-10.0782,-10.0483,-10.5411,-10.5411,-10.5377,-10.6595,-10.69,-10.69,-10.69,-10.69,-10.7001,-10.7204,-10.69,-10.6595,-10.6832,-10.6088,-10.5276,-10.4769,-10.4092,-10.3415,0.0,-10.2705,-10.2502,-10.2502,-10.2502,-10.2175,-10.1585,-10.2818,-10.2789,-10.0916,-10.259,-10.2878,-10.1033,-10.0497,-9.9126,-9.6479,-9.5054,-9.3209,-9.0968,-9.0519,-8.9651,-8.8364,-8.8364,-8.8125,-8.7736,-8.8394,-8.9052,-8.9711,-9.0369,-9.0638,-9.0728,-9.2075,-9.2613,-9.2733,-9.408,-9.4618,-9.4648,-9.4858,-9.4947,-9.5007,-9.5456,-9.5456,-9.5306,-9.5516,-9.6025,-9.6563,-9.6563,-9.8419,-10.0483,-10.0483,-10.1471,-10.2488,-10.2488,-10.2488,-10.2488,-10.2488,-10.2488,-10.2698,-10.3296,-10.3745,-10.4313,-10.5241,-10.581,-10.6109,-10.6109,-10.5899,-10.551,-10.4822,-10.4523,-10.4583,-10.5032,-10.4104,-10.3685,-10.4313,-10.4613,-10.4643,-10.4403,-10.5032,-10.5421,-10.5421,-10.4792,-10.4313,-10.4104,-10.3625,-10.3326,-10.3117,-10.2698,-10.2488,-10.2488,-10.2488,-10.2398,-10.2099,-10.1471,-10.0902,-10.4701,-10.4701,-10.4667,-10.6122,-10.6494,-10.6595,-10.6798,-10.69,-10.7001,-10.7509,-10.7407,-10.7407,-10.761,-10.6798,-10.5919,-10.5208,-10.4295,-10.3314,0.0,-10.2502,-10.2502,-10.2502,-10.2502,-10.2502,-10.2502,-10.2908,-10.3009,-10.2502,-10.3382,-10.3395,-10.2415,-10.1576,-9.9968,-9.753,-9.5562,-9.3635,-9.1626,-9.0968,-8.998,-8.8693,-8.8933,-8.8574,-8.7736,-8.8634,-8.9262,-8.9711,-9.0369,-9.0638,-9.0728,-9.1805,-9.2374,-9.2703,-9.381,-9.4379,-9.4648,-9.4858,-9.5097,-9.5366,-9.5785,-9.5935,-9.5935,-9.5935,-9.6384,-9.6892,-9.6892,-9.8568,-10.0483,-10.0483,-10.1471,-10.2488,-10.2488,-10.2488,-10.2488,-10.2488,-10.2698,-10.2997,-10.3625,-10.4313,-10.5002,-10.563,-10.6109,-10.6408,-10.6408,-10.6408,-10.6109,-10.5211,-10.5091,-10.5301,-10.572,-10.4822,-10.4403,-10.5032,-10.5091,-10.5002,-10.4792,-10.5391,-10.581,-10.581,-10.5391,-10.5002,-10.4792,-10.4343,-10.4912,-10.6528,-10.4104,-10.3895,-10.5989,-10.3595,-10.2608,-10.2817,-10.2159,-10.159]},{"header":{"parameterUnit":"m.s-1","parameterCategory":1,"la1":30.6,"la2":29.2853,"lo1":-89.7004,"lo2":-87.6739,"dy":0.0162,"dx":0.0183,"nx":112,"ny":82,"refTime":"2024-03-25T12:00:00:Z","depth":0,"parameterNumber":3,"parameterNumberName":"V-component_of_WINDS"},"data":[0.0,0.0,0.0,0.0,0.0,0.0,0.0,0.0,0.0,0.0,0.0,0.0,0.0,0.0,0.0,0.0,0.0,0.0,0.0,0.0,0.0,0.0,0.0,0.0,0.0,0.0,0.0,0.0,0.0,0.0,0.0,0.0,0.0,0.0,0.0,0.0,0.0,0.0,0.0,0.0,0.0,0.0,0.0,0.0,0.0,0.0,0.0,0.0,0.0,0.0,0.0,0.0,0.0,0.0,0.0,0.0,0.0,0.0,0.0,0.0,0.0,0.0,0.0,0.0,0.0,0.0,0.0,0.0,0.0,0.0,0.0,0.0,0.0,0.0,0.0,0.0,0.0,0.0,0.0,0.0,0.0,0.0,0.0,0.0,0.0,0.0,0.0,0.0,0.0,0.0,10.0912,10.2333,10.2603,10.2705,10.2705,10.2502,10.2096,10.1589,0.0,0.0,0.0,0.0,0.0,0.0,0.0,0.0,0.0,0.0,0.0,0.0,0.0,0.0,0.0,0.0,0.0,0.0,0.0,0.0,0.0,0.0,0.0,0.0,0.0,0.0,0.0,0.0,0.0,0.0,0.0,0.0,0.0,0.0,0.0,0.0,0.0,0.0,0.0,0.0,0.0,0.0,0.0,0.0,0.0,0.0,0.0,0.0,0.0,0.0,0.0,0.0,0.0,0.0,0.0,0.0,0.0,0.0,0.0,0.0,0.0,0.0,0.0,0.0,0.0,0.0,0.0,0.0,0.0,0.0,0.0,0.0,0.0,0.0,0.0,0.0,0.0,0.0,0.0,0.0,0.0,0.0,0.0,0.0,0.0,0.0,0.0,0.0,0.0,0.0,0.0,0.0,0.0,0.0,0.0,0.0,0.0,0.0,0.0,0.0,0.0,0.0,0.0,0.0,10.1487,10.2401,10.3077,10.3415,10.3415,10.2299,10.1792,10.2299,0.0,0.0,0.0,0.0,0.0,0.0,0.0,0.0,0.0,0.0,0.0,0.0,0.0,0.0,0.0,0.0,0.0,0.0,0.0,0.0,0.0,0.0,0.0,0.0,0.0,0.0,0.0,0.0,0.0,0.0,0.0,0.0,0.0,0.0,0.0,0.0,0.0,0.0,0.0,0.0,0.0,0.0,0.0,0.0,0.0,0.0,0.0,0.0,0.0,0.0,0.0,0.0,0.0,0.0,0.0,0.0,0.0,0.0,0.0,0.0,0.0,0.0,0.0,0.0,0.0,0.0,0.0,0.0,0.0,0.0,0.0,0.0,0.0,0.0,0.0,0.0,0.0,0.0,0.0,0.0,0.0,0.0,0.0,0.0,0.0,0.0,0.0,0.0,0.0,0.0,0.0,0.0,0.0,0.0,0.0,0.0,0.0,0.0,0.0,0.0,0.0,0.0,0.0,10.1788,10.328,10.3686,10.3618,10.3787,10.4193,10.2468,10.1893,10.3009,10.2705,0.0,0.0,0.0,0.0,0.0,0.0,0.0,0.0,0.0,0.0,0.0,0.0,0.0,0.0,0.0,0.0,0.0,0.0,0.0,0.0,0.0,0.0,0.0,0.0,0.0,0.0,0.0,0.0,0.0,0.0,0.0,0.0,0.0,0.0,0.0,0.0,0.0,0.0,0.0,0.0,0.0,0.0,0.0,0.0,0.0,0.0,0.0,0.0,0.0,0.0,0.0,0.0,0.0,0.0,0.0,0.0,0.0,0.0,0.0,0.0,0.0,0.0,0.0,0.0,0.0,0.0,0.0,0.0,0.0,0.0,0.0,0.0,0.0,0.0,0.0,0.0,0.0,0.0,0.0,0.0,0.0,0.0,0.0,0.0,0.0,0.0,0.0,0.0,0.0,0.0,0.0,0.0,0.0,0.0,0.0,0.0,0.0,0.0,0.0,0.0,0.0,0.0,10.399,10.4769,10.4904,10.4295,10.4092,10.4733,10.2806,10.2198,10.3483,10.3077,0.0,0.0,0.0,0.0,0.0,0.0,0.0,0.0,0.0,0.0,0.0,0.0,0.0,0.0,0.0,0.0,0.0,0.0,0.0,0.0,0.0,0.0,0.0,0.0,0.0,0.0,0.0,0.0,0.0,0.0,0.0,0.0,0.0,0.0,0.0,0.0,0.0,0.0,0.0,0.0,0.0,0.0,0.0,0.0,0.0,0.0,0.0,0.0,0.0,0.0,0.0,0.0,0.0,0.0,0.0,0.0,0.0,0.0,0.0,0.0,0.0,0.0,0.0,0.0,0.0,0.0,0.0,0.0,0.0,0.0,0.0,0.0,0.0,0.0,0.0,0.0,0.0,0.0,0.0,0.0,0.0,0.0,0.0,0.0,0.0,0.0,0.0,0.0,0.0,0.0,0.0,0.0,0.0,0.0,0.0,0.0,0.0,0.0,0.0,0.0,0.0,0.0,10.4599,10.4971,10.5614,10.5073,10.4599,10.4667,10.328,10.2806,10.3585,10.3585,0.0,0.0,0.0,0.0,0.0,0.0,0.0,0.0,0.0,0.0,0.0,0.0,0.0,0.0,0.0,0.0,0.0,0.0,0.0,0.0,0.0,0.0,0.0,0.0,0.0,0.0,0.0,0.0,0.0,0.0,0.0,0.0,0.0,0.0,0.0,0.0,0.0,0.0,0.0,0.0,0.0,0.0,0.0,0.0,0.0,0.0,0.0,0.0,0.0,0.0,0.0,0.0,0.0,0.0,0.0,0.0,0.0,0.0,0.0,0.0,0.0,0.0,0.0,0.0,0.0,0.0,0.0,0.0,0.0,0.0,0.0,0.0,0.0,0.0,0.0,0.0,0.0,0.0,0.0,0.0,0.0,0.0,0.0,0.0,0.0,0.0,0.0,0.0,0.0,0.0,0.0,0.0,0.0,0.0,0.0,0.0,0.0,0.0,0.0,0.0,0.0,0.0,10.5377,10.5479,10.5783,10.558,10.5208,10.4701,10.3787,10.3483,10.4193,0.0,0.0,0.0,0.0,0.0,0.0,0.0,0.0,0.0,0.0,0.0,0.0,0.0,0.0,0.0,0.0,0.0,0.0,0.0,0.0,0.0,0.0,0.0,0.0,0.0,0.0,0.0,0.0,0.0,0.0,0.0,0.0,0.0,0.0,0.0,0.0,0.0,0.0,0.0,0.0,0.0,0.0,0.0,0.0,0.0,0.0,0.0,0.0,0.0,0.0,0.0,0.0,0.0,0.0,0.0,0.0,0.0,0.0,0.0,0.0,0.0,0.0,0.0,0.0,0.0,0.0,0.0,0.0,0.0,0.0,0.0,0.0,0.0,0.0,0.0,0.0,0.0,0.0,0.0,0.0,0.0,0.0,0.0,0.0,0.0,0.0,0.0,0.0,0.0,0.0,0.0,0.0,0.0,0.0,0.0,0.0,0.0,0.0,0.0,0.0,0.0,0.0,10.5818,10.5716,10.5614,10.6088,10.5919,10.5513,10.4769,10.399,10.3889,10.4733,0.0,0.0,0.0,0.0,0.0,0.0,0.0,0.0,0.0,0.0,0.0,0.0,0.0,0.0,0.0,0.0,0.0,0.0,0.0,0.0,0.0,0.0,0.0,0.0,0.0,0.0,0.0,0.0,0.0,0.0,0.0,0.0,0.0,0.0,0.0,0.0,0.0,0.0,0.0,0.0,0.0,0.0,0.0,0.0,0.0,0.0,0.0,0.0,0.0,0.0,0.0,0.0,0.0,0.0,0.0,0.0,0.0,0.0,0.0,0.0,0.0,0.0,0.0,0.0,0.0,0.0,0.0,0.0,0.0,0.0,0.0,0.0,0.0,0.0,0.0,0.0,0.0,0.0,0.0,0.0,0.0,0.0,0.0,0.0,0.0,0.0,0.0,0.0,0.0,0.0,0.0,0.0,0.0,0.0,0.0,0.0,0.0,0.0,0.0,0.0,0.0,0.0,10.6292,10.558,10.5276,10.6697,10.6291,10.5513,10.4769,10.399,10.3889,0.0,0.0,0.0,0.0,0.0,0.0,0.0,0.0,0.0,0.0,0.0,0.0,0.0,0.0,0.0,0.0,0.0,0.0,0.0,0.0,0.0,0.0,0.0,0.0,0.0,0.0,0.0,0.0,0.0,0.0,0.0,0.0,0.0,0.0,0.0,0.0,0.0,0.0,0.0,0.0,0.0,0.0,0.0,0.0,0.0,0.0,0.0,0.0,0.0,0.0,0.0,0.0,0.0,0.0,0.0,0.0,0.0,0.0,0.0,0.0,0.0,0.0,0.0,0.0,0.0,0.0,0.0,0.0,0.0,0.0,0.0,0.0,0.0,0.0,0.0,0.0,0.0,0.0,0.0,0.0,0.0,0.0,0.0,0.0,0.0,0.0,0.0,0.0,0.0,0.0,0.0,0.0,0.0,0.0,0.0,0.0,0.0,0.0,0.0,0.0,0.0,0.0,0.0,10.6393,10.6088,10.5817,10.6798,10.7204,10.6832,10.558,10.4802,10.4667,10.5411,0.0,0.0,0.0,0.0,0.0,0.0,0.0,0.0,0.0,0.0,0.0,0.0,0.0,0.0,0.0,0.0,0.0,0.0,0.0,0.0,0.0,0.0,0.0,0.0,0.0,0.0,0.0,0.0,0.0,0.0,0.0,0.0,0.0,0.0,0.0,0.0,0.0,0.0,0.0,0.0,0.0,0.0,0.0,0.0,0.0,0.0,0.0,0.0,0.0,0.0,0.0,0.0,0.0,0.0,0.0,0.0,0.0,0.0,0.0,0.0,0.0,0.0,0.0,0.0,0.0,0.0,0.0,0.0,0.0,0.0,0.0,0.0,0.0,0.0,0.0,0.0,0.0,0.0,0.0,0.0,0.0,0.0,0.0,0.0,0.0,0.0,0.0,0.0,0.0,0.0,0.0,0.0,0.0,0.0,0.0,0.0,0.0,0.0,0.0,0.0,0.0,0.0,10.6494,10.6291,10.6223,10.7204,10.7712,10.7509,10.6325,10.5276,10.487,10.531,0.0,0.0,0.0,0.0,0.0,0.0,0.0,0.0,0.0,0.0,0.0,0.0,0.0,0.0,0.0,0.0,0.0,0.0,0.0,0.0,0.0,0.0,0.0,0.0,0.0,0.0,0.0,0.0,0.0,0.0,0.0,0.0,0.0,0.0,0.0,0.0,0.0,0.0,0.0,0.0,0.0,0.0,0.0,0.0,0.0,0.0,0.0,0.0,0.0,0.0,0.0,0.0,0.0,0.0,0.0,0.0,0.0,0.0,0.0,0.0,0.0,0.0,0.0,0.0,0.0,0.0,0.0,0.0,0.0,0.0,0.0,0.0,0.0,0.0,0.0,0.0,0.0,0.0,0.0,0.0,0.0,0.0,0.0,0.0,0.0,0.0,0.0,0.0,0.0,0.0,0.0,0.0,0.0,0.0,0.0,0.0,0.0,0.0,0.0,0.0,0.0,0.0,10.6494,10.6291,10.6392,10.7847,10.8118,10.7813,10.7069,10.5682,10.487,10.4769,0.0,0.0,0.0,0.0,0.0,0.0,0.0,0.0,0.0,0.0,0.0,0.0,0.0,0.0,0.0,0.0,0.0,0.0,0.0,0.0,0.0,0.0,0.0,0.0,0.0,0.0,0.0,0.0,0.0,0.0,0.0,0.0,0.0,0.0,0.0,0.0,0.0,0.0,0.0,0.0,0.0,0.0,0.0,0.0,0.0,0.0,0.0,0.0,0.0,0.0,0.0,0.0,0.0,0.0,0.0,0.0,0.0,0.0,0.0,0.0,8.9828,8.9828,0.0,0.0,0.0,0.0,0.0,0.0,0.0,0.0,0.0,0.0,0.0,0.0,0.0,0.0,0.0,0.0,0.0,0.0,0.0,0.0,0.0,0.0,0.0,0.0,0.0,0.0,0.0,0.0,0.0,0.0,0.0,0.0,0.0,0.0,0.0,0.0,0.0,0.0,0.0,0.0,10.6494,10.6291,10.6392,10.7847,10.8591,10.8591,10.7813,10.69,10.6189,10.5614,10.5005,0.0,0.0,0.0,0.0,0.0,0.0,0.0,0.0,0.0,0.0,0.0,0.0,0.0,0.0,0.0,0.0,0.0,0.0,0.0,0.0,0.0,0.0,0.0,0.0,0.0,0.0,0.0,0.0,0.0,0.0,0.0,0.0,0.0,0.0,0.0,0.0,0.0,0.0,0.0,0.0,0.0,0.0,0.0,0.0,0.0,0.0,0.0,0.0,0.0,0.0,0.0,0.0,0.0,0.0,0.0,0.0,0.0,0.0,0.0,9.0638,9.0459,0.0,0.0,0.0,0.0,0.0,0.0,0.0,0.0,0.0,0.0,0.0,0.0,0.0,0.0,0.0,0.0,0.0,0.0,0.0,0.0,0.0,0.0,0.0,0.0,0.0,0.0,0.0,0.0,0.0,0.0,0.0,0.0,0.0,0.0,0.0,0.0,0.0,0.0,0.0,0.0,10.6595,10.6291,10.6392,10.7847,10.8388,10.849,10.8016,10.7001,10.6088,10.531,10.487,0.0,0.0,0.0,0.0,0.0,0.0,0.0,0.0,0.0,0.0,0.0,0.0,0.0,0.0,0.0,0.0,0.0,0.0,0.0,0.0,0.0,0.0,0.0,0.0,0.0,0.0,0.0,0.0,0.0,0.0,0.0,0.0,0.0,0.0,0.0,0.0,0.0,0.0,0.0,0.0,0.0,0.0,0.0,0.0,0.0,0.0,0.0,0.0,0.0,0.0,0.0,0.0,0.0,8.9561,8.983,9.0459,9.0459,9.0519,9.0638,9.0638,9.0279,8.9711,9.0249,0.0,0.0,0.0,0.0,0.0,0.0,0.0,0.0,0.0,0.0,0.0,0.0,0.0,0.0,0.0,0.0,0.0,0.0,0.0,0.0,0.0,0.0,10.3382,10.4092,10.3889,10.2524,9.9115,0.0,0.0,0.0,0.0,0.0,0.0,0.0,0.0,0.0,0.0,0.0,10.6291,10.5986,10.6189,10.7712,10.7915,10.8016,10.8016,10.69,10.5783,10.4769,10.4667,10.4092,0.0,0.0,0.0,0.0,0.0,0.0,0.0,0.0,0.0,0.0,0.0,0.0,0.0,0.0,0.0,0.0,0.0,0.0,0.0,0.0,0.0,0.0,0.0,0.0,0.0,0.0,0.0,0.0,0.0,0.0,0.0,0.0,9.1894,9.0006,0.0,0.0,0.0,0.0,0.0,0.0,0.0,0.0,0.0,0.0,0.0,0.0,0.0,9.0459,9.0369,8.983,8.9591,8.9651,8.9082,8.9172,8.9801,8.9801,9.01,9.0638,9.0638,0.0,8.9681,8.9771,0.0,0.0,0.0,0.0,0.0,0.0,0.0,0.0,0.0,0.0,0.0,0.0,0.0,0.0,0.0,0.0,0.0,0.0,0.0,0.0,0.0,0.0,10.1893,10.2603,10.2705,10.2508,10.2017,10.2288,10.2523,10.1785,10.1079,10.1109,0.0,0.0,0.0,0.0,0.0,0.0,10.4971,10.487,10.5377,10.69,10.761,10.8016,10.8016,10.7813,10.6832,10.4802,10.4667,10.4295,10.3483,10.3483,0.0,0.0,0.0,0.0,0.0,0.0,0.0,0.0,0.0,0.0,0.0,0.0,0.0,0.0,0.0,0.0,0.0,0.0,0.0,0.0,0.0,0.0,0.0,0.0,0.0,0.0,0.0,0.0,0.0,9.3366,9.4748,9.3218,9.4307,9.4888,0.0,0.0,0.0,0.0,0.0,0.0,0.0,0.0,0.0,9.01,9.01,8.992,8.9561,8.9262,8.9292,8.9681,8.9382,8.9591,9.0219,9.0219,9.0369,9.0638,9.0638,9.0279,8.9681,8.9681,8.9441,8.9275,0.0,0.0,0.0,0.0,9.3256,9.3457,9.3323,9.3267,9.3267,9.3651,0.0,0.0,0.0,0.0,0.0,0.0,0.0,10.0912,10.169,10.1318,10.0811,10.1115,10.1216,10.1216,10.1216,10.1487,10.1825,10.2401,10.2198,10.2401,10.3415,10.3585,0.0,0.0,0.0,10.4193,10.4599,10.4295,10.4599,10.6122,10.6595,10.6934,10.7306,10.7407,10.6798,10.5377,10.531,10.5005,10.4193,10.4193,10.4498,0.0,0.0,0.0,0.0,0.0,0.0,0.0,0.0,0.0,0.0,0.0,0.0,0.0,0.0,0.0,0.0,0.0,0.0,0.0,0.0,0.0,0.0,0.0,0.0,0.0,0.0,0.0,0.0,9.5396,9.5755,9.5606,9.5277,9.4888,0.0,0.0,0.0,0.0,0.0,0.0,9.1895,9.1416,9.0848,9.019,9.001,8.9681,8.9202,8.9172,8.9441,8.992,8.992,9.016,9.0638,9.0638,9.0638,9.0638,9.0638,9.0369,8.989,8.9741,8.9382,8.9065,9.0283,9.1191,9.1916,9.3236,9.4225,9.4684,9.4372,9.406,9.3865,9.4157,9.354,9.2858,9.3825,0.0,0.0,0.0,0.0,10.0303,10.0675,10.0405,9.9999,10.0202,10.0235,10.0235,10.0235,10.0405,10.0811,10.1724,10.1927,10.2198,10.3179,10.3483,0.0,10.4295,10.4092,10.3889,10.4092,10.3787,10.399,10.5107,10.5411,10.5716,10.6291,10.6291,10.5986,10.531,10.5208,10.5005,10.4396,10.4193,10.4295,10.4667,0.0,0.0,0.0,0.0,0.0,0.0,0.0,0.0,0.0,0.0,0.0,0.0,0.0,0.0,0.0,0.0,0.0,0.0,0.0,0.0,0.0,0.0,0.0,0.0,0.0,0.0,0.0,0.0,0.0,9.5426,9.4469,0.0,0.0,0.0,0.0,9.2613,9.3152,9.3212,9.2583,9.2524,9.2194,9.1536,9.0908,9.0579,9.0549,9.0549,9.0549,9.0579,9.0579,9.0608,9.0638,9.0638,9.0638,9.0638,9.0638,9.0608,9.0549,8.992,8.9651,8.9643,8.9065,9.0301,9.2474,9.2348,9.3905,9.6133,9.6587,9.7148,9.762,9.6945,9.6675,9.6608,9.6675,9.8256,0.0,0.0,9.9694,10.0032,9.939,9.9187,9.9322,10.0032,10.0235,10.0235,10.0235,10.0811,10.1115,10.0438,10.0337,10.0811,10.2299,0.0,10.3585,10.3618,10.4193,10.416,10.2806,10.3212,10.3618,10.3686,10.4295,10.4769,10.4769,10.4769,10.4498,10.3787,10.3686,10.3686,10.3686,10.3009,10.328,10.4667,10.399,0.0,0.0,0.0,0.0,0.0,0.0,0.0,0.0,0.0,0.0,0.0,0.0,0.0,0.0,0.0,0.0,0.0,0.0,0.0,0.0,0.0,0.0,0.0,0.0,0.0,0.0,0.0,0.0,9.6055,9.5426,0.0,9.4888,9.4289,9.3541,9.2673,9.2823,9.2853,9.2613,9.2613,9.2494,9.2254,9.2015,9.1686,9.1267,9.1267,9.1057,9.0638,9.0638,9.0638,9.0638,9.0638,9.0638,9.0638,9.0638,9.0638,9.0608,9.0399,9.004,8.9755,9.0259,9.079,9.1326,9.2516,9.2955,9.3342,9.4648,9.5026,9.4949,9.5366,9.5466,9.5466,9.5466,9.6379,9.7529,9.8206,9.8578,9.8848,9.9051,9.8747,9.8341,9.8138,9.807,9.807,9.807,9.8273,9.8544,9.8747,10.0405,10.1724,10.1792,10.2401,10.2908,10.2908,10.3111,10.3111,10.2603,10.2705,10.3077,10.3517,10.3787,10.4193,10.4667,10.4667,10.4566,10.4295,10.4295,10.4295,10.4295,10.3585,10.3483,10.399,10.328,10.3009,0.0,0.0,0.0,0.0,0.0,0.0,0.0,0.0,0.0,0.0,0.0,0.0,0.0,0.0,0.0,0.0,0.0,0.0,0.0,0.0,0.0,0.0,0.0,0.0,0.0,9.4618,9.5187,9.6713,9.6324,9.5935,9.5935,9.5336,9.4558,9.3691,9.3601,9.3691,9.393,9.3511,9.3272,9.3272,9.2853,9.2284,9.1626,9.1626,9.1297,9.0638,9.0638,9.0638,9.0638,9.0638,9.0638,9.0638,9.0638,9.0638,9.0638,9.0638,9.0369,9.0085,9.0673,9.0974,9.125,9.2069,9.2224,9.2141,9.2958,9.3007,9.2865,9.3568,9.4032,9.4383,9.462,9.5398,9.6345,9.736,9.8003,9.8442,9.8679,9.8375,9.78,9.7056,9.6886,9.6886,9.6886,9.6683,9.6751,9.7495,9.9627,10.1216,10.0675,10.1487,10.2198,10.2502,10.2502,10.2603,10.2806,10.2705,10.2705,10.3179,10.3212,10.3415,10.3889,10.4193,10.4193,10.399,10.4193,10.4295,10.4295,10.3889,10.3686,10.399,10.3009,10.2603,10.2874,0.0,0.0,0.0,0.0,0.0,0.0,0.0,0.0,0.0,0.0,0.0,0.0,0.0,0.0,0.0,0.0,0.0,0.0,0.0,0.0,0.0,0.0,0.0,9.4289,9.4588,9.5336,9.7252,9.7012,9.6653,9.6653,9.6084,9.5695,9.5666,9.5666,9.5905,9.6533,9.5336,9.4648,9.4648,9.3361,9.2344,9.1686,9.1686,9.1327,9.0668,9.0668,9.0668,9.0638,9.0638,9.0638,9.0638,9.0638,9.0638,9.0638,9.0638,9.0638,9.0579,8.995,9.0859,9.218,9.0897,9.1584,9.294,9.1706,9.1488,9.1916,9.1916,9.2681,9.3647,9.4451,9.5702,9.6853,9.6853,9.7901,9.8848,9.8172,9.7969,9.7766,9.7022,9.6819,9.6819,9.6819,9.6244,9.5973,9.6717,9.8037,9.9018,9.9018,10.0303,10.1589,10.2299,10.2434,0.0,10.3483,10.2908,10.2502,10.2502,10.2502,10.2502,10.2502,10.3212,10.328,10.2536,10.3111,10.3517,10.3517,10.3517,10.3889,10.4566,10.328,10.2198,10.1386,0.0,0.0,0.0,0.0,0.0,0.0,0.0,0.0,0.0,0.0,0.0,0.0,0.0,0.0,0.0,0.0,0.0,0.0,0.0,0.0,0.0,9.2554,9.2703,9.3721,9.4289,9.5336,9.7252,9.8209,9.8688,9.8688,9.8538,9.803,9.7042,9.6982,9.6862,9.6593,9.5785,9.5336,9.5336,9.4499,9.3721,9.3062,9.3032,9.2464,9.1357,9.1357,9.1087,9.0638,9.0638,9.0638,9.0638,9.0638,9.0638,9.0638,9.0638,9.0638,9.0608,9.0429,9.0068,8.9701,8.9338,8.9099,8.8806,8.7534,8.8042,8.9476,9.0777,9.1375,9.193,9.3418,9.4924,9.6074,9.6074,9.6785,9.7563,9.7901,9.7225,9.6345,9.6142,9.5702,9.5296,9.5296,9.5161,9.5229,9.5939,9.6853,9.7495,9.7495,9.9187,10.0608,10.0811,10.1318,10.1995,10.2705,10.2603,10.2705,10.3212,10.3314,10.3314,10.3314,10.3483,10.328,10.2536,10.2198,10.1995,10.1995,10.1995,10.2367,10.3111,10.3212,10.2671,0.0,0.0,0.0,0.0,0.0,0.0,0.0,0.0,0.0,0.0,0.0,0.0,0.0,0.0,0.0,0.0,0.0,0.0,0.0,0.0,0.0,0.0,9.2434,9.3122,9.4618,9.5187,9.6055,9.773,9.9346,10.0214,9.9945,10.0184,10.0004,9.9226,9.8897,9.8598,9.8239,9.7311,9.6563,9.6025,9.5366,9.4558,9.3601,9.3302,9.2643,9.1626,9.1327,9.0997,9.0638,9.0638,9.0638,9.0638,9.0638,9.0638,9.0638,9.0638,9.0638,9.0638,0.0,0.0,0.0,0.0,8.7398,8.6195,8.5432,8.5853,8.6854,8.8225,8.948,9.075,9.2076,9.4012,9.5804,9.5804,9.6311,9.6988,9.7428,9.6683,9.5521,9.4445,9.3886,9.3339,9.2586,9.2195,9.2417,9.393,9.4556,0.0,9.6224,9.8273,9.9965,10.0608,10.1081,10.1792,10.2806,10.2705,10.2705,10.3111,10.3111,10.3111,10.3111,10.3415,0.0,0.0,0.0,10.2299,10.2299,10.2299,0.0,0.0,0.0,10.2874,10.1386,10.2265,0.0,0.0,10.1081,10.1386,0.0,0.0,0.0,0.0,0.0,0.0,0.0,0.0,0.0,0.0,0.0,0.0,0.0,0.0,0.0,0.0,9.2404,9.378,9.6234,9.6833,9.7461,9.8718,10.0483,10.1351,10.0782,10.1261,10.1561,10.1471,10.0872,10.0483,10.0483,9.9167,0.0,0.0,0.0,9.4977,9.3721,9.3122,9.2464,9.1716,9.1147,9.0788,9.0638,9.0638,9.0638,9.0638,9.0638,9.0638,9.0638,9.0638,9.0638,9.0638,9.0489,9.007,8.9382,8.8005,8.6299,8.4714,8.4624,0.0,0.0,8.5245,8.7299,8.9532,9.0348,9.2675,9.5054,9.5054,9.5525,9.6092,9.6378,9.5865,9.4724,9.2496,9.1947,9.1368,8.9588,8.867,8.8883,9.114,9.1819,9.2722,9.5116,9.7338,9.939,10.098,10.1284,10.1792,10.328,10.2908,10.2502,10.2603,10.2603,0.0,10.2603,10.3212,10.328,10.2536,10.3009,10.3382,10.3382,10.3382,10.3382,10.3483,10.3483,10.2806,10.1386,10.1487,10.1487,10.1386,10.2705,10.2705,0.0,0.0,0.0,0.0,0.0,0.0,0.0,0.0,0.0,0.0,0.0,0.0,0.0,0.0,0.0,9.2404,9.387,9.5366,9.6414,9.8389,10.0004,10.0782,10.171,10.2279,10.2099,10.2219,10.2069,10.1471,10.0872,10.0483,10.0483,9.8718,9.7581,9.7311,9.6204,9.5217,9.4409,9.4289,9.3601,9.2404,9.2284,0.0,9.0638,9.0638,9.0638,9.0638,9.0638,9.0638,9.0638,9.0638,9.0638,9.0549,8.9471,8.8993,8.8663,8.6778,8.5492,8.4624,8.4115,8.3535,8.3429,8.4968,8.5876,8.6661,8.8257,8.9569,0.0,9.0546,9.0611,9.1269,9.3296,9.2821,9.1897,9.1978,9.1584,9.0614,8.8782,8.8283,8.8353,8.8816,9.0587,9.2308,9.3451,9.5652,9.8037,10.01,10.0438,10.1014,10.2502,10.2603,10.2705,10.3314,10.3382,10.3382,10.3382,10.3517,10.328,10.2536,10.2096,10.1792,10.1792,10.1792,10.2096,10.2705,10.2705,10.2299,10.1386,10.1995,10.1995,10.1386,10.169,10.1995,0.0,0.0,0.0,0.0,0.0,0.0,0.0,0.0,0.0,0.0,0.0,9.0624,9.1821,0.0,9.2703,9.3032,9.4768,9.6533,9.785,9.9735,10.1082,10.1534,10.2069,10.2488,10.2488,10.2488,10.2368,10.1979,10.168,10.1381,10.0992,9.9705,9.8688,9.803,9.6743,9.5755,9.5097,9.4439,9.375,9.3092,9.2434,9.1776,9.1117,9.0788,9.0638,9.0638,9.0638,9.0638,9.0638,9.0638,9.0638,9.0519,8.9202,8.8693,8.8484,8.6808,8.5551,8.4654,8.4325,8.3367,8.2545,8.3756,8.4525,8.525,8.6477,8.8238,8.9823,8.9823,9.0011,9.0537,9.1809,9.1038,8.9866,8.9318,8.8699,8.7713,8.5868,8.5471,8.5757,8.6711,8.8116,9.0045,9.2645,9.3629,9.5437,9.9611,10.0235,10.0811,10.2299,10.2502,10.2603,10.3009,10.3009,10.3009,10.3009,10.2705,10.2299,10.1995,10.1589,10.1386,10.1386,10.1792,10.2096,10.2502,10.2502,10.2299,10.1995,10.2299,10.2299,10.1995,10.1995,10.213,0.0,0.0,0.0,0.0,0.0,0.0,0.0,8.6864,8.9148,8.9148,9.0828,9.2135,9.1865,9.2464,9.3152,9.3691,9.5576,9.7342,9.8558,10.0326,10.1285,10.0907,10.1818,10.2488,10.2488,10.2488,10.2488,10.2488,10.2368,10.2099,10.168,10.0782,9.9795,9.8748,9.7311,9.6264,9.5606,9.4379,9.3721,9.3571,9.2374,9.1746,9.1596,9.0938,9.0638,9.0638,9.0638,9.0638,9.0638,9.0638,9.0638,9.0519,8.9352,8.8783,8.8514,8.7167,8.5851,8.4714,8.4714,8.3517,8.205,8.2589,8.3439,8.4249,8.4773,8.6883,8.9031,8.9031,8.9434,9.0011,9.0365,8.9515,8.8246,8.672,8.5967,8.503,8.3161,8.2844,8.3236,8.4667,8.5648,8.7497,9.1393,9.147,9.2975,9.8773,9.9659,10.0198,10.1712,10.2308,10.2502,10.2502,10.2502,10.2401,10.2299,10.1589,10.1183,10.1183,10.1183,10.1183,10.1183,10.1893,10.2299,10.2299,10.2401,10.2502,10.2502,10.2502,10.2502,10.2502,10.2502,10.2401,7.7335,7.6456,7.5786,7.8315,8.0998,8.3447,0.0,8.7882,9.0401,9.0401,9.0598,9.1177,9.2284,9.3541,9.4409,9.4499,9.6653,9.7692,9.6079,9.912,10.0749,9.8863,10.0861,10.2488,10.2488,10.2488,10.2488,10.2488,10.189,10.18,10.2368,10.0603,9.9556,9.9406,9.7551,9.6264,9.5606,9.4858,9.4199,9.3571,9.2853,9.2194,9.1596,9.0938,9.0638,9.0638,9.0638,9.0638,9.0638,9.0638,9.0638,9.0549,8.983,8.9202,8.8514,8.7167,8.5851,8.4714,8.4714,8.3816,8.2649,8.2814,8.286,8.3026,8.3086,8.3748,8.4472,8.4472,8.4955,8.5789,8.7432,8.728,8.6648,8.6432,8.5967,8.503,8.3161,8.2844,8.2844,8.3041,8.4466,8.6142,8.7953,8.9456,9.2015,9.6924,9.7689,9.8218,9.9604,10.1386,10.2502,10.2502,10.2502,10.2198,10.1589,10.0811,10.0337,10.0337,10.0337,10.0337,10.0337,10.1081,10.1487,10.1487,10.2198,10.2502,10.2502,10.2502,10.2502,10.2502,10.2502,10.213,7.6306,7.5753,7.5786,7.8315,7.9855,8.1809,8.5418,8.7434,8.9013,9.0837,9.1207,9.1265,9.1455,9.1922,9.2176,9.1783,9.3162,9.4215,9.3739,9.5714,9.675,9.5613,9.7902,10.0316,10.2334,10.2488,10.2488,10.2488,10.2219,10.2189,10.2488,10.0992,10.0094,10.0094,9.8149,9.6803,9.6174,9.5516,9.4858,9.4169,9.3092,9.2464,9.2165,9.1117,9.0638,9.0638,9.0638,9.0638,9.0638,9.0638,9.0638,9.0579,8.992,8.9501,8.9082,8.7766,8.6419,8.5282,8.5282,8.4684,8.3906,8.3906,8.3906,8.3816,8.3457,8.4055,8.4803,8.4414,8.5043,8.5996,8.6288,8.5911,8.5304,8.4909,8.4407,8.3729,8.2965,8.2844,8.2844,8.2844,8.3989,8.5601,8.7308,8.7976,8.9494,9.3372,9.4961,9.6187,9.7645,9.9527,10.1019,10.1764,10.1419,10.1014,10.0709,9.9999,9.9559,9.9559,9.9559,9.9762,10.0202,10.098,10.1386,10.1386,10.169,10.1893,10.1893,10.1893,10.2096,10.2502,10.2096,10.1419,7.5728,7.5352,7.5811,7.8499,7.8959,8.0227,8.5155,8.6241,8.6939,8.9497,9.002,8.9993,8.9842,9.0022,8.9966,8.966,9.0609,9.1402,9.1298,9.263,9.3266,9.1974,9.4102,9.6602,9.9105,10.108,10.2279,10.2488,10.2488,10.2488,10.2488,10.1201,10.0483,10.0483,9.8538,9.7281,9.6833,9.5995,9.5366,9.4858,9.3511,9.2763,9.2554,9.1237,9.0638,9.0638,9.0638,9.0638,9.0638,9.0638,9.0638,9.0579,8.992,8.9561,8.9262,8.8125,8.6958,8.594,8.5761,8.5252,8.4714,8.4714,8.4594,8.4384,8.4085,8.4654,8.5372,8.5073,8.5791,8.6569,8.609,8.5342,8.4594,8.4115,8.3367,8.2828,8.2978,8.2888,8.2828,8.3008,8.3786,8.4936,8.6511,8.6591,8.7422,9.0261,9.1958,9.354,9.5233,9.7496,9.9281,10.0176,10.0117,9.9897,9.9897,9.9221,9.8781,9.8781,9.8781,9.9051,9.9593,10.0506,10.0878,10.0472,10.1081,10.1284,10.1081,10.1284,10.169,10.2198,10.1589,10.0878,7.618,7.5653,7.5912,7.8901,7.925,7.9868,8.3482,8.4309,8.4641,8.5923,8.6172,8.6466,8.7642,8.8457,8.9065,8.9506,9.0609,9.0697,8.8695,9.0718,9.1318,8.8136,8.974,9.1174,9.1202,9.7446,10.177,10.2488,10.2488,10.2488,10.2488,10.1201,10.0483,10.0483,9.8538,9.7491,9.7461,9.6234,9.5576,9.5546,9.4199,9.3212,9.2554,9.1237,9.0638,9.0638,9.0638,9.0638,9.0638,9.0638,9.0638,9.0579,8.992,8.9262,8.8634,8.7945,8.7257,8.6569,8.591,8.5252,8.4714,8.4714,8.4295,8.3876,8.4504,8.4714,8.4863,8.5492,8.615,8.6689,8.6659,8.5671,8.4714,8.4684,8.3696,8.2948,8.3576,8.3217,8.2948,8.3576,8.3726,8.3965,8.4671,8.536,8.6389,8.8475,8.8826,8.9811,9.2382,9.5515,9.7453,9.752,9.8505,9.9119,9.9119,9.8476,9.8037,9.8037,9.8037,9.8037,9.807,9.9491,9.9593,9.8138,10.0269,10.1014,10.0235,10.1014,10.1386,10.1386,10.1386,10.0574,7.6105,7.5929,7.6,7.7009,7.7481,7.8271,8.1132,8.2076,8.3062,8.5499,8.5736,8.5311,8.4807,8.4666,8.4397,8.391,8.49,8.5675,8.561,8.7111,8.7172,8.4643,8.6906,8.8228,8.7147,9.3148,9.7715,9.9045,10.0773,10.2009,10.2488,10.165,10.0962,10.0483,9.9406,9.8389,9.7491,9.6653,9.6025,9.5576,9.378,9.2583,9.1925,9.1027,9.0638,9.0638,9.0638,9.0638,9.0638,9.0638,9.0638,9.0608,9.0399,9.019,8.989,8.9262,8.8843,8.8424,8.6868,8.621,8.603,8.603,8.5851,8.5641,8.5432,8.5671,8.597,8.5761,8.618,8.6569,8.615,8.5372,8.4714,8.4714,8.4055,8.3576,8.4235,8.4205,8.4115,8.4325,8.4743,8.5103,8.5312,8.591,8.6868,8.8454,8.9052,9.0134,9.2335,9.2726,9.3826,9.6393,9.6597,9.701,9.8217,9.8138,9.8003,9.8003,9.8003,9.824,9.8713,9.9221,9.9018,9.8037,9.9221,9.9491,9.8747,9.9491,10.01,10.0608,10.01,9.9593,7.5829,7.5904,7.6055,7.6055,7.6456,7.7407,7.9065,7.9949,8.0935,8.2888,8.3035,8.2552,8.1696,8.1059,8.0615,8.0485,8.1202,8.2257,8.3537,8.4165,8.3989,8.2533,8.3824,8.4536,8.3731,8.8123,9.2661,9.6537,9.8834,10.0749,10.2129,10.168,10.1261,10.0872,9.9975,9.9077,9.8209,9.7132,9.6114,9.5217,9.3451,9.2374,9.1955,9.1027,9.0638,9.0638,9.0638,9.0638,9.0638,9.0638,9.0638,9.0608,9.0369,9.0279,9.0219,8.9561,8.9322,8.9082,8.7586,8.7197,8.7317,8.6838,8.6689,8.6599,8.618,8.6329,8.6599,8.615,8.6539,8.6898,8.621,8.5551,8.5073,8.5073,8.4564,8.4265,8.4923,8.4893,8.4773,8.5013,8.5402,8.5701,8.5701,8.6629,8.7706,8.8544,8.9052,8.9831,9.107,9.059,9.1091,9.3583,9.4672,9.5671,9.6866,9.7597,9.8003,9.8003,9.824,9.8476,9.8713,9.9221,9.8781,9.7258,9.8206,9.8341,9.7597,9.8341,9.9085,9.9796,9.9322,9.895,7.5377,7.5628,7.6055,7.608,7.6507,7.7059,7.7611,7.8164,7.8566,7.854,7.849,7.8465,7.844,7.7988,7.8013,7.9193,7.9871,8.085,8.2508,8.2332,8.198,8.1905,8.1026,8.0599,8.1026,8.2983,8.7285,9.4725,9.6595,9.8532,10.1192,10.1531,10.1471,10.1471,10.0214,9.9526,9.9496,9.7551,9.5905,9.4588,9.3272,9.2643,9.2554,9.1267,9.0668,9.0638,9.0638,9.0638,9.0638,9.0638,9.0638,9.0579,8.995,8.9711,8.9651,8.9023,8.8783,8.8693,8.8035,8.8185,8.8454,8.7167,8.6718,8.6718,8.6689,8.6689,8.6718,8.6718,8.7197,8.7556,8.6898,8.621,8.5701,8.5731,8.5252,8.4953,8.5611,8.5252,8.4983,8.5611,8.5731,8.5731,8.5731,8.7377,8.8693,8.8693,8.8693,8.8693,8.8693,8.908,8.935,8.95,9.28,9.5012,9.5045,9.6709,9.7755,9.7721,9.8492,9.8622,9.7913,9.9327,9.8781,9.5838,9.7258,9.7631,9.6819,9.7631,9.8375,9.9051,9.9051,9.8679,7.5377,7.5628,7.6155,7.6557,7.7084,7.7637,7.8189,7.8766,7.9043,7.8616,7.8189,7.7787,7.736,7.6833,7.7109,7.9068,8.0198,8.1553,8.3612,8.4491,8.4491,8.3211,8.3186,8.2834,8.1704,8.2846,8.5286,8.926,9.3696,9.698,9.9038,10.1093,10.1979,10.1471,10.0663,10.0004,9.9496,9.7551,9.5905,9.4588,9.375,9.3062,9.2583,9.1746,9.1087,9.0638,9.0638,9.0638,9.0638,9.0638,9.0638,9.0608,9.0459,9.0399,9.0369,9.019,9.013,9.004,8.9412,8.8963,8.8544,8.7706,8.7437,8.7347,8.6838,8.7048,8.7437,8.7437,8.7556,8.7676,8.7496,8.6569,8.5821,8.6299,8.591,8.5611,8.627,8.6299,8.621,8.6389,8.6419,8.6419,8.6419,8.7676,8.8693,8.8693,8.8693,8.8693,8.8693,8.7945,8.7948,8.9381,9.0829,9.2063,9.3073,9.3979,9.432,9.3832,9.5803,9.6663,9.59,9.8186,9.824,9.5838,9.7258,9.736,9.6074,9.736,9.8104,9.8273,9.8273,9.8172,7.5377,7.5829,7.6482,7.6808,7.7486,7.8088,7.8139,7.8591,7.8792,7.7963,7.7561,7.7185,7.6607,7.6256,7.6632,7.8365,7.9595,8.1076,8.3286,8.4165,8.4341,8.3914,8.3914,8.3688,8.2985,8.3261,8.4415,8.6672,9.0643,9.3859,9.5998,9.7884,9.9067,9.9662,9.9014,9.8542,9.8239,9.7132,9.5905,9.4588,9.39,9.3391,9.3002,9.2344,9.1686,9.1057,9.1057,9.0908,9.0638,9.0638,9.0638,9.0638,9.0638,9.0638,9.0638,9.0638,9.0638,9.0579,9.0219,8.986,8.9382,8.8454,8.8334,8.8454,8.7766,8.8035,8.8514,8.8215,8.8334,8.8424,8.7856,8.7137,8.6599,8.6659,8.6389,8.621,8.6599,8.6689,8.6689,8.6689,8.6689,8.6689,8.6689,8.7556,8.8364,8.8634,8.8693,8.8783,8.9082,8.7676,8.7223,8.8606,8.9527,9.0477,9.1491,9.2605,9.3267,9.3235,9.487,9.5941,9.6099,9.7523,9.7274,9.513,9.5899,9.5703,9.4628,9.5703,9.6851,9.8003,9.8003,9.8003,7.5502,7.6155,7.7034,7.7159,7.7938,7.8515,7.8038,7.8239,7.8214,7.7109,7.6883,7.6707,7.6155,7.6055,7.6482,7.7812,7.8792,8.0248,8.2658,8.2934,8.3286,8.4416,8.414,8.3989,8.4491,8.4089,8.4416,8.5897,8.7838,8.9993,9.2596,9.3707,9.5134,9.7217,9.6739,9.6434,9.6593,9.6563,9.5905,9.4588,9.399,9.3661,9.3571,9.3002,9.2374,9.1746,9.1656,9.1297,9.0758,9.0668,9.0638,9.0638,9.0638,9.0638,9.0638,9.0638,9.0638,9.0638,9.0638,9.0638,9.0429,8.9202,8.9202,8.9531,8.8873,8.9142,8.9561,8.8993,8.9232,8.9412,8.8274,8.7826,8.7556,8.6958,8.6748,8.6689,8.6689,8.6689,8.6689,8.6689,8.6689,8.6689,8.6689,8.7317,8.8035,8.8604,8.8753,8.9052,8.9711,8.8125,8.7167,8.7766,8.8881,8.9665,9.0066,9.1773,9.2982,9.3394,9.445,9.5484,9.6532,9.6774,9.5995,9.3992,9.3894,9.3565,9.2843,9.3762,9.5432,9.7659,9.7879,9.8003,7.6055,7.6707,7.7787,7.8716,7.9093,7.9218,7.9118,7.8792,7.8214,7.7109,7.6883,7.6707,7.6155,7.6055,7.6858,7.9369,7.9545,8.0624,8.4215,8.4315,8.4466,8.5571,8.5646,8.5596,8.5671,8.5596,8.5671,8.5998,8.6343,8.782,9.0445,9.292,9.4938,9.6527,9.6479,9.6434,9.6593,9.6563,9.5905,9.4618,9.4499,9.4139,9.3571,9.3451,9.3062,9.2404,9.1865,9.1566,9.1416,9.0848,9.0638,9.0638,9.0638,9.0638,9.0638,9.0638,9.0638,9.0638,9.0638,9.0638,9.0519,8.9741,8.9561,8.9531,8.8873,8.9142,8.9651,8.9531,8.9591,8.9621,8.9382,8.8514,8.7676,8.7556,8.7077,8.6689,8.6689,8.6689,8.6689,8.6689,8.6689,8.6689,8.6689,8.7706,8.8544,8.8663,8.9142,8.9741,9.0369,8.9232,8.8394,8.8514,8.9197,8.9259,8.8295,8.9489,8.9941,8.8941,9.1531,9.2917,9.2564,9.4096,9.4253,9.2569,9.2607,9.2323,9.1514,9.3855,9.5277,9.5736,9.7312,9.8003,7.6557,7.7511,7.8766,7.9595,7.9821,7.9746,7.9444,7.8716,7.7787,7.6682,7.6456,7.6381,7.6105,7.6281,7.7009,7.8641,7.8917,8.0097,8.3386,8.3638,8.4089,8.5822,8.5998,8.5998,8.5998,8.5998,8.5998,8.5998,8.5998,8.6616,8.7865,9.0233,9.1689,9.2118,9.3188,9.4151,9.5034,9.5034,9.5049,9.5127,9.5127,9.4768,9.411,9.411,9.375,9.3092,9.2763,9.2434,9.2105,9.1776,9.1656,9.1656,9.1656,9.1656,9.1626,9.1267,9.1147,9.1087,9.0758,9.0638,9.0579,9.0279,9.016,9.01,8.9801,8.992,9.016,9.016,9.016,9.01,8.9741,8.8933,8.8125,8.7796,8.7167,8.6689,8.6689,8.6689,8.6689,8.6689,8.6689,8.6689,8.6689,8.7496,8.8304,8.8634,8.9232,8.989,9.0549,9.01,8.9441,8.8753,8.8663,8.8514,8.8245,8.8783,8.9172,8.9232,9.0688,9.1852,9.2552,9.2833,9.2478,9.1366,9.1061,9.0526,8.9802,9.1429,9.2768,9.3767,9.4645,9.5078,7.721,7.8365,7.9746,8.0549,8.0574,8.0248,7.9695,7.8591,7.7385,7.6281,7.6055,7.6055,7.6055,7.6406,7.6959,7.7762,7.8038,7.9218,8.2257,8.2558,8.3311,8.5571,8.5922,8.5998,8.5998,8.5998,8.5998,8.5998,8.5998,8.5998,8.5998,8.7512,8.8374,8.8275,8.9821,9.1337,9.2753,9.261,9.3036,9.3954,9.3807,9.3483,9.2983,9.2983,9.2981,9.3031,9.2882,9.2814,9.2793,9.2673,9.2613,9.2613,9.2613,9.2613,9.2554,9.2015,9.1746,9.1536,9.1027,9.0758,9.0638,9.0638,9.0638,9.0638,9.0638,9.0638,9.0638,9.0638,9.0638,9.0519,9.001,8.9382,8.8693,8.7885,8.7287,8.6868,8.6718,8.6689,8.6689,8.6689,8.6808,8.6898,8.6898,8.7586,8.8304,8.8813,8.9441,9.007,9.0579,9.0638,9.019,8.9023,8.8574,8.8424,8.8663,8.8933,8.9471,9.0369,9.0549,9.129,9.2912,9.1774,9.0821,9.0221,8.9437,8.876,8.8083,8.9027,9.0318,9.181,9.2198,9.241,7.8239,7.9243,8.0499,8.2056,8.1704,8.0825,8.0273,7.8867,7.7385,7.6281,7.6055,7.6055,7.6055,7.6105,7.6632,7.8189,7.7662,7.834,8.2131,8.2231,8.2708,8.4968,8.5671,8.5998,8.5998,8.5998,8.5998,8.5998,8.5998,8.5998,8.5998,8.6146,8.6837,8.8302,8.8512,8.9083,8.9909,8.9453,8.9036,8.8464,8.8003,8.7725,8.7669,8.7669,8.8949,9.1052,9.0445,9.1455,9.3451,9.2853,9.2613,9.2613,9.2613,9.2613,9.2583,9.2524,9.2135,9.1596,9.1536,9.1147,9.0638,9.0638,9.0638,9.0638,9.0638,9.0638,9.0638,9.0638,9.0638,9.0638,9.0549,9.007,8.9262,8.8005,8.7646,8.7437,8.6808,8.6689,8.6689,8.6689,8.7167,8.7616,8.7616,8.8663,8.9501,8.9561,9.013,9.0579,9.0638,9.0638,9.0369,8.9651,9.004,8.992,8.8783,8.9771,9.0249,8.9771,9.0309,9.0721,9.0857,9.0249,8.9558,8.8897,8.8236,8.7576,8.6885,8.8624,8.9575,8.9799,9.1596,9.241,7.8365,7.9821,8.1503,8.2834,8.2332,8.1353,8.0825,7.9143,7.7385,7.6281,7.6055,7.6055,7.6055,7.6055,7.6281,7.6933,7.6381,7.6883,7.9771,7.9695,8.0524,8.3763,8.4341,8.4918,8.5922,8.5998,8.5998,8.5998,8.5998,8.5998,8.5998,8.5998,8.6151,8.6358,8.5999,8.6668,8.8309,8.7718,8.7927,8.8871,8.865,8.8154,8.7464,8.7795,8.8147,8.854,8.8531,8.9175,9.007,8.9442,8.9414,8.9791,9.1037,9.0595,8.952,9.221,9.1849,9.0106,9.121,9.1177,9.0638,9.0638,9.0638,9.0638,9.0638,9.0638,9.0638,9.0638,9.0638,9.0638,9.0638,9.016,8.9441,8.8514,8.8304,8.8125,8.7437,8.7287,8.7287,8.7287,8.7526,8.7826,8.8215,8.9052,8.9681,8.9681,9.0219,9.0638,9.0638,9.0638,9.0399,8.9741,8.989,8.983,8.9322,8.9771,9.01,9.0249,9.0489,9.0638,9.0638,9.001,8.9352,8.8693,8.8035,8.7377,8.6689,8.7464,8.7823,8.7823,8.9038,8.9529,7.8591,8.0273,8.2106,8.3412,8.2759,8.1679,8.1152,7.9319,7.7385,7.6281,7.6055,7.6055,7.6055,7.6055,7.6055,7.6055,7.5728,7.613,7.8013,7.8088,7.9093,8.2156,8.2658,8.3412,8.5094,8.5747,8.5998,8.5998,8.5998,8.5998,8.5998,8.5847,8.5496,8.4893,8.4491,8.4891,8.607,8.5472,8.5882,8.7335,8.7173,8.6563,8.5784,8.616,8.6385,8.6406,8.6717,8.7394,8.8016,8.7602,8.7685,8.8208,8.959,8.8934,8.758,9.0756,9.0243,8.8125,8.9265,8.9748,8.9699,8.9606,8.9996,9.0638,9.0638,9.0638,9.0638,9.0638,9.0638,9.0638,9.0638,9.0279,8.9801,8.9142,8.8993,8.8783,8.8125,8.8005,8.8005,8.8005,8.8155,8.8424,8.8903,8.9531,8.995,8.995,9.0339,9.0638,9.0638,9.0638,9.0459,9.001,8.995,8.986,8.9681,8.983,9.016,9.0608,9.0638,9.0638,9.0638,9.019,8.9561,8.8693,8.8245,8.7556,8.6689,8.6689,8.6689,8.6689,8.7377,8.7915,7.9068,8.0574,8.2206,8.3889,8.306,8.1679,8.1152,7.9319,7.7385,7.6281,7.6055,7.6055,7.6055,7.6055,7.6055,7.6055,7.6055,7.6431,7.7561,7.8164,7.8942,8.0122,8.0725,8.1704,8.3361,8.5019,8.5998,8.5998,8.5998,8.5998,8.5998,8.547,8.4893,8.4341,8.4315,8.3788,8.2791,8.2106,8.1805,8.1886,8.1383,8.1131,8.1026,8.1131,8.2467,8.4844,8.4871,8.6222,8.8553,8.865,8.865,8.8553,8.8623,8.8292,8.7795,8.7891,8.709,8.5957,8.5471,8.6355,8.7723,8.7206,8.8641,9.0638,9.0638,9.0638,9.0638,9.0638,9.0638,9.0638,9.0638,9.0638,9.0459,8.9801,8.9651,8.9471,8.8813,8.8663,8.8663,8.8663,8.9202,8.9651,8.9651,9.019,9.0638,9.0638,9.0638,9.0638,9.0638,9.0638,9.0638,9.0638,9.0638,9.0369,8.9711,9.0249,9.0638,9.0638,9.0638,9.0638,9.0638,9.0638,9.001,8.8693,8.8663,8.8005,8.6689,8.6689,8.6689,8.6689,8.7377,8.8394,7.8038,7.9168,8.0373,8.1277,8.0825,7.9997,7.9444,7.8189,7.6933,7.6205,7.6055,7.6055,7.6055,7.6055,7.618,7.6557,7.6306,7.6306,7.7034,7.7611,7.8666,8.0549,8.2934,8.4642,8.5169,8.5671,8.5998,8.5998,8.5998,8.5998,8.5998,8.5822,8.547,8.4893,8.4165,8.3587,8.3236,8.2683,8.2407,8.2382,8.2231,8.1955,8.1579,8.198,8.2128,8.2207,8.2564,8.3213,8.3992,8.3992,8.3992,8.4095,8.5857,8.5135,8.3545,8.6604,8.597,8.3635,8.475,8.4953,8.4669,8.4563,8.4954,8.5575,8.5575,8.7984,9.0638,9.0638,8.9462,8.8526,9.0192,9.0638,9.0579,9.0369,9.0339,9.016,8.9501,8.9352,8.9352,8.9352,8.9531,8.9801,9.0249,9.0489,9.0638,9.0638,9.0638,9.0638,9.0638,9.0638,9.0638,9.0638,9.0638,9.0549,9.0339,9.0519,9.0638,9.0638,9.0638,9.0638,9.0638,9.0638,9.0249,8.9382,8.8903,8.8484,8.8035,8.7137,8.7137,8.8065,8.8723,8.9501,7.7486,7.8515,7.952,8.0072,7.9796,7.9243,7.8666,7.7662,7.6733,7.618,7.6055,7.6055,7.6055,7.6055,7.618,7.6507,7.6281,7.618,7.6507,7.7411,7.8766,8.08,8.3412,8.5069,8.5069,8.5646,8.5998,8.5998,8.5998,8.5998,8.5998,8.5822,8.542,8.4818,8.4165,8.3612,8.3186,8.2834,8.2784,8.2985,8.2985,8.2784,8.2457,8.2809,8.2483,8.1679,8.198,8.2131,0.0,8.2131,8.2131,8.2344,8.3908,8.3182,8.1649,8.4304,8.3589,8.1475,8.2198,8.2441,8.2463,8.2095,8.2576,8.3306,8.3306,8.5398,8.807,8.8981,8.8184,8.7524,8.9996,9.0638,9.0638,9.0638,9.0638,9.0519,9.013,9.004,9.004,9.004,9.004,9.016,9.0579,9.0638,9.0638,9.0638,9.0638,9.0638,9.0638,9.0638,9.0638,9.0638,9.0638,9.0638,9.0638,9.0638,9.0758,9.0997,9.0997,9.0997,9.0997,9.0997,9.0579,8.9681,8.9262,8.8933,8.8693,8.7856,8.8005,8.9082,8.9471,9.001,0.0,7.834,7.9269,7.9796,7.952,7.9018,7.8465,7.7561,0.0,7.6155,7.6055,7.6055,7.6055,7.608,7.6105,7.6105,7.6105,7.6105,7.6105,7.7611,7.9344,8.1051,8.2683,8.3663,8.3612,8.5069,8.5998,8.5998,8.5998,8.5998,8.5998,8.5496,8.4918,8.4315,8.4315,8.3788,8.2683,8.2683,8.296,8.3487,8.3462,8.3462,8.3487,8.3462,8.316,8.2683,8.2683,8.2683,8.2683,8.2708,8.2708,8.2683,8.2708,8.2382,8.1805,8.1227,8.0675,7.9972,7.834,7.9214,8.0841,7.9808,8.0964,8.2759,8.2759,8.2942,8.3578,8.6072,8.6714,8.7265,8.9714,9.0472,9.0638,9.0638,9.0638,9.0638,9.0638,9.0638,9.0638,9.0638,9.0638,9.0638,9.0638,9.0638,9.0638,9.0638,9.0638,9.0668,9.0698,9.0668,9.0668,9.0698,9.0668,9.0668,9.0698,9.0668,9.0908,9.1566,9.1566,9.1566,9.1626,9.1566,9.0968,8.9771,8.9741,8.9382,8.8693,8.8783,8.9112,8.9681,8.9711,9.007,7.6381,0.0,7.6883,7.7009,7.6933,7.6808,0.0,7.6431,7.6205,7.608,7.6055,7.6055,7.6055,7.6406,7.6682,7.6682,7.6682,7.6682,7.6682,7.8867,8.1227,8.3311,8.4667,8.5244,8.4818,8.5496,8.5998,8.5998,8.5998,8.5998,8.5998,8.5897,8.5345,8.4341,8.4315,8.3788,8.2683,8.2683,8.296,8.3487,8.306,8.3085,8.3487,8.306,8.2784,8.2683,8.2683,8.2683,8.2708,8.3135,8.306,8.2708,8.3135,8.296,8.2357,8.1378,8.0675,8.0022,7.8766,7.8166,7.7804,7.7191,7.7328,7.7788,7.7788,7.9058,8.1057,8.3515,8.412,8.4775,8.7178,8.9179,9.0638,9.0638,9.0638,9.0638,9.0638,9.0638,9.0638,9.0638,9.0638,9.0638,9.0638,9.0638,9.0638,9.0638,9.0638,9.0818,9.1327,9.0938,9.0848,9.1327,9.0938,9.0848,9.1357,9.0938,9.0908,9.1566,9.1147,9.1087,9.1596,9.1147,9.0728,9.0399,9.0399,8.983,8.8693,8.9681,9.001,8.9681,9.016,9.0489,7.6055,7.6055,7.6055,7.6055,7.6055,7.6055,7.6055,7.6055,7.6055,7.6055,7.6055,7.613,7.6381,7.6456,7.6657,7.7185,7.6833,7.6858,7.7888,7.9545,8.1579,8.4039,8.5069,8.5571,8.5571,8.5822,8.5998,8.5998,8.5998,8.5998,8.5998,8.5998,8.5496,8.4341,8.4315,8.3788,8.2683,8.2683,8.296,8.3487,8.3186,8.3211,8.3487,8.3186,8.2909,8.2683,8.2683,8.2683,8.2683,8.2985,8.2934,8.2708,8.301,8.2934,8.2533,8.1428,8.085,8.0398,7.8992,7.7812,7.6783,7.623,7.6055,7.6055,7.6055,7.6963,7.8509,8.0964,8.1681,8.2236,8.4686,8.7149,8.8896,8.8896,8.9828,9.0638,9.0638,9.0638,9.0638,9.0638,9.0878,9.1087,9.1087,9.1087,9.1087,9.1087,9.1087,9.1207,9.1566,9.1297,9.1327,9.2015,9.1476,9.1357,9.2015,9.1746,9.1805,9.2494,9.1895,9.1686,9.2045,9.1446,9.0938,9.0638,9.0638,9.0279,8.9591,9.0279,9.0459,9.013,9.0489,9.0788,7.6055,7.6055,7.6055,7.6055,7.6055,7.603,7.5954,7.5979,7.603,7.5954,7.6004,7.6205,7.6657,7.6507,7.6582,7.7436,7.7009,7.7335,7.957,8.0373,8.1629,8.414,8.4918,8.542,8.5822,8.5922,8.5998,8.5998,8.5998,8.5998,8.5998,8.5998,8.5521,8.4491,8.429,8.3738,8.2809,8.2708,8.296,8.3487,8.3412,8.3412,8.3487,8.3412,8.311,8.2683,8.2683,8.2683,8.2683,8.2683,8.2683,8.2683,8.2683,8.2608,8.2432,8.1403,8.0976,8.0675,7.9068,7.7862,7.6908,7.6356,7.613,7.6055,7.6055,7.6055,7.6523,7.8535,7.944,8.0172,8.2236,8.4864,8.6975,8.6975,8.8811,9.0668,9.0758,9.0788,9.0818,9.0908,9.1386,9.1746,9.1626,9.1626,9.1626,9.1626,9.1626,9.1686,9.1895,9.1835,9.2015,9.2673,9.2165,9.2075,9.2853,9.2823,9.3062,9.384,9.2972,9.2404,9.2314,9.1776,9.1207,9.0638,9.0638,9.0638,9.0638,9.0638,9.0638,9.0638,9.0728,9.1087,7.6055,7.6055,7.6055,7.6055,7.6055,7.5929,7.5477,7.5728,7.5929,7.5452,7.5728,7.608,7.6155,7.6883,7.736,7.7059,7.8063,7.9645,8.1855,8.2633,8.3487,8.4757,8.5496,8.5722,8.532,8.5722,8.5998,8.5998,8.5998,8.5998,8.5998,8.5998,8.5671,8.5044,8.4089,8.3537,8.3361,8.2909,8.296,8.3487,8.301,8.3035,8.3487,8.301,8.2759,8.2683,8.2683,8.2683,8.2683,8.2683,8.2683,8.2683,8.2683,8.2382,8.1855,8.1252,8.0725,8.0173,7.8942,7.8114,7.7486,7.6933,7.6431,7.6055,7.6055,7.6055,7.6153,7.6523,7.8175,7.9793,8.0172,8.3606,8.6975,8.6975,8.8811,9.0788,9.1357,9.1476,9.1626,9.2194,9.2374,9.2284,9.1716,9.1626,9.1626,9.1626,9.1626,9.2015,9.3152,9.2793,9.2703,9.3361,9.2853,9.2943,9.4199,9.375,9.396,9.5187,9.3062,9.1506,9.0968,9.0848,9.0728,9.0638,9.0638,9.0638,9.0638,9.0638,9.0638,9.0638,9.1207,9.1506,7.6055,7.6055,7.5979,7.5703,7.5402,7.495,7.4071,7.3845,7.3996,7.4649,7.4749,7.5075,7.6281,7.7159,7.7913,7.8566,7.9821,8.1051,8.2056,8.2683,8.3462,8.4567,8.5219,8.5571,8.5596,8.5847,8.5998,8.5998,8.5998,8.5998,8.5998,8.5998,8.5596,8.4717,8.3914,8.3186,8.2583,8.2056,8.2206,8.3035,8.2784,8.2809,8.3035,8.2784,8.2508,8.2231,8.2533,8.2483,8.2231,8.2533,8.2483,8.2206,8.2206,8.188,8.1328,8.08,8.0248,7.9645,7.8817,7.8365,7.8063,7.7511,7.7159,7.6933,7.6933,7.6733,7.6507,7.6507,7.7119,7.7788,7.7788,8.0334,8.3088,8.3088,8.5146,8.7201,8.7487,8.8945,9.0194,9.0487,9.1938,9.3032,9.2733,9.2673,9.2673,9.2673,9.2673,9.2883,9.3511,9.3302,9.3511,9.4558,9.408,9.4229,9.5546,9.5067,9.4469,9.399,9.2823,9.1686,9.0668,9.0638,9.0638,9.0638,9.0638,9.0638,9.0638,9.0638,9.0818,9.1177,9.1476,9.2015,7.5956,7.5633,7.5037,7.5005,7.4824,7.4322,7.3192,7.2816,7.3016,7.4171,7.4297,7.4674,7.6381,7.7461,7.8641,8.0323,8.1604,8.2432,8.2558,8.3085,8.3763,8.4592,8.5069,8.5496,8.5998,8.5998,8.5998,8.5998,8.5998,8.5998,8.5998,8.5897,8.5395,8.4541,8.3587,8.2734,8.2005,8.1227,8.1403,8.2483,8.2483,8.2533,8.2683,8.2683,8.2432,8.2031,8.2483,8.2432,8.2056,8.2483,8.2332,8.1805,8.1805,8.1403,8.0775,8.0223,7.9746,7.9319,7.8867,7.8641,7.8465,7.8038,7.7812,7.7712,7.7712,7.731,7.6883,7.6883,7.6482,7.6055,7.6055,7.7885,7.9751,7.9883,8.209,8.4236,8.4512,8.6517,8.8211,8.8353,9.0366,9.2158,9.265,9.2736,9.2909,9.3485,9.3571,9.3631,9.381,9.396,9.4439,9.5486,9.5277,9.5486,9.6473,9.6114,9.5037,9.3182,9.2763,9.2135,9.1147,9.0788,9.0698,9.0848,9.0878,9.0878,9.0878,9.1027,9.1357,9.1865,9.2015,9.2613,7.541,7.4138,7.2513,7.4115,7.4824,7.49,7.377,7.4297,7.49,7.4498,7.5201,7.5929,7.608,7.7837,7.9796,8.1428,8.306,8.4315,8.4818,8.5395,8.5772,8.5847,8.5922,8.5922,8.5998,8.5998,8.5998,8.5998,8.5998,8.5998,8.5998,8.5496,8.5144,8.5069,8.3035,8.2156,8.2608,8.1051,8.08,8.1855,8.1855,8.2156,8.2683,8.2683,8.2658,8.2608,8.2658,8.2658,8.2608,8.2658,8.2332,8.1805,8.1805,8.1177,8.0198,7.9645,7.9419,7.9369,7.9344,7.8967,7.8515,7.8465,7.8114,7.7712,7.7712,7.731,7.6883,7.6883,7.6482,7.6055,7.6055,7.7885,7.9857,8.0289,8.2387,8.4456,8.5588,8.6051,8.6339,8.7042,8.7275,8.8073,8.9733,9.0096,9.0837,9.3198,9.3571,9.381,9.4439,9.5067,9.5486,9.5576,9.6084,9.6473,9.6563,9.6533,9.5935,9.4558,9.3302,9.2554,9.2464,9.1297,9.0908,9.1536,9.1536,9.1536,9.1536,9.2165,9.2494,9.2554,9.3152,9.3481,7.2653,7.2412,7.1874,7.4291,7.4824,7.4347,7.2866,7.2866,7.3318,7.3795,7.4498,7.5552,7.7285,7.8566,8.0047,8.2031,8.3462,8.4642,8.5571,8.5847,8.5998,8.5998,8.5998,8.5998,8.5998,8.5998,8.5998,8.5998,8.5998,8.5998,8.5998,8.547,8.4968,8.4642,8.2784,8.1754,8.1654,8.0348,8.0072,8.0825,8.1478,8.1754,8.1679,8.2357,8.2307,8.1679,8.2382,8.2457,8.2131,8.2131,8.2005,8.1729,8.1076,8.0348,7.967,7.9469,7.9394,7.9394,7.9394,7.9243,7.9068,7.9068,7.8917,7.8741,7.8741,7.8365,7.7888,7.7888,7.7511,7.6908,7.623,7.7046,7.7988,7.8219,7.9447,8.0732,8.1274,8.2869,8.4334,8.4575,8.5957,8.7208,8.7924,8.8054,8.8361,8.9374,8.9494,9.027,9.2531,9.1583,9.232,9.6387,9.5903,9.5166,9.4756,9.4727,9.4866,9.5219,9.396,9.3032,9.2613,9.2135,9.1985,9.2224,9.2224,9.2224,9.2224,9.2494,9.2793,9.3212,9.3451,9.381,6.9281,6.9695,6.9981,7.252,7.3181,7.2883,7.2301,7.259,7.3117,7.372,7.4423,7.5628,7.7862,7.8892,8.0047,8.2081,8.3487,8.4717,8.5847,8.5998,8.5998,8.5998,8.5998,8.5998,8.5998,8.5998,8.5998,8.5998,8.5822,8.5747,8.5747,8.4993,8.4391,8.3813,8.2332,8.1302,8.0775,7.9846,7.957,7.9972,8.1051,8.1378,8.1076,8.198,8.1905,8.1102,8.2206,8.2332,8.183,8.2005,8.188,8.1453,8.0373,7.9721,7.9394,7.9394,7.9394,7.9394,7.9394,7.9394,7.9394,7.9394,7.9394,7.9394,7.9394,7.8992,7.8515,7.8515,7.8114,7.7536,7.6783,7.6858,7.7185,7.736,7.7963,7.8566,7.8766,8.0574,8.2224,8.2224,8.3803,8.5362,8.6115,8.6309,8.6599,8.7368,8.7559,8.827,9.051,8.9414,9.0193,9.5024,9.4562,9.3596,9.2971,9.2743,9.3182,9.4546,9.3601,9.3063,9.3242,9.2823,9.2703,9.2913,9.2913,9.2913,9.2913,9.3122,9.3481,9.39,9.39,9.4169,6.5388,6.5987,6.6201,6.8352,6.9484,7.0603,7.23,7.3925,7.5075,7.4548,7.5301,7.6406,7.7486,7.8616,7.9921,8.1553,8.3211,8.4717,8.5847,8.5998,8.5998,8.5998,8.5998,8.5998,8.5998,8.5998,8.5998,8.5998,8.547,8.5144,8.5144,8.4089,8.3236,8.2683,8.1604,8.0775,8.0223,7.967,7.9394,7.9394,8.0499,8.1026,8.1026,8.1553,8.1528,8.1076,8.2181,8.2332,8.1855,8.2432,8.2005,8.0901,7.9821,7.9394,7.9394,7.9394,7.9394,7.9394,7.9394,7.9394,7.9394,7.9394,7.9394,7.9394,7.9394,7.8992,7.854,7.854,7.8139,7.7712,7.7712,7.7712,7.7862,7.839,7.8515,7.8691,7.9269,7.9821,8.0223,8.0223,8.0675,8.179,8.4289,8.477,8.5649,8.8164,8.8553,8.8553,8.8581,8.9132,9.0085,9.1172,9.1833,9.1971,9.1465,9.0758,9.0981,9.2486,9.201,9.2526,9.4532,9.3332,9.2943,9.3571,9.3601,9.3601,9.3601,9.4289,9.4618,9.4618,9.4618,9.4618,6.346,6.3418,6.3396,6.6689,6.8683,7.0043,7.0928,7.296,7.495,7.5954,7.6406,7.6858,7.7561,7.8289,7.9444,8.1478,8.2558,8.3838,8.5747,8.5998,8.5998,8.5998,8.5998,8.5998,8.5998,8.5998,8.5822,8.542,8.5219,8.4968,8.4567,8.3889,8.3236,8.2683,8.1604,8.0775,8.0223,7.967,7.9394,7.9394,7.9721,7.9871,7.9921,8.1202,8.1302,8.0524,8.1604,8.1754,8.1277,8.1453,8.0876,7.9871,7.9947,7.9721,7.9394,7.9394,7.9394,7.9394,7.9394,7.9394,7.9394,7.9394,7.9394,7.9394,7.9394,7.9269,7.9118,7.9118,7.9018,7.8892,7.8892,7.8892,7.8817,7.8566,7.8842,7.9294,7.9846,8.0097,8.0323,8.0725,8.0926,8.1212,8.1998,8.2077,8.2389,8.3165,8.3268,8.3552,8.4354,8.8572,9.0143,8.677,8.8275,8.9398,8.9238,8.8676,8.9126,9.0911,9.1814,9.2962,9.4561,9.4678,9.4588,9.4319,9.4768,9.5007,9.5007,9.4738,9.4858,9.5306,9.5306,9.5037,5.9963,6.1139,6.2415,6.4894,6.7408,6.9365,7.0103,7.2617,7.5151,7.6582,7.6883,7.7034,7.7611,7.8164,7.9168,8.1152,8.2156,8.3361,8.5395,8.5847,8.5998,8.5998,8.5998,8.5998,8.5998,8.5822,8.5496,8.5144,8.4541,8.3989,8.3688,8.2934,8.2257,8.1704,8.1051,8.0449,7.9896,7.9545,7.9394,7.9394,7.962,7.9595,7.9419,8.0624,8.07,7.9921,8.08,8.1127,8.1026,8.08,8.0323,7.9721,7.9846,7.967,7.9394,7.9394,7.9394,7.9394,7.9394,7.9394,7.9394,7.9394,7.9394,7.9394,7.9394,7.9545,7.967,7.9444,7.9545,7.967,7.9444,7.9394,7.9294,7.8942,7.9143,7.9545,8.0097,8.0373,8.07,8.1227,8.1528,8.1754,8.198,8.183,8.183,8.2282,8.2332,8.2583,8.3236,8.6955,8.8221,8.4972,8.6275,8.7249,8.6991,8.6762,8.7355,8.9032,8.975,9.1314,9.3981,9.4841,9.5007,9.4618,9.5247,9.5606,9.5606,9.5456,9.5606,9.5995,9.5995,9.5755,5.6211,5.9114,6.229,6.2791,6.5507,6.8263,6.965,7.2341,7.4962,7.6482,7.6833,7.7034,7.7536,7.8114,7.9068,8.0725,8.193,8.3236,8.4893,8.5646,8.5998,8.5998,8.5998,8.5998,8.5922,8.547,8.5069,8.4918,8.3512,8.2633,8.2533,8.1579,8.0775,8.0223,8.0223,7.9947,7.9394,7.9394,7.9394,7.9394,7.9896,7.9871,7.9394,7.9947,7.9947,7.9495,7.9947,8.0449,8.0926,8.0373,8.0147,8.0097,7.9595,7.9394,7.9394,7.9394,7.9394,7.9394,7.9394,7.9394,7.9394,7.9394,7.9394,7.9394,7.9394,7.9746,8.0022,7.952,7.9746,8.0022,7.952,7.9419,7.9469,7.9469,7.9419,7.9545,8.0147,8.0675,8.1202,8.1779,8.2357,8.2909,8.3412,8.3135,8.316,8.4165,8.4391,8.4391,8.4391,8.4918,8.5244,8.5219,8.5671,8.5822,8.5244,8.5144,8.5628,8.7014,8.6724,8.8384,9.2649,9.3921,9.4537,9.4708,9.5396,9.5725,9.5666,9.6264,9.6593,9.6653,9.6653,9.6623,5.8301,5.8169,5.8148,5.9317,6.1806,6.4687,6.7485,6.8753,7.0569,7.5335,7.6582,7.6908,7.7034,7.7862,7.9068,8.075,8.1955,8.3236,8.4893,8.5646,8.5998,8.5998,8.5998,8.5822,8.5395,8.5219,8.4592,8.3286,8.2884,8.2282,8.1428,8.1152,8.0775,8.0223,8.0223,7.9947,7.9394,7.9394,7.9394,7.9394,7.952,7.9495,7.9394,7.9947,8.0147,8.0022,7.9695,7.9871,8.0348,7.9796,7.957,7.9545,7.9444,7.9394,7.9394,7.9394,7.9394,7.9394,7.9394,7.9394,7.9394,7.9394,7.9394,7.9394,7.9394,7.9469,7.9545,7.9419,7.9469,7.9545,7.9419,7.9695,8.0022,8.0022,7.9695,7.9645,8.065,8.0951,8.1328,8.2307,8.2934,8.3361,8.3487,8.3763,8.4064,8.4315,8.4667,8.4968,8.4968,8.547,8.5822,8.5822,8.5922,8.5922,8.5822,8.5395,8.5214,8.5511,8.6173,8.6998,8.7933,9.1728,9.4298,9.5396,9.6503,9.6833,9.6354,9.6503,9.6833,9.7311,9.7311,9.7042,5.791,5.8197,5.8677,5.9808,6.1548,6.3501,6.5239,6.5625,6.7197,7.288,7.4478,7.5275,7.6658,7.7787,7.8892,8.0072,8.1378,8.2734,8.4165,8.5069,8.5671,8.5998,8.5747,8.5496,8.5169,8.4667,8.3889,8.2759,8.2181,8.1528,8.0675,8.0398,8.0122,7.9821,7.9821,7.967,7.9394,7.9394,7.9394,7.9394,7.9093,7.8967,7.8992,7.957,7.9821,7.9796,7.952,7.9545,7.9796,7.9495,7.9394,7.9394,7.9394,7.9394,7.9394,7.9394,7.9394,7.9394,7.9394,7.9394,7.9394,7.9394,7.957,7.9771,7.9771,7.9972,8.0122,7.9846,7.9771,7.9771,7.9771,7.9997,8.0273,8.0549,8.0373,8.0398,8.1227,8.1403,8.1654,8.2508,8.311,8.3587,8.3838,8.4567,8.5019,8.4742,8.5169,8.5571,8.5571,8.5822,8.5998,8.5998,8.5998,8.5998,8.5998,8.5747,8.5571,8.5571,8.57,8.6247,8.7275,8.9775,9.2033,9.4156,9.6328,9.7341,9.7012,9.7341,9.767,9.8,9.8,9.782,5.7187,5.8559,6.0338,6.102,6.1913,6.2644,6.2644,6.2644,6.4121,6.9294,7.1531,7.3428,7.6208,7.7561,7.8465,7.9118,8.0599,8.2106,8.3336,8.4466,8.532,8.5922,8.5496,8.5144,8.5019,8.4089,8.3186,8.2432,8.1553,8.075,8.0097,7.9645,7.9394,7.9394,7.9294,7.9243,7.9243,7.9143,7.9093,7.9093,7.8616,7.839,7.839,7.8967,7.9294,7.9394,7.9394,7.9394,7.9394,7.9394,7.9394,7.9394,7.9394,7.9394,7.9394,7.9394,7.9394,7.9394,7.9394,7.9394,7.9394,7.9394,7.9746,8.0223,8.0223,8.0599,8.0926,8.0474,8.0348,8.0348,8.0348,8.0499,8.075,8.1202,8.1453,8.1679,8.1905,8.2031,8.2257,8.2834,8.3412,8.3964,8.4491,8.5395,8.5847,8.5395,8.5671,8.5998,8.5998,8.5998,8.5998,8.5998,8.5998,8.5998,8.5998,8.5998,8.5998,8.5998,8.547,8.5882,8.7612,8.8117,8.9464,9.1805,9.5467,9.746,9.785,9.8538,9.8808,9.8688,9.8688,9.8628,5.8672,5.9141,5.9284,5.9028,5.9343,5.9718,5.9718,5.9718,6.0678,6.3818,6.8505,7.2773,7.5634,7.6682,7.7436,7.8465,8.0047,8.1679,8.3261,8.4466,8.532,8.5922,8.5496,8.4968,8.4491,8.3864,8.2859,8.1378,8.1127,8.0574,7.9545,7.9419,7.9394,7.9394,7.8892,7.8641,7.8641,7.8164,7.7938,7.7938,7.7862,7.7812,7.7837,7.839,7.8917,7.9394,7.9394,7.9394,7.9394,7.9394,7.9394,7.9394,7.9394,7.9394,7.9394,7.9394,7.9394,7.9394,7.9394,7.9394,7.9394,7.9394,7.9746,8.0223,8.0223,8.0599,8.1026,8.0951,8.0926,8.0926,8.0926,8.1629,8.2357,8.2432,8.3186,8.3638,8.2759,8.2934,8.3437,8.3989,8.4567,8.5094,8.5671,8.5922,8.5998,8.5897,8.5922,8.5998,8.5998,8.5998,8.5998,8.5998,8.5998,8.5998,8.5998,8.5998,8.5998,8.5998,8.547,8.5204,8.557,8.7316,8.8537,8.892,9.3894,9.7393,9.9226,9.9915,9.9915,9.9376,9.9376,9.9077,5.9062,5.9004,5.8828,5.8887,5.9062,5.918,5.918,5.918,6.0012,6.2862,6.5389,6.8437,7.288,7.4175,7.522,7.7309,7.9018,8.0574,8.193,8.306,8.4089,8.4968,8.4567,8.414,8.3889,8.306,8.2257,8.1528,8.0901,8.0373,7.9871,7.9243,7.8917,7.8917,7.8365,7.8063,7.8063,7.7812,7.7536,7.7235,7.7561,7.7536,7.726,7.7812,7.8365,7.8917,7.9243,7.9394,7.9394,7.9394,7.9394,7.9394,7.9394,7.9394,7.9394,7.9394,7.9394,7.9394,7.9394,7.9394,7.9394,7.9394,7.9972,8.0624,8.0298,8.08,8.1403,8.1127,8.1026,8.1102,8.1403,8.2056,8.2759,8.306,8.3989,8.4642,8.4165,8.3989,8.414,8.4667,8.4968,8.532,8.5922,8.5998,8.5998,8.5998,8.5998,8.5998,8.5998,8.5998,8.6098,8.6425,8.6174,8.6098,8.6425,8.6174,8.5998,8.5998,8.5747,8.547,8.5144,8.633,8.7564,8.8882,9.2283,9.4499,9.5412,9.5698,9.6499,9.7721,9.7721,9.8382,5.9062,5.8887,5.8769,5.8945,5.9121,5.918,5.918,5.918,5.9829,6.194,6.2357,6.3818,6.8773,7.1198,7.3428,7.6433,7.8164,7.9545,8.0675,8.1754,8.2859,8.3989,8.3612,8.3336,8.3487,8.2608,8.1905,8.1629,8.0876,8.0298,8.0022,7.9068,7.8515,7.8515,7.7862,7.7486,7.7486,7.736,7.7084,7.6682,7.7084,7.7059,7.6682,7.7235,7.7712,7.8139,7.8867,7.9243,7.9394,7.9394,7.9394,7.9394,7.9394,7.9394,7.9394,7.9394,7.9394,7.9394,7.9394,7.9394,7.9394,7.9394,8.0047,8.0775,8.0499,8.1076,8.1754,8.1503,8.1453,8.1528,8.193,8.2558,8.3186,8.3612,8.4567,8.5395,8.5395,8.5044,8.4893,8.5295,8.5395,8.5496,8.5922,8.5998,8.5998,8.5998,8.5998,8.5998,8.5998,8.5998,8.6174,8.6525,8.6249,8.6174,8.6525,8.6249,8.5998,8.5998,8.5998,8.5822,8.5395,8.5747,8.6746,8.8471,8.9858,9.1358,9.2761,9.2761,9.4086,9.6681,9.6681,9.8023,5.8652,5.8828,5.9062,5.8652,5.8887,5.918,5.918,5.918,5.9199,5.9403,5.9383,6.0345,6.3297,6.825,7.2971,7.6358,7.7837,7.8967,8.0097,8.1177,8.2282,8.3412,8.306,8.2909,8.3437,8.296,8.2206,8.1152,8.1026,8.0524,7.9495,7.8842,7.8515,7.8515,7.7486,7.6908,7.6908,7.6406,7.613,7.6105,7.613,7.613,7.6105,7.6682,7.6933,7.7034,7.8088,7.8867,7.9394,7.9394,7.9394,7.9394,7.9394,7.9394,7.9394,7.9394,7.9394,7.9394,7.9394,7.9394,7.9394,7.9394,7.9771,8.0348,8.085,8.1378,8.1905,8.2432,8.2583,8.2583,8.2633,8.3437,8.424,8.424,8.5144,8.5922,8.5922,8.5922,8.5922,8.5922,8.5922,8.5998,8.5998,8.5998,8.5998,8.5998,8.5998,8.5998,8.5998,8.5998,8.5998,8.6023,8.6023,8.5998,8.6023,8.6023,8.5998,8.5998,8.5998,8.5998,8.5922,8.5998,8.6084,8.6146,8.6257,8.891,9.4106,9.4106,9.5251,9.7372,9.7372,9.8461,5.9004,5.9062,5.9121,5.9004,5.9062,5.9121,5.8828,5.9004,5.9121,5.8828,5.9004,6.0032,6.2862,6.5068,6.798,7.2815,7.4599,7.6192,7.8812,8.0072,8.1051,8.183,8.2031,8.2206,8.2382,8.193,8.1754,8.2056,8.0775,7.9947,7.9921,7.8691,7.7837,7.7486,7.6733,7.6356,7.6356,7.6155,7.6055,7.6055,7.6055,7.6055,7.6055,7.6256,7.6532,7.6908,7.731,7.7787,7.834,7.8691,7.8842,7.8867,7.9243,7.9394,7.9394,7.9394,7.9394,7.9394,7.9394,7.9394,7.9394,7.9394,7.9746,8.0248,8.0449,8.1102,8.1855,8.2056,8.2382,8.2759,8.311,8.3763,8.4491,8.5244,8.5722,8.5998,8.5998,8.5998,8.5998,8.5998,8.5998,8.5998,8.5998,8.5998,8.5998,8.5998,8.5998,8.6098,8.645,8.65,8.6776,8.7529,8.7253,8.7027,8.7027,8.6701,8.6349,8.6023,8.5998,8.5998,8.5998,8.5998,8.5998,8.5998,8.5998,8.6924,8.8988,8.8988,9.0205,9.2675,9.2675,9.4994,5.918,5.918,5.9238,5.9355,5.9297,5.9121,5.8828,5.8965,5.9062,5.8652,5.8887,5.9829,6.163,6.2029,6.3818,6.9502,7.2035,7.4064,7.6428,7.8399,7.9921,8.0675,8.1227,8.1553,8.1553,8.1579,8.1654,8.183,8.0675,7.9947,7.9921,7.8515,7.736,7.6632,7.6256,7.6055,7.6055,7.6055,7.6055,7.6055,7.6055,7.6055,7.6055,7.6055,7.6256,7.6607,7.6607,7.7009,7.7737,7.8289,7.8515,7.8591,7.9168,7.9394,7.9394,7.9394,7.9394,7.9394,7.9394,7.9394,7.9394,7.9394,7.9645,7.9997,8.0373,8.0976,8.1629,8.2005,8.2508,8.3035,8.3386,8.4064,8.4818,8.5772,8.5998,8.5998,8.5998,8.5998,8.5998,8.5998,8.5998,8.5998,8.5998,8.5998,8.5998,8.5998,8.5998,8.6098,8.645,8.6525,8.6776,8.7555,8.7278,8.7077,8.7077,8.6751,8.6349,8.6023,8.5998,8.5998,8.5998,8.5998,8.5998,8.5998,8.5998,8.5998,8.5998,8.5998,8.7451,9.0096,9.0096,9.2558,0.0,0.0,0.0,5.9687,5.9473,5.918,5.918,5.918,5.9062,5.8652,5.8887,5.918,5.918,5.918,6.0969,6.6478,7.0276,7.2686,7.3417,7.6325,7.8814,8.0022,8.0675,8.1026,8.1026,8.2005,8.198,8.0373,8.0725,8.0524,7.9419,7.8264,7.7159,7.608,7.6055,7.6055,7.6055,7.6055,7.6055,7.6055,7.6055,7.6055,7.6055,7.6055,7.6055,7.6055,7.6055,7.6657,7.7687,7.8264,7.849,7.8566,7.9143,7.9394,7.9394,7.9394,7.9394,7.9394,7.9394,7.9394,7.9394,7.9394,7.9394,7.9595,8.0675,8.1026,8.1277,8.2357,8.306,8.3512,8.3537,8.4341,8.532,8.5847,8.5998,8.5998,8.5998,8.5998,8.5998,8.5998,8.5998,8.5998,8.5998,8.5998,8.5998,8.5998,8.5998,8.5998,8.6023,8.6023,8.6023,8.6073,8.6073,8.6073,8.6073,8.6073,8.6023,8.5998,8.5998,8.5998,8.5998,8.5998,8.5998,8.5998,8.5998,8.5998,8.5998,8.5998,8.734,8.9989,9.007,9.1507,5.9238,0.0,0.0,0.0,0.0,0.0,5.8769,5.8945,5.9062,5.8652,5.8887,5.918,5.918,5.918,5.9698,6.128,6.4328,6.8083,7.2295,7.4376,7.6351,7.8737,8.0198,8.1026,8.1026,8.1654,8.1855,8.1403,8.08,7.9947,7.8817,7.7335,7.6381,7.6055,7.6055,7.6055,7.6055,7.6055,7.6055,7.6055,7.6055,7.6055,7.6055,7.6055,7.6055,7.6055,7.6055,7.623,7.6582,7.7536,7.7938,7.8013,7.8992,7.9394,7.9394,7.9394,7.9394,7.9394,7.9394,7.9394,7.9394,7.9394,7.9394,7.952,8.0223,8.0725,8.1277,8.2357,8.306,8.3688,8.4491,8.5219,8.5822,8.5998,8.5998,8.5998,8.5998,8.5998,8.5998,8.5998,8.5998,8.5998,8.5998,8.5998,8.5998,8.5998,8.5998,8.6148,8.6525,8.66,8.6877,8.7705,8.778,8.7605,8.7178,8.7178,8.6851,8.6073,8.5998,8.5998,8.5998,8.5998,8.5998,8.5998,8.5998,8.5998,8.5998,8.5998,8.6419,8.7119,8.8761,8.911,5.9297,5.918,5.9238,5.9414,0.0,0.0,5.8652,5.8887,5.9004,5.8379,5.8769,5.918,5.918,5.918,5.918,5.918,6.0858,6.3821,6.8712,7.1881,7.4344,7.6388,7.8819,8.0248,8.0022,8.1076,8.1528,8.085,8.065,7.9871,7.8264,7.7059,7.6281,7.6055,7.5829,7.5829,7.6055,7.5829,7.5829,7.6055,7.6055,7.6055,7.6055,7.6055,7.6055,7.6055,7.6055,7.6055,7.613,7.7009,7.7486,7.7812,7.8942,7.9394,7.9394,7.9394,7.9394,7.9394,7.9394,7.9394,7.9394,7.9394,7.9394,7.9545,8.0323,8.0775,8.1302,8.2633,8.3587,8.4391,8.5244,8.5747,8.5998,8.5998,8.5998,8.5998,8.5998,8.5998,8.5998,8.5998,8.5998,8.5998,8.5998,8.5998,8.5998,8.5998,8.5998,8.6098,8.6425,8.6625,8.7027,8.7705,8.7956,8.7956,8.7605,8.7379,8.7002,8.6349,8.6098,8.5998,8.5998,8.5998,8.5998,8.5998,8.5998,8.5998,8.5998,8.5998,8.5998,8.6084,8.7081,8.6895,5.9355,5.9238,5.9355,5.9648,5.9473,0.0,5.8711,5.8887,5.8965,5.8164,5.8613,5.918,5.918,5.918,5.918,5.918,5.918,6.0493,6.4207,6.8864,7.2403,7.3873,7.6975,7.8934,7.8766,8.0524,8.1102,7.9595,8.0223,7.9796,7.7812,7.7109,7.6557,7.608,7.5578,7.5527,7.5954,7.5527,7.5552,7.5954,7.603,7.6055,7.6055,7.6055,7.6055,7.6055,7.6055,7.6055,7.6105,7.6707,7.726,7.7812,7.8867,7.9319,7.9394,7.9394,7.9394,7.9394,7.9394,7.9394,7.9394,7.9394,7.9394,7.9595,8.0624,8.0976,8.1378,8.311,8.4391,8.532,8.5847,8.5998,8.5998,8.5998,8.5998,8.5998,8.5998,8.5998,8.5998,8.5998,8.5998,8.5998,8.5998,8.5998,8.5998,8.5998,8.5998,8.5998,8.5998,8.645,8.6776,8.6851,8.7354,8.768,8.7605,8.7178,8.6851,8.6701,8.6249,8.5998,8.5998,8.5998,8.5998,8.5998,8.5998,8.5998,8.5998,8.5922,8.5922,8.5897,8.5244,8.4968,5.9805,5.9687,5.9629,5.9355,5.9238,0.0,5.9062,5.9121,5.9121,5.8965,5.9062,5.918,5.918,5.918,5.918,5.918,5.918,6.0314,6.3242,6.5298,6.8254,7.3003,7.5318,7.7328,7.9663,8.0675,8.0876,8.0097,7.8992,7.8164,7.7712,7.6758,7.618,7.6055,7.5954,7.5728,7.5402,7.5728,7.5728,7.5402,7.5854,7.6055,7.6055,7.6055,7.6055,7.6055,7.6055,7.6055,7.613,7.7134,7.7611,7.7762,7.844,7.8967,7.9394,7.9394,7.9394,7.9394,7.9394,7.9394,7.9394,7.9394,7.9394,7.952,8.0173,8.0675,8.1478,8.3562,8.4993,8.5847,8.5998,8.5998,8.5998,8.5998,8.5998,8.5998,8.5998,8.5998,8.5998,8.5998,8.5998,8.5998,8.5998,8.5998,8.5998,8.5998,8.5998,8.5998,8.5998,8.645,8.6952,8.7379,8.7956,8.8107,8.763,8.7504,8.7103,8.6199,8.6073,8.5998,8.5998,8.5998,8.5998,8.5998,8.5998,8.5998,8.5998,8.5546,8.532,8.5295,8.4315,8.4064,6.0098,5.9805,5.9531,5.9746,5.9473,0.0,0.0,5.918,5.9121,5.8887,5.9023,5.918,5.918,5.918,5.918,5.918,5.918,5.9698,6.1059,6.2928,6.5341,6.8708,7.0925,7.3393,7.6516,7.7612,7.863,8.0093,7.8666,7.7712,7.7712,7.6657,7.6055,7.6055,7.5804,7.5527,7.5251,7.5502,7.5502,7.5251,7.5804,7.6055,7.6055,7.6055,7.6055,7.6055,7.6055,7.6055,7.613,7.6959,7.7461,7.7787,7.8616,7.9118,7.9394,7.9394,7.9394,7.9394,7.9394,7.9394,7.9394,7.9394,7.9394,7.9545,8.0373,8.1579,8.2909,8.3989,8.5144,8.5998,8.5998,8.5998,8.5998,8.5998,8.5998,8.5998,8.5998,8.5998,8.6098,8.6349,8.6174,8.5998,8.5998,8.6199,8.6274,8.6023,8.5998,8.5998,8.5998,8.645,8.7002,8.7529,8.8132,8.8458,8.8433,8.7931,8.7354,8.6851,8.6324,8.5998,8.5998,8.5998,8.5998,8.5998,8.5998,8.5998,8.5998,8.5395,8.5144,8.5008,8.3989,8.3638,6.0449,6.0039,5.9707,6.0273,5.9922,5.9414,0.0,0.0,0.0,5.8887,5.9062,5.9297,5.918,5.918,5.918,5.918,5.918,5.9199,5.9297,6.1251,6.3064,6.4449,6.6408,6.9054,7.2395,7.3582,7.5721,7.9613,7.8079,7.7204,7.7862,7.6808,7.6205,7.6205,7.5678,7.5301,7.5075,7.5201,7.5126,7.4925,7.5477,7.5804,7.5904,7.5904,7.5954,7.6055,7.6055,7.6055,7.6105,7.6758,7.731,7.7812,7.8817,7.9294,7.9394,7.9394,7.9394,7.9394,7.9394,7.9394,7.9394,7.9394,7.952,7.9871,8.0775,8.2583,8.4315,8.4315,8.5144,8.5998,8.5998,8.5998,8.5998,8.5998,8.5998,8.5998,8.5998,8.5998,8.6174,8.6676,8.6525,8.6324,8.6324,8.65,8.6525,8.6174,8.6073,8.5998,8.5998,8.645,8.6952,8.7379,8.7956,8.8458,8.8785,8.8032,8.7504,8.7278,8.66,8.6098,8.5998,8.5998,8.5998,8.5998,8.5998,8.5998,8.5998,8.5395,8.5069,8.4968,8.3964,8.3437,6.0898,6.0957,6.0801,6.0508,6.0371,6.0312,6.0312,0.0,6.0156,5.9746,0.0,5.9629,5.9238,0.0,0.0,5.918,5.918,5.9297,5.9687,5.9731,6.0858,6.3899,6.4896,6.6469,6.9505,7.0217,7.2731,7.8281,7.6125,7.5612,7.8313,7.7385,7.6783,7.6783,7.6256,7.5502,7.4523,7.5,7.4749,7.3795,7.4347,7.4849,7.5327,7.5327,7.5603,7.6055,7.6055,7.6055,7.613,7.7185,7.7637,7.7762,7.839,7.8942,7.9394,7.9394,7.9394,7.9394,7.9394,7.9394,7.9394,7.9394,8.0047,8.0876,8.1001,8.2583,8.4315,8.4315,8.5144,8.5998,8.5998,8.5998,8.5998,8.5998,8.5998,8.5998,8.5998,8.5998,8.6174,8.6676,8.7103,8.7429,8.7429,8.6676,8.6249,8.6625,8.6274,8.5998,8.5998,8.645,8.6776,8.6851,8.7354,8.7529,8.7103,8.7379,8.7178,8.6249,8.65,8.65,8.6023,8.5998,8.5998,8.5998,8.5998,8.5998,8.5998,8.5395,8.4893,8.4391,8.3788,8.3236,6.1191,6.0918,6.0508,6.1015,6.0781,6.0488,6.0742,6.0625,6.0371,6.0215,0.0,0.0,0.0,0.0,0.0,0.0,5.9355,5.9238,5.9414,5.9297,5.9856,6.1462,6.1574,6.2817,6.606,6.8477,7.0762,7.2981,7.2155,7.2734,7.5455,7.5121,7.5494,7.6883,7.6657,7.6004,7.49,7.5427,7.5151,7.4071,7.4623,7.5025,7.5251,7.5251,7.5527,7.6055,7.6055,7.6055,7.613,7.726,7.7712,7.7787,7.8691,7.9168,7.9394,7.9394,7.9394,7.9444,7.9746,7.9871,7.9871,7.9871,8.0398,8.1026,8.1026,8.2583,8.4315,8.4315,8.5144,8.5998,8.5998,8.5998,8.5998,8.5998,8.5998,8.6098,8.6374,8.645,8.6701,8.7605,8.768,8.778,8.8458,8.7931,8.7178,8.6425,8.6425,8.645,8.645,8.6374,8.6575,8.7178,8.7454,8.763,8.778,8.7956,8.778,8.7002,8.6525,8.6249,8.5998,8.5998,8.5998,8.5998,8.5998,8.5998,8.5998,8.5747,8.5345,8.4793,8.3889,8.3186,6.125,6.0859,6.039,6.1426,6.125,6.0859,6.1191,6.1015,6.0742,6.0625,6.0605,0.0,0.0,0.0,5.998,5.998,0.0,5.9355,5.9355,5.9238,5.9297,5.959,5.9355,6.0465,6.3648,6.5881,6.7627,6.9004,6.8695,6.9632,7.2336,7.3037,7.4175,7.5826,7.6533,7.6356,7.5251,7.5628,7.5276,7.4197,7.4598,7.4799,7.4799,7.495,7.5327,7.5829,7.5979,7.6055,7.613,7.726,7.7712,7.7812,7.8942,7.9394,7.9394,7.957,7.962,7.967,8.0072,8.0122,8.0022,8.0173,8.0574,8.1026,8.1026,8.2583,8.4315,8.4315,8.5144,8.5998,8.5998,8.5998,8.5998,8.5998,8.5998,8.6174,8.6676,8.6776,8.7128,8.8232,8.8132,8.8107,8.8935,8.8609,8.7881,8.6851,8.6851,8.7027,8.7027,8.6525,8.6575,8.7504,8.7454,8.7605,8.8182,8.8383,8.8283,8.7856,8.6952,8.6349,8.6249,8.6199,8.6174,8.5998,8.5998,8.5998,8.5998,8.5998,8.5722,8.5144,8.4165,8.3512,6.0859,6.1094,6.1152,6.1601,6.1719,6.166,6.1719,6.166,6.1543,6.1152,6.1074,6.0918,6.0508,6.043,6.043,6.043,6.0039,0.0,0.0,5.9453,5.918,5.918,5.918,6.0345,6.31,6.1393,6.2394,6.8016,6.6341,6.6487,6.9856,7.2254,7.3488,7.3465,7.5648,7.6356,7.5251,7.5251,7.4724,7.3619,7.3644,7.3644,7.3669,7.4197,7.4749,7.5301,7.5829,7.6055,7.613,7.726,7.7712,7.7812,7.8942,7.9394,7.9444,7.9997,8.0173,8.0198,8.0198,7.9871,7.9495,8.0047,8.0574,8.1026,8.1026,8.2583,8.4315,8.4315,8.5144,8.5998,8.5998,8.5998,8.5998,8.5998,8.5998,8.6174,8.6676,8.6776,8.7128,8.8232,8.8458,8.8458,8.8484,8.8032,8.778,8.8308,8.7931,8.758,8.758,8.7103,8.6952,8.7529,8.7128,8.7027,8.7605,8.8132,8.8458,8.8458,8.7881,8.7278,8.6776,8.6776,8.6525,8.5998,8.5998,8.5998,8.5998,8.5998,8.5722,8.5144,8.4567,8.4315,6.0859,6.0859,6.084,6.1543,6.1719,6.1719,6.1719,6.1719,6.1777,6.1894,6.1719,6.1543,6.168,6.125,6.0781,6.0488,6.0098,5.9707,0.0,5.9297,5.918,5.918,5.918,5.9587,6.0587,6.0112,6.0548,6.2144,6.21,6.3353,6.6398,6.7627,6.9893,7.3697,7.4264,7.5143,7.6331,7.5954,7.5226,7.4146,7.4146,7.3946,7.3619,7.4171,7.4724,7.5276,7.5829,7.6055,7.613,7.726,7.7712,7.7812,7.8942,7.9394,7.9419,7.9595,7.967,7.9721,8.0097,8.0097,7.9972,8.0147,8.0574,8.1026,8.1026,8.2583,8.4315,8.4315,8.5144,8.5998,8.5998,8.5998,8.5998,8.5998,8.5998,8.6174,8.6676,8.7052,8.7529,8.8308,8.8785,8.9036,8.9036,8.886,8.8534,8.7956,8.7705,8.7755,8.8132,8.7354,8.7002,8.7529,8.778,8.7806,8.7605,8.8132,8.8458,8.8458,8.7931,8.7529,8.7354,8.6952,8.6701,8.6525,8.6174,8.5998,8.5998,8.5998,8.5922,8.5671,8.5144,8.4667,6.0449,6.0449,6.043,6.1269,6.1484,6.1543,6.166,6.1719,6.1777,6.207,6.2012,6.2012,6.2129,6.166,6.1152,6.0742,6.0215,5.9648,0.0,5.918,5.918,5.918,5.918,5.918,5.918,5.9414,5.9473,5.918,5.9687,6.0904,6.2913,6.5493,6.8545,7.2169,7.3992,7.5486,7.6883,7.6331,7.5502,7.4423,7.4623,7.4322,7.3619,7.4372,7.49,7.5276,7.5829,7.6055,7.613,7.7034,7.7511,7.7787,7.8716,7.9193,7.9419,7.9595,7.9796,8.0022,8.0373,8.0499,8.0499,8.0499,8.0876,8.1302,8.1302,8.2708,8.4315,8.4315,8.5144,8.5998,8.5998,8.5998,8.5998,8.5998,8.6174,8.6425,8.6952,8.7529,8.8107,8.8634,8.9036,8.9287,8.9287,8.9287,8.9036,8.8283,8.8182,8.8358,8.871,8.7956,8.7605,8.8132,8.8182,8.8107,8.7931,8.8433,8.8785,8.8785,8.8433,8.8107,8.7931,8.7555,8.8032,8.9387,8.7354,8.7178,8.8935,8.6927,8.6098,8.6274,8.5722,8.5244]}]]